     2.10           OBSERVATION DATA    G (GPS)             RINEX VERSION / TYPE
teqc 2005May6 SOPAC 20050707 00:17:39UTC                    PGM / RUN BY / DATE
Linux 2.4.20-8|Pentium IV|gcc|Linux|486/DX+                 COMMENT
BIT 2 OF LLI FLAGS DATA COLLECTED UNDER A/S CONDITION       COMMENT
HPGN CA 02 26                                               MARKER NAME
0226                                                        MARKER NUMBER
Tony Carruthers                                             OBSERVER / AGENCY
0220188099 TRIMBLE 4700 1.30                                REC # / TYPE / VERS
0220187156 TRM33429.00+GP NONE                              ANT # / TYPE
 -2437640.0000 -4223067.0000  4099567.0000                  APPROX POSITION XYZ
        2.0000        0.0000        0.0000                  ANTENNA: DELTA H/E/N
     1     1                                                WAVELENGTH FACT L1/2
     6    L1    L2    C1    P2    P1    D1                  # / TYPES OF OBSERV
    15.0000                                                 INTERVAL
Northern California Height Modernization 2004               COMMENT
                                                            COMMENT
SOPAC - Scripps Orbit and Permanent Array Center            COMMENT
IGPP - Institute of Geophysics and Planetary Physics        COMMENT
SIO - Scripps Institution of Oceanography                   COMMENT
UCSD - University of California, San Diego                  COMMENT
                                                            COMMENT
email: archive@gpsmail.ucsd.edu                             COMMENT
ftp://garner.ucsd.edu                                       COMMENT
http://sopac.ucsd.edu                                       COMMENT
                                                            COMMENT
                                                            COMMENT
Approximate Lat, Lon : 40.245, -119.994                     COMMENT
                                                            COMMENT
SNR is mapped to RINEX snr flag value [0-9]                 COMMENT
L1 & L2: 2-19 dBHz = 1, 20-27 dBHz = 2, 28-31 dBHz = 3      COMMENT
32-35 dBHz = 4, 36-38 dBHz = 5, 39-41 dBHz = 6              COMMENT
42-44 dBHz = 7, 45-48 dBHz = 8, >= 49 dBHz = 9              COMMENT
  2004     9     2    15     1    0.0000000     GPS         TIME OF FIRST OBS
                                                            END OF HEADER
 04  9  2 15  1  0.0000000  0  6G11G14G15G19G22G25
    -81481.31558    -50320.29653  22877561.7584   22877555.4534
      2214.7344
     55080.70259     27395.31555  20269804.3444   20269798.5204
     -1489.8594
    134183.51259     71062.63054  21667140.5944   21667136.2034
     -3637.2974
     86131.00857     44130.76554  22632229.9304   22632222.7424
     -2337.2344
     87991.98659     44897.81955  21731830.7734   21731824.0634
     -2370.5784
    -95212.58957    -60086.38252  23006852.8204   23006848.6484
      2693.1884
 04  9  2 15  1 15.0000000  0  6G11G14G15G19G22G25
   -114659.20448    -76173.21043  22871248.0394   22871241.8834
      2207.6884
     77488.33849     44855.78145  20274068.7194   20274062.2424
     -1499.1874
    188793.61949    113615.91844  21677532.9384   21677528.3914
     -3645.3594
    121251.79048     71497.58144  22638912.8914   22638905.2544
     -2346.7034
    123578.75549     72627.73345  21738602.8984   21738595.4694
     -2375.6254
   -135582.78447    -91543.68842  22999170.6954   22999166.4924
      2688.1254
 04  9  2 15  1 30.0000000  0  8G 1G 3G11G14G15G19G22G25
   -102359.58757    -74943.89652  23833158.3834   23833155.0044
      2644.9534
    135894.59656     89480.41852  24185195.1414   24185191.7624
     -3542.6094
   -147727.15948   -101940.47043  22864955.2814   22864949.1254
      2200.7974
    100040.20249     62428.64045  20278360.1094   20278354.0594
     -1508.2504
    243529.03249    156266.86744  21687948.8364   21687944.1094
     -3653.2344
    156517.60548     98977.39044  22645624.0634   22645616.6884
     -2355.8444
    159246.70049    100420.90745  21745390.0944   21745382.9064
     -2380.5004
   -175872.53347   -122938.28443  22991503.9844   22991499.8834
      2683.3594
 04  9  2 15  1 45.0000000  0  8G 1G 3G11G14G15G19G22G25
   -141963.34046   -105803.97442  23825622.1254   23825618.1914
      2633.9224
    189087.53146    130929.41942  24195317.9224   24195314.3054
     -3551.4064
   -180655.79148   -127599.18643  22858689.1644   22858682.8594
      2187.9694
    122765.34449     80136.53145  20282684.5704   20282678.5554
     -1523.4374
    298418.76549    199038.04644  21698393.9144   21698389.2584
     -3667.0784
    191957.38748    126592.77044  22652367.5864   22652360.3484
     -2371.0164
    195024.85149    128299.96145  21752198.5554   21752190.9384
     -2391.5164
   -216052.37447   -154247.27643  22983858.3284   22983853.6684
      2672.4064
 04  9  2 15  2  0.0000000  0  8G 1G 3G11G14G15G19G22G25
   -181412.63646   -136543.65642  23818115.2274   23818110.9924
      2625.9064
    242397.58146    172469.67242  24205462.2584   24205459.0234
     -3556.7344
   -213403.30748   -153116.72543  22852457.6884   22852451.5784
      2178.3284
    145704.95349     98011.52645  20287050.2584   20287043.5594
     -1535.2504
    353503.99349    241961.57244  21708876.2504   21708871.5984
     -3677.6724
    227612.23348    154375.73744  22659152.8054   22659145.7234
     -2383.0164
    230954.81149    156297.31245  21759035.9844   21759028.3914
     -2399.1874
   -256080.68147   -185438.15443  22976241.1884   22976236.2934
      2664.7034
 04  9  2 15  2 15.0000000  0  8G 1G 3G11G14G15G19G22G25
   -220741.47146   -167189.54242  23810630.9844   23810627.2114
      2617.7034
    295790.24346    214074.28442  24215621.7814   24215619.8324
     -3562.4844
   -246003.67948   -178519.60943  22846253.8444   22846247.7974
      2168.3134
    168824.57949    116026.80545  20291449.5314   20291443.0434
     -1547.4844
    408750.24949    285010.57644  21719389.2894   21719384.7234
     -3688.5944
    263447.61248    182299.37744  22665971.7814   22665965.0434
     -2395.2344
    267002.20049    184386.16245  21765895.4144   21765888.2704
     -2407.2344
   -295991.24248   -216537.29443  22968646.7894   22968641.7234
      2656.6254
 04  9  2 15  2 30.0000000  0  7G 1G11G14G15G19G22G25
   -259942.30046   -197735.65642  23803171.6174   23803167.5784
      2608.7814
   -278449.28448   -203801.92943  22840079.4694   22840073.6174
      2157.5634
    192131.39649    134187.96146  20295884.8834   20295878.2034
     -1560.3284
    464164.65049    328190.60644  21729934.2734   21729929.7034
     -3700.2504
    299470.61848    210369.25044  22672826.5784   22672820.0474
     -2408.1254
    303174.48649    212572.33745  21772778.8524   21772771.6884
     -2415.9374
   -335776.20847   -247538.53743  22961075.6254   22961071.0594
      2647.8594
 04  9  2 15  2 45.0000000  0  7G 1G11G14G15G19G22G25
   -299009.04846   -228177.21942  23795737.1954   23795733.3954
      2600.2194
   -310733.92048   -228958.79043  22833936.5944   22833930.3954
      2147.0474
    215631.04249    152499.35745  20300356.8204   20300350.4494
     -1572.9844
    519752.90948    371506.10844  21740512.3364   21740507.8914
     -3711.5314
    335686.82048    238589.61644  22679718.9454   22679711.7114
     -2420.6724
    339477.64649    240860.49245  21779687.3054   21779680.0664
     -2424.4374
   -375429.39748   -278437.14143  22953529.9614   22953524.8914
      2639.2814
 04  9  2 15  3  0.0000000  0  7G 1G11G14G15G19G22G25
   -337942.85946   -258515.31442  23788328.4614   23788324.8094
      2591.3134
   -342858.53848   -253990.97543  22827822.7114   22827817.1954
      2136.4534
    239322.14749    170959.94345  20304864.9774   20304858.1484
     -1585.6564
    575513.52748    414955.89544  21751123.3594   21751118.7154
     -3722.9534
    372094.67748    266959.35843  22686646.4614   22686639.8364
     -2433.4534
    375910.41849    269249.64045  21786620.2894   21786613.0314
     -2432.9844
   -414951.78247   -309233.79643  22946009.2974   22946004.6484
      2630.6254
 04  9  2 15  3 15.0000000  0  7G 1G11G14G15G19G22G25
   -376742.59346   -288748.84542  23780944.7504   23780940.9924
      2582.0944
   -374821.90848   -278897.49943  22821740.3284   22821733.9614
      2125.4534
    263205.45149    189570.30045  20309409.4534   20309403.7074
     -1598.6724
    631447.18448    458540.54344  21761767.1954   21761762.5354
     -3734.8284
    408694.77448    295478.89443  22693611.6094   22693604.3054
     -2446.5164
    412473.57249    297740.38745  21793578.0314   21793570.5234
     -2441.9534
   -454341.95547   -339927.42443  22938512.8984   22938508.5784
      2621.5474
 04  9  2 15  3 30.0000000  0  7G 1G11G14G15G19G22G25
   -415404.07346   -318874.66342  23773588.0634   23773583.9844
      2572.7664
   -406619.56348   -303674.90643  22815689.6094   22815683.5234
      2114.2344
    287284.83349    208333.44245  20313991.8054   20313985.5314
     -1611.8754
    687557.75348    502263.03144  21772444.5704   21772440.0784
     -3746.6724
    445490.85248    324151.12444  22700613.6414   22700606.6054
     -2459.6724
    449171.27649    326335.98145  21800561.3054   21800553.9924
     -2451.1254
   -493595.70448   -370514.75143  22931043.4924   22931038.6254
      2612.2814
 04  9  2 15  3 45.0000000  0  7G 1G11G14G15G19G22G25
   -453931.87946   -348896.38842  23766255.8364   23766252.2464
      2564.3444
   -438256.05348   -328326.72343  22809669.3204   22809663.2304
      2104.0784
    311555.28349    227245.46845  20318610.1174   20318603.4454
     -1624.0474
    743840.24549    546119.48444  21783154.7034   21783150.0394
     -3757.4694
    482477.84148    352972.12644  22707651.9224   22707645.1094
     -2471.7974
    485998.67149    355032.61645  21807568.9924   21807561.4574
     -2459.1414
   -532717.45447   -400999.20643  22923598.7344   22923594.2424
      2604.1414
 04  9  2 15  4  0.0000000  0  7G 1G11G14G15G19G22G25
   -492332.27346   -378818.74342  23758949.2114   23758944.6684
      2555.8134
   -469737.65648   -352857.84243  22803678.6414   22803672.3094
      2093.6724
    336010.13049    246301.18445  20323264.0004   20323257.7194
     -1636.4064
    800287.99449    590104.73244  21793896.6174   21793891.8794
     -3768.6254
    519649.05648    381936.67144  22714725.2894   22714718.6294
     -2484.1724
    522949.28249    383825.29445  21814600.6564   21814593.4804
     -2467.4374
   -571713.24247   -431385.53843  22916178.3284   22916173.6054
      2595.5784
 04  9  2 15  4 15.0000000  0  7G 1G11G14G15G19G22G25
   -530611.74646   -408646.86642  23751664.2274   23751661.0204
      2548.0634
   -501070.56948   -377273.10543  22797716.2034   22797710.1024
      2084.1094
    360642.52149    265495.24845  20327951.2974   20327944.8164
     -1647.9374
    856894.09649    634213.34444  21804668.3204   21804663.9144
     -3778.8914
    556997.51448    411039.35744  22721832.6414   22721825.6764
     -2495.6724
    560016.62149    412708.90945  21821654.5004   21821647.2194
     -2474.8754
   -610589.28747   -461678.55343  22908780.2274   22908776.1024
      2587.8594
 04  9  2 15  4 30.0000000  0  7G 1G11G14G15G19G22G25
   -568773.07946   -438383.03342  23744402.6174   23744398.7934
      2540.0474
   -532257.40448   -401574.54143  22791781.4304   22791775.4264
      2074.1094
    385449.44449    284825.30046  20332672.0704   20332665.6484
     -1659.7194
    913655.44649    678442.92844  21815469.8284   21815464.9574
     -3789.3914
    594519.96248    440277.58944  22728973.0084   22728966.4804
     -2507.4374
    597197.66149    441681.13345  21828729.6954   21828722.7194
     -2482.6564
   -649348.11347   -491880.22743  22901404.6724   22901400.3164
      2579.9694
 04  9  2 15  4 45.0000000  0  7G 1G11G14G15G19G22G25
   -606820.52346   -468030.38342  23737162.4144   23737158.8324
      2532.8594
   -563302.42948   -425765.48143  22785874.0164   22785867.9804
      2065.1254
    410426.13049    304287.64746  20337424.9694   20337418.6214
     -1670.5944
    970567.45249    722789.91844  21826299.7114   21826295.0354
     -3799.0004
    632211.49348    469647.58844  22736145.5864   22736138.4534
     -2518.2664
    634487.91749    470738.44645  21835825.9064   21835818.4884
     -2489.4844
   -687993.82248   -521993.75043  22894050.4304   22894045.9454
      2572.8444
 04  9  2 15  5  0.0000000  0  7G 1G11G14G15G19G22G25
   -644760.62446   -497594.09842  23729942.9224   23729938.8484
      2525.8754
   -594211.89248   -449850.79343  22779991.7974   22779985.8444
      2056.1254
    435565.72349    323876.93846  20342208.7814   20342202.3404
     -1681.3444
   1027623.07649    767248.81944  21837156.8524   21837152.4844
     -3808.4534
    670065.32147    499144.05044  22743348.6884   22743341.9924
     -2528.9064
    671880.65949    499875.62945  21842941.4224   21842934.0664
     -2496.2194
   -726532.80548   -552024.10243  22886716.9384   22886712.6374
      2565.7974
 04  9  2 15  5 15.0000000  0  7G 1G11G14G15G19G22G25
   -682593.16346   -527073.98042  23722743.2274   23722739.3914
      2518.8754
   -624985.51748   -473830.24243  22774136.0864   22774129.8134
      2047.2814
    460867.94449    343592.92746  20347023.6804   20347017.1374
     -1692.0474
   1084822.04149    811819.41644  21848041.5234   21848036.7734
     -3817.7344
    708081.07147    528766.68244  22750582.9924   22750576.3134
     -2539.5784
    709375.99848    529092.76045  21850076.7504   21850069.4654
     -2502.9224
   -764964.70148   -581971.01943  22879403.6564   22879399.1334
      2558.7814
 04  9  2 15  5 30.0000000  0  7G 1G11G14G15G19G22G25
   -720249.62546   -556416.67242  23715577.9614   23715573.7584
      2505.2664
   -655554.51848   -497650.22343  22768318.7664   22768312.7704
      2031.7664
    486401.10349    363488.89946  20351882.7034   20351876.3054
     -1709.2194
   1142232.58949    856554.89244  21858966.6804   21858961.8014
     -3833.7344
    746326.85247    558568.56243  22757860.9224   22757853.8054
     -2556.6564
    747042.31648    558443.12645  21857244.1484   21857236.9924
     -2516.0624
   -803220.74248   -611780.88343  22872123.6884   22872119.6484
      2545.2344
 04  9  2 15  5 45.0000000  0  7G 1G11G14G15G19G22G25
   -757777.11346   -585658.87142  23708436.6094   23708432.7344
      2498.6094
   -685966.05148   -521347.53643  22762531.9694   22762525.8444
      2023.2344
    512117.65949    383527.76946  20356775.9774   20356769.6214
     -1719.4374
   1199807.12248    901418.14544  21869922.4774   21869918.1484
     -3842.7034
    784755.00047    588512.56744  22765173.7814   22765166.2304
     -2567.0164
    784832.25848    587889.81845  21864435.6484   21864428.1684
     -2522.4224
   -841347.79048   -641490.26943  22864867.9224   22864863.4614
      2538.4844
 04  9  2 15  6  0.0000000  0  7G 1G11G14G15G19G22G25
   -795206.47446   -614824.57842  23701313.4454   23701310.2584
      2492.2664
   -716250.82349   -544946.07843  22756768.9844   22756762.5904
      2014.9224
    537986.55749    403685.33246  20361698.9694   20361692.6524
     -1729.4374
   1257514.47049    946384.89344  21880904.0784   21880899.5124
     -3851.4064
    823334.32947    618574.34544  22772515.3984   22772508.2624
     -2576.8284
    822714.85948    617408.71045  21871644.4924   21871637.1844
     -2528.3914
   -879376.62748   -671123.09343  22857631.4614   22857627.5864
      2532.1724
 04  9  2 15  6 15.0000000  0  7G 1G11G14G15G19G22G25
   -832539.88946   -643915.57842  23694210.2974   23694205.8014
      2485.3284
   -746411.00348   -568447.50643  22751029.6024   22751023.2624
      2006.1254
    564004.94249    423959.39046  20366650.2034   20366643.6484
     -1739.9534
   1315351.91349    991453.01044  21891910.1414   21891905.4064
     -3860.4844
    862061.94447    648751.67444  22779885.0004   22779878.0274
     -2587.1564
    860687.64349    646997.86845  21878870.5704   21878862.9494
     -2534.9224
   -917309.24847   -700680.95443  22850413.6414   22850408.3404
      2525.2034
 04  9  2 15  6 30.0000000  0  7G 1G11G14G15G19G22G25
   -869774.27146   -672929.38142  23687124.2734   23687120.1764
      2479.0314
   -776443.23248   -591849.25743  22745314.6644   22745308.3014
      1997.8444
    590175.66649    444352.15846  20371630.2734   20371623.9024
     -1749.7974
   1373322.26649   1036624.68744  21902941.8754   21902937.1994
     -3869.0784
    900940.56248    679046.68644  22787282.7734   22787276.4574
     -2596.8914
    898753.59249    676659.62745  21886114.2504   21886106.8094
     -2540.8444
   -955142.41347   -730161.36643  22843213.6724   22843209.3594
      2518.8754
 04  9  2 15  6 45.0000000  0  7G 1G11G14G15G19G22G25
   -906914.61245   -701869.90442  23680056.6804   23680052.1644
      2472.8134
   -806352.39248   -615155.07843  22739622.7734   22739616.8634
      1989.7504
    616493.40149    464859.46546  20376638.0864   20376631.5354
     -1759.4694
   1431420.10549   1081895.68844  21913996.8984   21913992.6254
     -3877.4534
    939964.76648    709455.13044  22794709.2424   22794702.2274
     -2606.5164
    936907.58549    706389.99545  21893375.0004   21893367.4384
     -2546.5784
   -992880.86347   -759567.92943  22836032.3204   22836027.8054
      2512.6564
 04  9  2 15  7  0.0000000  0  7G 1G11G14G15G19G22G25
   -943964.06146   -730739.56442  23673006.0784   23673002.5744
      2466.9534
   -836141.22448   -638367.17643  22733953.9614   22733947.6764
      1981.8754
    642954.74249    485478.68646  20381673.4774   20381667.4454
     -1768.9064
   1489641.95049   1127263.34644  21925076.7974   21925071.8914
     -3885.5784
    979130.99348    739974.22844  22802162.3674   22802155.3714
     -2615.7974
    975146.41649    736186.47145  21900651.2894   21900643.9694
     -2552.1094
  -1030527.37147   -788902.87443  22828868.4384   22828863.8164
      2506.6724
 04  9  2 15  7 15.0000000  0  7G 1G11G14G15G19G22G25
   -980922.65747   -759538.48442  23665973.2734   23665969.4844
      2460.2814
   -865809.92148   -661485.62743  22728308.2504   22728302.4144
      1973.2344
    669559.18249    506209.41646  20386736.2894   20386730.1804
     -1778.9534
   1547987.33249   1172727.27844  21936178.9064   21936174.2974
     -3894.4374
   1018438.64148    770603.54244  22809641.7584   22809635.6954
     -2625.7974
   1013469.81049    766048.84645  21907943.8054   21907936.6454
     -2558.3444
  -1068081.85748   -818166.04743  22821722.1024   22821717.1884
      2499.9384
 04  9  2 15  7 30.0000000  0  7G 1G11G14G15G19G22G25
  -1017774.40947   -788254.09942  23658961.1094   23658956.9344
      2453.7504
   -895342.24249   -684497.82143  22722688.6564   22722683.0474
      1964.9064
    696322.35449    527063.83645  20391829.0554   20391822.6294
     -1788.8594
   1606471.86748   1218299.60744  21947308.5084   21947304.4184
     -3902.9534
   1057903.25548    801355.17844  22817152.4224   22817145.3714
     -2635.5784
   1051893.55049    795989.40545  21915255.6884   21915248.5314
     -2564.2974
  -1105528.08948   -847344.93243  22814596.4064   22814591.8244
      2493.3284
 04  9  2 15  7 45.0000000  0  7G 1G11G14G15G19G22G25
  -1054538.91447   -816901.75742  23651964.8054   23651960.7974
      2447.8594
   -924757.67448   -707418.93943  22717091.3204   22717085.0044
      1957.0314
    723224.25549    548026.32645  20396948.0634   20396942.0864
     -1798.1874
   1665075.45548   1263964.70344  21958460.2734   21958455.8754
     -3911.0314
   1097504.73947    832213.43343  22824688.3914   22824681.4024
     -2644.7344
   1090397.94949    825992.80945  21922582.8444   21922575.3284
     -2569.8284
  -1142885.62148   -876454.66243  22807487.1884   22807482.9614
      2487.3914
 04  9  2 15  8  0.0000000  0  7G 1G11G14G15G19G22G25
  -1091220.58846   -845484.88542  23644983.8054   23644980.3634
      2442.7974
   -954060.54449   -730252.36443  22711515.0784   22711509.0354
      1949.8444
    750260.08049    569093.19945  20402093.2814   20402086.6524
     -1806.7504
   1723793.37148   1309718.89244  21969633.9614   21969629.4064
     -3918.2344
   1137238.24348    863174.58944  22832249.2584   22832241.9344
     -2653.2194
   1128978.33149    856055.42845  21929924.4924   21929917.2704
     -2574.5004
  -1180158.61348   -905498.54843  22800394.7274   22800390.2544
      2482.2344
 04  9  2 15  8 15.0000000  0  7G 1G11G14G15G19G22G25
  -1127818.70346   -874002.90242  23638020.1954   23638016.5084
      2437.1724
   -983249.98949   -752997.36743  22705960.7194   22705954.0594
      1942.1884
    777430.16849    590264.69646  20407263.6414   20407257.8094
     -1815.7664
   1782625.89148   1355562.38144  21980829.1174   21980825.1644
     -3925.9064
   1177103.93048    894238.74944  22839835.7974   22839828.2544
     -2661.9844
   1167635.35549    886177.76545  21937280.8284   21937273.6094
     -2579.6564
  -1217346.27148   -934475.94343  22793318.1484   22793313.4534
      2476.4384
 04  9  2 15  8 30.0000000  0  7G 1G11G14G15G19G22G25
  -1164333.17746   -902455.74242  23631070.9454   23631067.5824
      2431.5634
  -1012325.64149   -775653.72043  22700427.6174   22700421.4924
      1934.5784
    804734.40049    611540.69945  20412459.6174   20412453.1484
     -1824.7344
   1841572.70749   1401494.93944  21992046.6024   21992042.4224
     -3933.5314
   1217101.49648    925405.65144  22847446.7814   22847440.0664
     -2670.8284
   1206368.88649    916359.71645  21944651.2504   21944644.0904
     -2584.8124
  -1254448.18647   -963386.50843  22786257.5164   22786253.1414
      2470.6414
 04  9  2 15  8 45.0000000  0  7G 1G11G14G15G19G22G25
  -1200766.69046   -930845.49042  23624138.3834   23624135.3014
      2426.3134
  -1041290.25249   -798223.55543  22694915.9774   22694910.0434
      1927.4064
    832169.66949    632918.83145  20417680.0084   20417673.6884
     -1833.2974
   1900630.69049   1447514.12544  22003285.0864   22003280.8754
     -3940.7664
   1257227.52248    956672.66044  22855082.4304   22855075.6604
     -2679.2344
   1245176.05449    946599.05745  21952035.9454   21952028.8444
     -2589.5004
  -1291467.00647   -992232.32643  22779213.3754   22779208.8594
      2465.2664
 04  9  2 15  9  0.0000000  0  7G 1G11G14G15G19G22G25
  -1237115.18447   -959168.98242  23617222.0864   23617217.6684
      2420.6564
  -1070139.50949   -820703.49243  22689425.8134   22689419.9534
      1919.6254
    859739.59949    654401.87745  20422926.5394   20422920.1684
     -1842.3284
   1959803.63049   1493622.88744  22014545.5864   22014541.2584
     -3948.5164
   1297485.69548    988042.64343  22862743.3674   22862736.7624
     -2688.1094
   1284060.84849    976898.89145  21959435.5944   21959428.5634
     -2594.7344
  -1328398.31248  -1021009.93643  22772185.8134   22772180.9844
      2459.2664
 04  9  2 15  9 15.0000000  0  7G 1G11G14G15G19G22G25
  -1273378.85247   -987426.35442  23610320.4844   23610316.7624
      2415.0314
  -1098873.42149   -843093.56243  22683958.0314   22683952.1914
      1911.9844
    887443.65149    675989.45045  20428198.3754   20428192.0234
     -1851.2194
   2019090.94648   1539820.75844  22025827.2194   22025823.0784
     -3956.0164
   1337875.49848   1019515.19143  22870429.2274   22870422.8244
     -2696.8284
   1323022.88949   1007258.90945  21966850.0474   21966842.6914
     -2599.7814
  -1365242.05748  -1049719.33643  22765174.5784   22765170.1374
      2453.5944
 04  9  2 15  9 30.0000000  0  7G 1G11G14G15G19G22G25
  -1309562.95147  -1015621.74042  23603435.1414   23603431.4384
      2409.3284
  -1127497.07949   -865397.71643  22678511.1094   22678505.2854
      1904.2814
    915276.34349    697677.24546  20433494.6484   20433487.9304
     -1860.1094
   2078486.95649   1586103.32944  22037130.2424   22037126.1724
     -3963.6254
   1378391.17548   1051085.81644  22878138.9924   22878132.3914
     -2705.4844
   1362056.89449   1037674.99945  21974277.7734   21974270.5044
     -2604.9694
  -1402003.37348  -1078364.50343  22758178.6094   22758174.7034
      2447.7814
 04  9  2 15  9 45.0000000  0  7G 1G11G14G15G19G22G25
  -1345670.68347  -1043757.66742  23596563.9384   23596560.6254
      2404.8284
  -1156013.62249   -887618.38143  22673084.7274   22673078.6994
      1897.6884
    943234.01449    719462.44145  20438815.0314   20438808.3714
     -1867.7974
   2137988.02149   1632467.79944  22048452.7664   22048448.5434
     -3970.0944
   1419029.02948   1082751.65243  22885872.4304   22885865.5554
     -2713.0944
   1401159.31149   1068144.39745  21981718.8754   21981711.6254
     -2608.9374
  -1438685.33148  -1106947.84243  22751198.2664   22751194.4104
      2443.0004
 04  9  2 15 10  0.0000000  0  7G 1G11G14G15G19G22G25
  -1381702.74247  -1071834.56542  23589707.3134   23589703.5664
      2397.9534
  -1184423.66049   -909756.07743  22667678.6254   22667672.5634
      1888.8594
    971315.59349    741344.17945  20444158.5554   20444151.9884
     -1877.8284
   2197593.08649   1678913.26244  22059795.2664   22059790.5824
     -3978.7814
   1459787.86448   1114511.74743  22893628.3674   22893621.9964
     -2722.8914
   1440329.30649   1098666.45245  21989172.6954   21989165.3054
     -2615.1414
  -1475288.43748  -1135469.69543  22744233.1954   22744228.5634
      2435.9694
 04  9  2 15 10 15.0000000  0  7G 1G11G14G15G19G22G25
  -1417622.79847  -1099824.20442  23582872.2114   23582868.0164
      2391.8134
  -1212690.61849   -931782.29243  22662299.6414   22662293.7384
      1880.7194
    999557.03449    763350.49045  20449532.7974   20449526.4734
     -1887.1564
   2257338.08549   1725467.77644  22071164.5704   22071159.9384
     -3986.7344
   1500703.53548   1146394.06343  22901414.4774   22901407.8134
     -2732.0164
   1479603.04549   1129269.35545  21996646.2194   21996639.0004
     -2620.7664
  -1511776.15848  -1163901.68443  22737289.9064   22737284.8874
      2429.6564
 04  9  2 15 10 30.0000000  0  7G 1G11G14G15G19G22G25
  -1453464.14447  -1127752.56742  23576051.8524   23576047.6374
      2386.6884
  -1240847.73749   -953722.90143  22656941.0554   22656934.9144
      1873.3754
   1027924.57849    785455.06046  20454931.0944   20454924.6174
     -1895.3754
   2317189.19349   1772104.96244  22082553.9144   22082549.5044
     -3993.6094
   1541742.26948   1178372.27743  22909223.9844   22909217.3984
     -2740.1094
   1518947.02449   1159926.97445  22004133.0704   22004125.7504
     -2625.2974
  -1548181.47348  -1192269.46043  22730362.1254   22730357.5204
      2424.1724
 04  9  2 15 10 45.0000000  0  7G 1G11G14G15G19G22G25
  -1489229.72647  -1155621.81042  23569245.8054   23569241.8134
      2382.1094
  -1268897.78749   -975580.08143  22651603.6644   22651597.6294
      1866.7504
   1056415.05949    807655.41946  20460352.7344   20460346.2114
     -1903.1874
   2377143.25249   1818822.38644  22093962.2894   22093958.2304
     -4000.0474
   1582900.66148   1210443.73543  22917056.3204   22917049.5984
     -2747.6414
   1558358.35249   1190637.09545  22011632.7664   22011625.7814
     -2629.4374
  -1584507.12748  -1220575.13043  22723449.3834   22723445.3014
      2419.2974
 04  9  2 15 11  0.0000000  0  7G 1G11G14G15G19G22G25
  -1524923.06147  -1183434.84942  23562453.4774   23562449.3524
      2377.1254
  -1296844.17249   -997356.48543  22646285.6024   22646279.3524
      1859.5944
   1085024.50449    829948.48746  20465796.8054   20465790.3754
     -1911.3444
   2437196.15349   1865616.81744  22105390.6884   22105385.9454
     -4006.8594
   1624174.58148   1242605.18643  22924909.9694   22924903.7074
     -2755.4224
   1597833.13349   1221396.63745  22019144.8364   22019137.1844
     -2633.8594
  -1620756.43647  -1248821.33943  22716551.9224   22716547.3244
      2413.9844
 04  9  2 15 11 15.0000000  0  7G 1G11G14G15G19G22G25
  -1560540.35346  -1211188.57742  23555675.5944   23555671.7344
      2372.3594
  -1324682.87949  -1019048.98443  22640988.1024   22640982.1684
      1852.5004
   1113756.43449    852336.99745  20471264.4534   20471258.0864
     -1919.3754
   2497351.42248   1912491.03744  22116837.5234   22116833.3404
     -4013.6094
   1665567.47748   1274859.36843  22932787.0394   22932780.3284
     -2763.3124
   1637375.14549   1252208.59044  22026669.6254   22026662.5124
     -2638.1724
  -1656925.39647  -1277004.90543  22709668.3364   22709664.3014
      2408.7344
 04  9  2 15 11 30.0000000  0  7G 1G11G14G15G19G22G25
  -1596083.92146  -1238884.86542  23548912.1024   23548908.0084
      2367.0004
  -1352416.14749  -1040659.33143  22635710.5234   22635704.6684
      1845.3284
   1142608.07949    874818.78345  20476754.7894   20476748.1024
     -1927.5004
   2557606.24549   1959442.80044  22128303.6254   22128299.3094
     -4020.3754
   1707076.42548   1307203.98543  22940685.8364   22940678.8834
     -2771.1874
   1676981.87449   1283070.94845  22034206.5394   22034199.2584
     -2642.6724
  -1693016.27147  -1305127.65443  22702800.9384   22702795.8954
      2403.5634
 04  9  2 15 11 45.0000000  0  7G 1G11G14G15G19G22G25
  -1631555.59847  -1266525.12942  23542161.6254   23542157.6804
      2362.2344
  -1380045.64449  -1062188.80043  22630452.6954   22630446.9144
      1838.4384
   1171577.29949    897392.19945  20482267.5314   20482261.1294
     -1935.2814
   2617958.46249   2006470.49144  22139788.4304   22139784.1254
     -4026.7344
   1748699.09948   1339637.21043  22948606.6804   22948599.8244
     -2778.7194
   1716651.34749   1313982.21845  22041754.9454   22041748.0594
     -2646.8594
  -1729030.50647  -1333190.68143  22695947.7424   22695943.2664
      2398.2664
 04  9  2 15 12  0.0000000  0  7G 1G11G14G15G19G22G25
  -1666956.43647  -1294110.19042  23535425.2504   23535421.1994
      2357.4534
  -1407572.18249  -1083638.06743  22625214.6954   22625208.3714
      1831.4384
   1200662.59349    920056.04146  20487801.9534   20487795.3524
     -1943.0944
   2678406.61049   2053572.91044  22151291.1884   22151286.8324
     -4033.3124
   1790433.99348   1372157.88543  22956548.1644   22956541.8134
     -2786.4064
   1756382.44449   1344941.48145  22049315.5704   22049308.1994
     -2651.0624
  -1764969.19448  -1361194.84443  22689108.2664   22689104.1054
      2393.1884
 04  9  2 15 12 15.0000000  0  7G 1G11G14G15G19G22G25
  -1702284.63747  -1321638.63742  23528702.6414   23528698.2424
      2352.7664
  -1434993.86649  -1105005.60043  22619996.5314   22619990.4654
      1824.5784
   1229865.47249    942811.52745  20493359.2664   20493352.8324
     -1950.8284
   2738952.09249   2100751.17044  22162812.8754   22162808.3244
     -4039.7034
   1832282.48148   1404767.05443  22964512.0084   22964505.3714
     -2793.7194
   1796176.67749   1375949.96645  22056888.3834   22056881.4384
     -2655.0944
  -1800830.24748  -1389138.50343  22682284.7034   22682280.2034
      2388.0944
 04  9  2 15 12 30.0000000  0  7G 1G11G14G15G19G22G25
  -1737541.93247  -1349111.87542  23521993.6174   23521989.3204
      2347.7814
  -1462312.37849  -1126292.74943  22614798.2034   22614791.9924
      1817.4694
   1259183.82149    965656.99145  20498938.2584   20498931.9844
     -1958.7194
   2799592.77749   2148003.62544  22174352.2034   22174348.1644
     -4046.1724
   1874242.39248   1437463.07443  22972497.2814   22972489.6454
     -2801.3754
   1836032.23849   1407006.22545  22064472.7344   22064465.2154
     -2659.4064
  -1836615.05748  -1417022.75743  22675474.7974   22675470.6684
      2382.7814
 04  9  2 15 12 45.0000000  0  7G 1G11G14G15G19G22G25
  -1772729.53947  -1376530.75342  23515297.7894   23515293.6214
      2343.8594
  -1489528.84649  -1147500.39143  22609618.7504   22609612.6994
      1811.3284
   1288616.10549    988591.22646  20504539.0554   20504532.7114
     -1965.6414
   2860326.95249   2195328.92044  22185909.5164   22185905.3524
     -4051.7504
   1916311.95448   1470244.52843  22980502.0474   22980495.2464
     -2807.9534
   1875947.65249   1438109.13245  22072068.3444   22072061.0354
     -2662.6874
  -1872324.76648  -1444848.49043  22668679.6724   22668674.5514
      2378.4384
 04  9  2 15 13  0.0000000  0  7G 1G11G14G15G19G22G25
  -1807845.88647  -1403894.18842  23508614.6414   23508610.7584
      2338.7194
  -1516641.56649  -1168627.18243  22604459.4534   22604453.4344
      1804.0004
   1318163.40449   1011615.08946  20510161.8984   20510155.1684
     -1973.7194
   2921155.89048   2242728.05144  22197484.7584   22197481.3054
     -4058.4694
   1958492.26948   1503112.29343  22988529.1564   22988522.3134
     -2815.7814
   1915924.34149   1469259.78244  22079675.6094   22079668.1294
     -2667.1564
  -1907957.63148  -1472614.33843  22661898.7344   22661894.0944
      2372.9064
 04  9  2 15 13 15.0000000  0  7G 1G11G14G15G19G22G25
  -1842892.66247  -1431203.35042  23501946.1334   23501941.6134
      2334.2664
  -1543651.96849  -1189674.25843  22599319.5554   22599313.6764
      1797.3284
   1347823.69849   1034726.99246  20515806.2034   20515799.5824
     -1981.0004
   2982077.52149   2290199.42043  22209077.8284   22209073.8594
     -4064.4694
   2000781.17448   1536064.64043  22996576.1884   22996569.1724
     -2822.7814
   1955960.49149   1500456.75745  22087294.4224   22087287.1094
     -2670.9534
  -1943515.16348  -1500321.50243  22655131.8914   22655128.2154
      2368.0314
 04  9  2 15 13 30.0000000  0  7G 1G11G14G15G19G22G25
  -1877868.85546  -1458457.55842  23495290.5784   23495286.1374
      2329.6414
  -1570558.94449  -1210640.71843  22594199.2584   22594193.5594
      1790.7034
   1377597.70249   1057927.51545  20521471.4774   20521464.9224
     -1988.3754
   3043092.44348   2337743.49643  22220688.5784   22220684.0944
     -4070.4534
   2043179.14048   1569101.98943  23004644.3984   23004637.2814
     -2829.8754
   1996056.92249   1531700.72045  22094924.1174   22094916.9304
     -2674.7664
  -1978996.10147  -1527968.96743  22648380.4454   22648375.2584
      2363.1414
 04  9  2 15 13 45.0000000  0  7G 1G11G14G15G19G22G25
  -1912778.57647  -1485659.91742  23488646.7894   23488642.4454
      2324.9694
  -1597366.36549  -1231529.61143  22589098.3364   22589091.4064
      1783.7194
   1407481.03649   1081213.21645  20527158.4224   20527151.6954
     -1995.9844
   3104196.14148   2385356.73243  22232316.6884   22232311.9884
     -4076.6254
   2085681.60048   1602220.78743  23012732.0234   23012725.8094
     -2837.1094
   2036209.50249   1562988.42945  22102565.3834   22102558.1954
     -2678.8284
  -2014404.17247  -1555559.64843  22641642.5864   22641638.2814
      2357.9534
 04  9  2 15 14  0.0000000  0  7G 1G11G14G15G19G22G25
  -1947621.11847  -1512809.94042  23482017.2974   23482012.7894
      2320.4384
  -1624073.40649  -1252340.32043  22584015.6564   22584009.4654
      1776.9694
   1437473.97549   1104584.33545  20532865.8134   20532859.3094
     -2003.3124
   3165388.97048   2433039.41843  22243961.1564   22243956.7274
     -4082.6094
   2128288.77248   1635421.14343  23020840.3204   23020833.4104
     -2844.1414
   2076418.73049   1594320.27544  22110216.7114   22110209.3984
     -2682.6094
  -2049738.69548  -1583093.03243  22634918.8444   22634914.1024
      2353.0944
 04  9  2 15 14 15.0000000  0  7G 1G11G14G15G19G22G25
  -1982393.46246  -1539905.31242  23475399.6724   23475395.4534
      2316.1564
  -1650676.93549  -1273070.33343  22578953.3834   22578946.9454
      1770.4384
   1467579.08749   1128042.85045  20538594.6024   20538588.0514
     -2010.5474
   3226673.53848   2480793.59543  22255623.2734   22255618.5594
     -4088.5004
   2171003.13248   1668705.03743  23028968.3284   23028961.9454
     -2850.9374
   2116687.53049   1625698.55145  22117879.5314   22117872.3284
     -2686.2814
  -2084996.42047  -1610566.55843  22628209.6024   22628204.8554
      2348.2034
 04  9  2 15 14 30.0000000  0  7G 1G11G14G15G19G22G25
  -2017097.72147  -1566947.55042  23468794.8524   23468791.2114
      2311.5784
  -1677178.89249  -1293721.19643  22573910.2274   22573904.0314
      1763.5474
   1497793.96949   1151586.91945  20544344.2974   20544337.8324
     -2017.8444
   3288047.32148   2528617.28844  22267302.3134   22267297.7074
     -4094.3284
   2213822.16748   1702070.48343  23037116.8674   23037110.1724
     -2857.8754
   2157013.65849   1657121.49345  22125553.4774   22125546.8674
     -2690.1254
  -2120179.19847  -1637981.69743  22621514.3594   22621509.6564
      2343.1884
 04  9  2 15 14 45.0000000  0  7G 1G11G14G15G19G22G25
  -2051731.79347  -1593935.13842  23462205.3134   23462201.2114
      2307.4844
  -1703577.14249  -1314291.27844  22568886.9534   22568880.6374
      1757.0314
   1528120.32449   1175217.83045  20550115.0634   20550108.7384
     -2024.8444
   3349512.04148   2576511.83543  22278998.5784   22278994.4304
     -4100.0474
   2256747.49348   1735518.75243  23045285.1804   23045278.2974
     -2864.6094
   2197398.98449   1688590.55845  22133238.6254   22133231.8914
     -2693.6874
  -2155284.73648  -1665336.64344  22614833.8754   22614829.3754
      2338.4534
 04  9  2 15 15  0.0000000  0  7G 1G11G14G15G19G22G25
  -2086300.19946  -1620871.55642  23455626.6414   23455622.9304
      2302.1414
  -1729876.10649  -1334783.96743  22563882.4694   22563875.7814
      1749.6564
   1558553.18949   1198931.76045  20555906.5084   20555900.1954
     -2032.6094
   3411062.69748   2624473.36244  22290711.3284   22290706.8524
     -4106.4374
   2299774.00048   1769045.88743  23053473.1724   23053466.4184
     -2872.0164
   2237838.82249   1720102.09845  22140933.8834   22140926.7154
     -2698.0474
  -2190317.43848  -1692634.84143  22608167.6024   22608162.7854
      2332.8444
 04  9  2 15 15 15.0000000  0  7G 1G11G14G15G19G22G25
  -2120798.50646  -1647753.34742  23449062.4614   23449058.0634
      2297.9064
  -1756071.05549  -1355195.62443  22558897.6254   22558891.7894
      1743.0004
   1589096.85249   1222731.99446  20561718.7504   20561712.1374
     -2039.7504
   3472703.38448   2672505.04043  22302441.3914   22302437.0084
     -4112.1254
   2342905.77448   1802655.01343  23061680.5084   23061673.6804
     -2878.7194
   2278337.56149   1751659.53045  22148640.7344   22148633.7974
     -2701.6414
  -2225272.59847  -1719872.63043  22601515.8834   22601510.8014
      2327.9694
 04  9  2 15 15 30.0000000  0  7G 1G11G14G15G19G22G25
  -2155230.81947  -1674583.74842  23442510.6254   23442505.9884
      2292.9844
  -1782165.73149  -1375529.14244  22553931.9534   22553925.6684
      1735.9844
   1619746.70449   1246614.98646  20567551.3914   20567544.7464
     -2047.1724
   3534429.50048   2720603.25443  22314187.3674   22314183.0124
     -4118.2344
   2386138.19548   1836342.60143  23069907.4614   23069900.8594
     -2885.7664
   2318890.88149   1783259.50244  22156357.6484   22156350.6094
     -2705.7034
  -2260154.11248  -1747053.00843  22594878.1254   22594873.1024
      2322.5944
 04  9  2 15 15 45.0000000  0  7G 1G11G14G15G19G22G25
  -2189592.92547  -1701359.36242  23435971.4064   23435966.6724
      2288.4224
  -1808156.17249  -1395781.42444  22548986.0634   22548979.8914
      1729.1254
   1650506.52849   1270583.68645  20573404.3834   20573397.6914
     -2054.3914
   3596244.92148   2768771.09944  22325950.5164   22325946.0474
     -4124.1094
   2429474.93348   1870111.47743  23078153.7974   23078147.6174
     -2892.6564
   2359502.84849   1814905.17844  22164086.1954   22164078.9344
     -2709.4374
  -2294957.74647  -1774172.69943  22588255.0004   22588250.5434
      2317.7034
 04  9  2 15 16  0.0000000  0  7G 1G11G14G15G19G22G25
  -2223887.44347  -1728082.38242  23429444.7664   23429440.7464
      2283.9224
  -1834044.68449  -1415954.28943  22544059.8134   22544052.9574
      1722.4064
   1681373.42649   1294635.79745  20579278.7034   20579272.2074
     -2061.4844
   3658146.66548   2817006.19243  22337730.1484   22337725.7734
     -4129.7664
   2472912.89548   1903959.20943  23086420.1804   23086414.1054
     -2899.3124
   2400170.71449   1846594.40744  22171825.0084   22171817.8204
     -2713.1564
  -2329685.63048  -1801233.38443  22581646.3054   22581641.6054
      2312.5944
 04  9  2 15 16 15.0000000  0  7G 1G11G14G15G19G22G25
  -2258111.29647  -1754750.28342  23422932.4454   23422928.1254
      2279.3284
  -1859828.06949  -1436045.23243  22539153.2894   22539146.8554
      1715.5004
   1712350.03949   1318773.40645  20585172.9924   20585166.8014
     -2068.6254
   3720137.39448   2865310.60343  22349526.5944   22349521.8914
     -4135.5784
   2516454.66148   1937887.83143  23094706.2814   23094699.5634
     -2906.1564
   2440897.40849   1878329.48845  22179574.6564   22179567.7934
     -2716.9534
  -2364334.58148  -1828232.53943  22575053.0164   22575048.2774
      2307.3754
 04  9  2 15 16 30.0000000  0  7G 1G11G14G15G19G22G25
  -2292273.04647  -1781369.84442  23416431.4144   23416428.1174
      2275.2504
  -1885514.74649  -1456060.81043  22534265.2894   22534259.2814
      1709.0314
   1743427.62449   1342989.70446  20591087.0784   20591080.2344
     -2075.4534
   3782208.16548   2913677.42243  22361338.4304   22361333.5594
     -4140.9374
   2560091.20848   1971890.29043  23103009.7974   23103003.2894
     -2912.4844
   2481674.25449   1910103.63644  22187334.3834   22187326.7274
     -2720.3754
  -2398912.91648  -1855176.68244  22568473.2894   22568468.6804
      2302.6254
 04  9  2 15 16 45.0000000  0  7G 1G11G14G15G19G22G25
  -2326365.67148  -1807935.49442  23409944.2424   23409940.5594
      2270.6094
  -1911097.57449  -1475995.49843  22529397.1804   22529390.7894
      1702.2034
   1774612.66949   1367289.74546  20597021.1024   20597015.1254
     -2082.3914
   3844365.47648   2962111.66243  22373166.3134   22373161.8444
     -4146.5314
   2603829.04048   2005971.69643  23111332.7344   23111325.9344
     -2919.1564
   2522507.95449   1941922.08844  22195105.1334   22195097.2894
     -2724.0784
  -2433413.53048  -1882060.26943  22561908.0394   22561903.2114
      2297.5474
 04  9  2 15 17  0.0000000  0  7G 1G11G14G15G19G22G25
  -2360389.58148  -1834447.62842  23403469.5474   23403465.4884
      2265.8754
  -1936576.74749  -1495849.40744  22524548.5234   22524542.0314
      1695.1094
   1805904.44149   1391672.92746  20602975.8674   20602970.0164
     -2089.6724
   3906608.57048   3010612.74743  22385010.9064   22385006.9414
     -4152.4224
   2647667.23048   2040131.29143  23119675.2664   23119667.9844
     -2925.9374
   2563398.04849   1973784.47144  22202885.9144   22202879.0554
     -2727.8754
  -2467836.61248  -1908883.42943  22555357.1804   22555352.5864
      2292.2814
 04  9  2 15 17 15.0000000  0  7G 1G11G14G15G19G22G25
  -2394347.04548  -1860908.00342  23397007.6724   23397003.5514
      2261.5474
  -1961954.36249  -1515624.16543  22519719.2584   22519713.1684
      1688.4224
   1837300.36949   1416137.27446  20608950.2584   20608943.9574
     -2096.5474
   3968934.94948   3059178.71144  22396871.2114   22396867.1054
     -4157.8444
   2691603.11548   2074367.00743  23128035.6644   23128029.4304
     -2932.2504
   2604342.29349   2005689.06945  22210677.3674   22210670.0354
     -2731.4534
  -2502184.15648  -1935647.74143  22548820.8674   22548816.5004
      2287.3134
 04  9  2 15 17 30.0000000  0  7G 1G11G14G15G19G22G25
  -2428237.21348  -1887315.94542  23390558.9924   23390554.3794
      2257.0944
  -1987229.48449  -1535319.07143  22514909.2584   22514903.1214
      1681.6414
   1868800.87849   1440683.12446  20614944.4924   20614938.3874
     -2103.4844
   4031345.01948   3107809.91443  22408747.4064   22408743.1724
     -4163.4694
   2735636.99748   2108679.09343  23136415.5554   23136408.8014
     -2938.8284
   2645341.16549   2037636.22344  22218479.1334   22218472.2734
     -2735.0314
  -2536455.08748  -1962352.33644  22542299.5634   22542294.7344
      2282.1724
 04  9  2 15 17 45.0000000  0  7G 1G11G14G15G19G22G25
  -2462063.02748  -1913673.67542  23384122.1804   23384118.1644
      2252.9384
  -2012404.99049  -1554936.34344  22510118.5234   22510112.7894
      1674.9534
   1900402.72549   1465307.93846  20620958.1644   20620952.4224
     -2110.0944
   4093835.35748   3156503.64643  22420639.0554   22420634.9144
     -4168.6874
   2779765.48348   2143064.90843  23144812.7194   23144806.1884
     -2945.0624
   2686391.67749   2069623.62044  22226290.9844   22226283.5234
     -2738.4694
  -2570652.17848  -1988999.41644  22535792.0474   22535787.5664
      2277.3444
 04  9  2 15 18  0.0000000  0  7G 1G11G14G15G19G22G25
  -2495822.07447  -1939979.42342  23377697.5164   23377693.4964
      2248.8284
  -2037478.17749  -1574473.89344  22505347.5634   22505341.4614
      1668.4844
   1932107.94549   1490013.29746  20626991.5634   20626985.2424
     -2116.7344
   4156408.01048   3205261.53943  22432545.8834   22432541.7194
     -4173.8594
   2823990.50848   2177525.95443  23153228.7034   23153221.4844
     -2951.1564
   2727496.12949   2101653.04144  22234113.1024   22234106.0314
     -2741.7194
  -2604772.91648  -2015586.97244  22529298.9774   22529294.0204
      2272.5634
 04  9  2 15 18 15.0000000  0  7G 1G11G14G15G19G22G25
  -2529514.15048  -1966232.97842  23371286.2274   23371282.2664
      2243.6564
  -2062448.82349  -1593931.54143  22500595.7584   22500589.5354
      1660.9384
   1963916.37449   1514799.08246  20633044.5634   20633038.2974
     -2124.2664
   4219062.68548   3254083.30343  22444469.1564   22444465.1334
     -4179.9534
   2868311.79748   2212061.96643  23161662.4924   23161655.8594
     -2958.1564
   2768654.58749   2133724.55245  22241945.1254   22241938.2384
     -2745.9694
  -2638816.91848  -2042114.77944  22522821.0394   22522816.0004
      2266.7664
 04  9  2 15 18 30.0000000  0  7G 1G11G14G15G19G22G25
  -2563133.80848  -1992430.11842  23364888.5234   23364884.2854
      2238.8594
  -2087311.26949  -1613304.87344  22495864.5084   22495858.5004
      1653.8134
   1995833.12749   1539669.26546  20639118.0234   20639111.8014
     -2131.4224
   4281804.50048   3302973.00743  22456408.5784   22456404.5784
     -4185.6414
   2912734.25148   2246676.85743  23170114.8674   23170108.6804
     -2964.8594
   2809872.34349   2165842.27345  22249788.5164   22249781.3874
     -2749.7814
  -2672778.49548  -2068578.31244  22516358.0554   22516353.1024
      2261.3284
 04  9  2 15 18 45.0000000  0  7G 1G11G14G15G19G22G25
  -2596688.54948  -2018576.66542  23358503.2664   23358499.4384
      2234.6884
  -2112072.87349  -1632599.62744  22491152.5704   22491146.2734
      1647.2504
   2027850.27049   1564617.67546  20645210.9224   20645204.3094
     -2137.9374
   4344625.60948   3351924.48343  22468363.1254   22468358.8754
     -4190.7974
   2957249.85848   2281364.31343  23178586.7894   23178579.7624
     -2970.8754
   2851141.73649   2198000.21744  22257642.1254   22257634.9454
     -2753.1564
  -2706664.86348  -2094983.28144  22509909.3834   22509904.9804
      2256.4534
 04  9  2 15 19  0.0000000  0  7G 1G11G14G15G19G22G25
  -2630176.58247  -2044671.21742  23352130.7894   23352126.6914
      2230.0784
  -2136731.56549  -1651814.20244  22486460.1644   22486454.1884
      1640.3594
   2059969.29249   1589645.48345  20651322.7194   20651316.6254
     -2144.8284
   4407527.31948   3400938.78043  22480332.6564   22480328.9844
     -4196.2974
   3001860.01448   2316125.44443  23187075.6564   23187068.7544
     -2977.3124
   2892464.53049   2230199.78345  22265505.3984   22265498.3554
     -2756.8284
  -2740474.01248  -2121328.06144  22503475.6884   22503470.9804
      2251.2194
 04  9  2 15 19 15.0000000  0  7G 1G11G14G15G19G22G25
  -2663599.88248  -2070715.35042  23345770.3444   23345765.9574
      2226.0944
  -2161289.29349  -1670950.08344  22481787.1334   22481781.0434
      1633.9534
   2092187.83949   1614750.84345  20657453.8834   20657447.6724
     -2151.0944
   4470507.26148   3450014.01843  22492317.5164   22492313.4224
     -4201.1414
   3046562.14548   2350958.26243  23195582.1174   23195575.4344
     -2983.0944
   2933838.55749   2262439.27645  22273378.6254   22273371.7664
     -2759.8914
  -2774207.81448  -2147614.11844  22497056.6414   22497052.3014
      2246.5004
 04  9  2 15 19 30.0000000  0  7G 1G11G14G15G19G22G25
  -2696957.98247  -2096708.67342  23339422.5394   23339418.3954
      2221.5164
  -2185745.53249  -1690006.87644  22477133.2424   22477127.0554
      1626.8284
   2124505.95249   1639933.77646  20663603.8364   20663597.5164
     -2158.0784
   4533565.52148   3499150.28843  22504317.1024   22504313.3324
     -4206.7504
   3091356.27648   2385862.73643  23204106.3364   23204100.1954
     -2989.4844
   2975264.06349   2294718.87845  22281261.7194   22281254.7344
     -2763.6254
  -2807865.46948  -2173840.84644  22490652.0084   22490647.1724
      2241.1254
 04  9  2 15 19 45.0000000  0  7G 1G11G14G15G19G22G25
  -2730248.17047  -2122649.03042  23333088.0164   23333083.5314
      2217.4064
  -2210097.33649  -1708982.31744  22472499.5634   22472493.2704
      1620.2974
   2156926.01349   1665196.16846  20669772.9694   20669766.6994
     -2164.3444
   4596704.34548   3548349.34943  22516331.9694   22516327.6844
     -4211.6094
   3136244.57048   2420840.60943  23212648.5164   23212641.8484
     -2995.3284
   3016743.68449   2327040.64145  22289154.6724   22289147.6484
     -2766.6724
  -2841444.16049  -2200006.03844  22484262.0634   22484257.6914
      2236.3134
 04  9  2 15 20  0.0000000  0  7G 1G11G14G15G19G22G25
  -2763472.20347  -2148537.92842  23326765.5084   23326761.3874
      2212.8594
  -2234346.22449  -1727877.55544  22467884.9614   22467878.7074
      1613.3284
   2189446.03549   1690536.43345  20675961.5474   20675955.2544
     -2171.1254
   4659921.70348   3597609.59343  22528361.8984   22528358.0434
     -4216.8914
   3181224.90648   2455890.17343  23221207.8754   23221201.3714
     -3001.5314
   3058275.43749   2359403.02044  22297057.9384   22297051.4344
     -2770.3754
  -2874945.34849  -2226110.84344  22477887.1804   22477882.0824
      2231.0164
 04  9  2 15 20 15.0000000  0  7G 1G11G14G15G19G22G25
  -2796627.75647  -2174373.39042  23320456.1884   23320451.8714
      2207.6414
  -2258489.83549  -1746690.75344  22463290.6954   22463284.3364
      1605.6414
   2222067.88449   1715956.05746  20682168.8984   20682162.3204
     -2178.6564
   4723219.43748   3646932.46143  22540407.3364   22540403.1024
     -4223.0314
   3226299.12248   2491012.92343  23229784.8204   23229778.8444
     -3008.4844
   3099861.57349   2391807.79644  22304971.6884   22304965.1374
     -2774.7664
  -2908366.57749  -2252153.35844  22471526.9924   22471522.4804
      2225.0634
 04  9  2 15 20 30.0000000  0  7G 1G11G14G15G19G22G25
  -2829713.08148  -2200154.17042  23314160.2814   23314155.7194
      2203.4534
  -2282526.25149  -1765420.42944  22458716.4924   22458710.3164
      1598.9534
   2254792.91449   1741456.05846  20688396.8594   20688390.1254
     -2184.9694
   4786598.90948   3696319.02643  22552467.9694   22552464.2034
     -4227.8444
   3271468.38148   2526209.72643  23238380.4534   23238374.0434
     -3014.3444
   3141503.68649   2424256.18244  22312896.0704   22312889.1524
     -2777.8284
  -2941705.83049  -2278131.97944  22465182.9694   22465177.9884
      2219.9534
 04  9  2 15 20 45.0000000  0  7G 1G11G14G15G19G22G25
  -2862731.72547  -2225882.94042  23307877.1334   23307873.1174
      2199.3284
  -2306458.84449  -1784069.19744  22454162.1484   22454156.2034
      1592.3134
   2287617.30249   1767033.50246  20694642.7034   20694636.5824
     -2191.3284
   4850056.27848   3745766.31843  22564543.2814   22564539.1804
     -4232.8444
   3316728.69848   2561477.47743  23246993.5864   23246986.2424
     -3020.0944
   3183198.17849   2456745.37744  22320829.8524   22320823.3014
     -2781.1254
  -2974966.46049  -2304049.34444  22458853.7664   22458849.0984
      2215.0164
 04  9  2 15 21  0.0000000  0  7G 1G11G14G15G19G22G25
  -2895686.16648  -2251561.74742  23301605.5554   23301601.3674
      2194.6724
  -2330290.04649  -1802638.95544  22449627.2424   22449620.8554
      1585.1414
   2320538.16649   1792686.12046  20700907.4924   20700901.1334
     -2198.1094
   4913588.61748   3795272.01843  22576633.0314   22576629.3324
     -4238.2034
   3362077.08448   2596813.84943  23255622.7894   23255616.3204
     -3026.4064
   3224942.25649   2489273.21244  22328773.8134   22328766.8014
     -2784.8124
  -3008150.84248  -2329907.28744  22452538.3054   22452534.0514
      2209.5474
 04  9  2 15 21 15.0000000  0  7G 1G11G14G15G19G22G25
  -2928574.23847  -2277188.78542  23295347.1094   23295342.7584
      2190.1094
  -2354017.40349  -1821127.81744  22445112.2894   22445105.8914
      1578.1254
   2353557.28349   1818415.29746  20707190.7734   20707184.5434
     -2204.8124
   4977197.65048   3844837.44743  22588737.6564   22588733.4574
     -4243.3914
   3407515.15348   2632220.09543  23264269.8204   23264263.0314
     -3032.4694
   3266738.06849   2521841.34444  22336727.0234   22336719.9774
     -2788.3284
  -3041256.50749  -2355703.91144  22446238.9774   22446233.7704
      2204.1564
 04  9  2 15 21 30.0000000  0  7G 1G11G14G15G19G22G25
  -2961397.47647  -2302765.30842  23289101.1644   23289096.8674
      2186.0944
  -2377642.38249  -1839536.88744  22440616.3134   22440610.4964
      1571.5944
   2386672.87549   1844219.63946  20713492.4304   20713486.3524
     -2210.9224
   5040881.50747   3894461.19543  22600856.0634   22600852.3914
     -4248.0474
   3453040.95148   2667694.72943  23272933.0394   23272926.2074
     -3037.9534
   3308583.99549   2554448.55944  22344690.3674   22344683.4534
     -2791.3444
  -3074284.83048  -2381440.25944  22439953.8364   22439949.0354
      2199.3594
 04  9  2 15 21 45.0000000  0  7G 1G11G14G15G19G22G25
  -2994157.85247  -2328292.90242  23282867.0944   23282863.2704
      2181.8134
  -2401166.87149  -1857867.67144  22436140.1484   22436134.0394
      1564.7814
   2419882.47049   1870097.23746  20719811.9224   20719805.8754
     -2217.2664
   5104637.84148   3944141.39943  22612988.5474   22612984.8094
     -4253.0314
   3498652.15648   2703235.89043  23281612.4064   23281605.8674
     -3043.8444
   3350477.88449   2587093.12444  22352662.4534   22352655.5864
     -2794.6874
  -3107237.61848  -2407117.72644  22433683.0704   22433678.4184
      2194.1254
 04  9  2 15 22  0.0000000  0  7G 1G11G14G15G19G22G25
  -3026850.07447  -2353767.31942  23276645.6954   23276641.8634
      2177.4384
  -2424585.43349  -1876115.90544  22431683.7664   22431677.5554
      1557.9064
   2453191.07749   1896051.99446  20726150.5004   20726144.1134
     -2223.6724
   5168471.40948   3993881.81343  22625135.8444   22625132.4064
     -4257.9064
   3544353.42448   2738847.22343  23290308.7194   23290302.6024
     -3049.5944
   3392424.80749   2619779.01544  22360644.8364   22360637.7074
     -2798.0624
  -3140109.36548  -2432732.08144  22427427.6954   22427423.1764
      2188.8914
 04  9  2 15 22 15.0000000  0  7G 1G11G14G15G19G22G25
  -3059477.15547  -2379191.04242  23270437.1804   23270433.2934
      2172.8284
  -2447900.79249  -1894283.71144  22427246.8754   22427240.8674
      1550.7194
   2486595.35049   1922081.28646  20732506.8984   20732501.0274
     -2230.2814
   5232378.86448   4043679.79543  22637296.9384   22637292.8874
     -4263.1094
   3590141.33548   2774526.10643  23299022.4694   23299015.9304
     -3055.5944
   3434421.69849   2652503.84944  22368636.6484   22368629.4734
     -2801.5944
  -3172902.79348  -2458285.37744  22421187.4614   22421182.8204
      2183.4534
 04  9  2 15 22 30.0000000  0  7G 1G11G14G15G19G22G25
  -3092036.00147  -2404561.52342  23264241.8284   23264237.5124
      2168.2504
  -2471109.68749  -1912368.57344  22422830.2194   22422824.0274
      1543.6254
   2520097.98349   1948187.22246  20738882.5164   20738876.5234
     -2236.9064
   5296362.87147   4093537.42243  22649472.6564   22649468.5824
     -4268.2504
   3636018.36548   2810274.39643  23307751.8134   23307745.5514
     -3061.5474
   3476471.51949   2685269.93644  22376638.3754   22376631.3364
     -2805.1564
  -3205614.63348  -2483775.11444  22414962.8914   22414957.7274
      2177.9844
 04  9  2 15 22 45.0000000  0  7G 1G11G14G15G19G22G25
  -3124525.11448  -2429877.73042  23258059.2344   23258054.8754
      2163.5784
  -2494210.57349  -1930369.25744  22418434.4614   22418428.0474
      1536.4384
   2553700.12149   1974370.70346  20745276.6644   20745270.3284
     -2243.4844
   5360424.49747   4143455.52743  22661663.3674   22661659.4344
     -4273.4224
   3681985.63348   2846093.03743  23316499.7584   23316492.7974
     -3067.5004
   3518575.64849   2718078.31944  22384650.4454   22384643.6294
     -2808.7194
  -3238243.31648  -2509200.05344  22408753.6804   22408749.3284
      2172.4694
 04  9  2 15 23  0.0000000  0  7G 1G11G14G15G19G22G25
  -3156944.64947  -2455139.69042  23251890.2734   23251885.8324
      2158.9064
  -2517203.38549  -1948285.73144  22414058.8594   22414053.0044
      1529.1884
   2587401.26649   2000631.32846  20751689.9844   20751683.7424
     -2250.1414
   5424563.21848   4193433.74443  22673868.9924   22673864.8164
     -4278.5164
   3728042.49448   2881981.46843  23325264.1484   23325257.7814
     -3073.5164
   3560733.80048   2750928.81244  22392672.6644   22392665.6724
     -2812.3594
  -3270788.68648  -2534560.05144  22402560.3524   22402555.6134
      2166.9224
 04  9  2 15 23 15.0000000  0  7G 1G11G14G15G19G22G25
  -3189288.91647  -2480343.00342  23245735.0634   23245730.9924
      2153.5314
  -2540082.31049  -1966113.46044  22409705.3754   22409699.0864
      1521.2814
   2621206.79549   2026973.30046  20758122.8364   20758116.8164
     -2257.4064
   5488784.37248   4243476.16043  22686089.8444   22686085.4614
     -4284.4224
   3774194.01348   2917943.65643  23334046.5634   23334039.9454
     -3080.1414
   3602951.52449   2783825.71644  22400707.0704   22400699.8204
     -2816.7504
  -3303244.77648  -2559850.49244  22396384.3524   22396379.3594
      2160.5314
 04  9  2 15 23 30.0000000  0  7G 1G11G14G15G19G22G25
  -3221566.07547  -2505494.04342  23239592.9304   23239588.8984
      2149.9064
  -2562855.32849  -1983858.66944  22405371.9614   22405365.3714
      1514.9844
   2655108.16349   2053389.94246  20764574.1954   20764568.3914
     -2262.9064
   5553079.43948   4293576.17743  22698324.5944   22698320.5514
     -4288.3914
   3820431.73048   2953973.01643  23342845.4064   23342838.6604
     -3085.0624
   3645220.50749   2816762.57844  22408750.4304   22408743.5744
     -2819.2974
  -3335619.61448  -2585077.62644  22390223.2974   22390218.4344
      2156.0004
 04  9  2 15 23 45.0000000  0  7G 1G11G14G15G19G22G25
  -3253782.60447  -2530597.81642  23233462.3524   23233457.8554
      2145.4384
  -2585528.82449  -2001526.33844  22401056.7424   22401050.8754
      1507.9224
   2689098.55149   2079875.95046  20771042.2504   20771036.2034
     -2269.3124
   5617441.59248   4343728.46343  22710572.6094   22710568.3054
     -4293.3914
   3866748.64748   2990064.09343  23351659.1644   23351652.1174
     -3090.7974
   3687534.25349   2849734.31444  22416802.4454   22416795.3834
     -2822.7504
  -3367919.46948  -2610246.33944  22384076.8054   22384071.6414
      2150.4534
 04  9  2 15 24  0.0000000  0  7G 1G11G14G15G19G22G25
  -3285927.62947  -2555645.91542  23227345.1804   23227340.5864
      2140.6564
  -2608091.66149  -2019107.77044  22396763.6644   22396757.2774
      1500.5314
   2723188.54849   2106439.57946  20777529.2584   20777523.1374
     -2275.9694
   5681881.23247   4393941.13443  22722834.7194   22722830.6484
     -4298.5164
   3913155.05048   3026224.89343  23360489.9844   23360482.9264
     -3096.7344
   3729903.36748   2882749.19144  22424865.1254   22424857.8324
     -2826.3594
  -3400133.32848  -2635348.02444  22377946.4614   22377942.0164
      2144.7504
 04  9  2 15 24 15.0000000  0  7G 1G11G14G15G19G22G25
  -3318004.69348  -2580641.01242  23221241.6254   23221237.0594
      2135.9064
  -2630547.36549  -2036605.71044  22392490.4224   22392484.0594
      1493.1724
   2757374.14449   2133077.70246  20784034.7034   20784028.2274
     -2282.5164
   5746394.41048   4444211.10543  22735111.1094   22735107.0824
     -4303.6254
   3959646.96348   3062452.31843  23369336.7344   23369330.3244
     -3102.6094
   3772324.27848   2915804.41644  22432937.3054   22432930.6134
     -2830.1414
  -3432264.46248  -2660385.25744  22371832.7894   22371827.1334
      2139.0004
 04  9  2 15 24 30.0000000  0  7G 1G11G14G15G19G22G25
  -3350016.79647  -2605585.48442  23215149.2894   23215145.5784
      2131.7344
  -2652898.79449  -2054022.42044  22388237.2734   22388230.8284
      1486.4844
   2791651.92449   2159787.64746  20790557.4774   20790551.5204
     -2288.4374
   5810977.78148   4494535.77443  22747400.9614   22747396.9224
     -4308.0784
   4006220.79448   3098743.60143  23378199.7344   23378193.3954
     -3107.8284
   3814793.82448   2948897.54044  22441019.2034   22441011.6564
     -2833.1564
  -3464315.73548  -2685360.27244  22365733.3204   22365728.6764
      2133.9534
 04  9  2 15 24 45.0000000  0  7G 1G11G14G15G19G22G25
  -3381959.31847  -2630475.76942  23209070.9454   23209067.0744
      2127.0634
  -2675141.17549  -2071354.14544  22384004.6254   22383998.5044
      1479.0784
   2826026.28649   2186572.87546  20797099.0164   20797092.1954
     -2294.9694
   5875635.44948   4544918.34743  22759704.9304   22759701.2424
     -4313.1254
   4052880.68948   3135101.92143  23387078.9144   23387072.2774
     -3113.6414
   3857316.42248   2982032.02644  22449110.6254   22449103.5004
     -2836.7034
  -3496282.18948  -2710269.17244  22359650.5314   22359645.2774
      2128.1724
 04  9  2 15 25  0.0000000  0  7G 1G11G14G15G19G22G25
  -3413835.06947  -2655313.97742  23203005.0084   23203000.9574
      2123.1724
  -2697277.16049  -2088602.95844  22379792.3444   22379785.8444
      1472.5004
   2860493.92249   2213430.76546  20803657.8524   20803651.6134
     -2300.6724
   5940364.20148   4595356.30643  22772022.6174   22772018.5944
     -4317.3754
   4099623.42948   3171524.79743  23395974.5944   23395967.4414
     -3118.6724
   3899889.11348   3015205.54144  22457212.2814   22457205.0314
     -2839.5624
  -3528166.56648  -2735114.13644  22353582.7584   22353577.9924
      2123.2344
 04  9  2 15 25 15.0000000  0  7G 1G11G14G15G19G22G25
  -3445648.15547  -2680103.44942  23196951.4064   23196947.1054
      2118.8594
  -2719310.68749  -2105771.93144  22375599.4304   22375592.7504
      1465.5004
   2895050.52549   2240357.97746  20810233.5864   20810227.4734
     -2306.6564
   6005159.59348   4645846.15843  22784352.6954   22784348.9104
     -4321.7974
   4146444.35948   3208008.61943  23404883.1334   23404876.6564
     -3123.8594
   3942507.72749   3048414.82044  22465322.3674   22465315.3014
     -2842.6874
  -3559972.71348  -2759898.11944  22347530.3444   22347525.8984
      2117.8594
 04  9  2 15 25 30.0000000  0  7G 1G11G14G15G19G22G25
  -3477391.65248  -2704838.59642  23190910.9924   23190907.0394
      2113.8594
  -2741234.66149  -2122855.55944  22371427.0164   22371420.8164
      1457.9534
   2929702.73849   2267359.69646  20816827.6724   20816821.6134
     -2313.3594
   6070028.22148   4696393.11543  22796696.6174   22796692.9694
     -4327.0164
   4193350.16148   3244558.55943  23413809.1724   23413802.5664
     -3129.9694
   3985179.19048   3081665.30544  22473442.2814   22473435.1094
     -2846.5784
  -3591693.33248  -2784615.48244  22341494.1254   22341489.3554
      2111.7504
 04  9  2 15 25 45.0000000  0  7G 1G11G14G15G19G22G25
  -3509065.62947  -2729519.61242  23184883.1024   23184879.7034
      2108.9064
  -2763048.98749  -2139853.72844  22367275.9384   22367269.8954
      1450.2504
   2964450.09149   2294435.55946  20823440.0234   20823433.9534
     -2320.0314
   6134969.57947   4746996.73743  22809055.1024   22809051.4774
     -4332.1874
   4240340.04948   3281174.01643  23422751.2194   23422744.3404
     -3135.8124
   4027903.14848   3114956.67344  22481572.1804   22481564.9574
     -2850.3444
  -3623328.30348  -2809266.09044  22335473.9454   22335469.3164
      2105.7664
 04  9  2 15 26  0.0000000  0  7G 1G11G14G15G19G22G25
  -3540672.36748  -2754148.24643  23178869.2974   23178864.5904
      2104.9694
  -2784755.80549  -2156768.11244  22363145.3524   22363139.0634
      1443.6724
   2999289.86549   2321583.41346  20830070.2584   20830063.5784
     -2325.6094
   6199981.05648   4797654.96843  22821426.1174   22821422.6054
     -4336.2974
   4287411.30948   3317852.90643  23431708.7114   23431701.8984
     -3140.6724
   4070677.27749   3148287.14144  22489712.4454   22489704.8364
     -2853.1414
  -3654879.79248  -2833851.65544  22329469.9384   22329464.9104
      2100.7974
 04  9  2 15 26 15.0000000  0  7G 1G11G14G15G19G22G25
  -3572212.20747  -2778724.72642  23172866.8284   23172862.7194
      2100.5164
  -2806355.41849  -2173598.99644  22359035.2894   22359029.2154
      1436.4844
   3034221.34949   2348802.75146  20836717.0864   20836710.8954
     -2331.6724
   6265061.82648   4848367.22643  22833810.7344   22833806.6884
     -4340.9374
   4334562.94648   3354594.42143  23440681.4144   23440674.7344
     -3145.9534
   4113501.10048   3181656.35144  22497861.3524   22497854.0164
     -2856.4534
  -3686348.01448  -2858372.32744  22323482.0084   22323477.1844
      2095.2034
 04  9  2 15 26 30.0000000  0  7G 1G11G14G15G19G22G25
  -3603686.50248  -2803250.17442  23166877.6644   23166873.6524
      2096.1094
  -2827848.90749  -2190347.15844  22354945.3984   22354938.9494
      1429.3284
   3069242.91449   2376092.27046  20843381.3364   20843374.9534
     -2337.7664
   6330210.22548   4899132.17842  22846208.0314   22846204.3554
     -4345.5474
   4381793.38848   3391397.31542  23449669.1884   23449662.4804
     -3151.2974
   4156373.12248   3215063.08644  22506019.5004   22506012.5434
     -2859.7504
  -3717734.07948  -2882828.98644  22317509.2114   22317504.4344
      2089.7034
 04  9  2 15 26 45.0000000  0  7G 1G11G14G15G19G22G25
  -3635097.09448  -2827725.92642  23160900.5234   23160896.4454
      2091.5634
  -2849237.88849  -2207013.90044  22350875.0554   22350869.0274
      1422.0634
   3104352.37649   2403450.28746  20850062.4924   20850055.9064
     -2343.8284
   6395423.91148   4949948.00343  22858618.1564   22858613.7384
     -4350.0624
   4429100.17648   3428259.71242  23458671.4774   23458664.9694
     -3156.6724
   4199291.27948   3248505.79144  22514186.7974   22514179.6604
     -2863.0164
  -3749039.57848  -2907222.87444  22311551.5864   22311547.0164
      2084.0004
 04  9  2 15 27  0.0000000  0  7G 1G11G14G15G19G22G25
  -3666438.19047  -2852147.56942  23154936.2584   23154932.4734
      2086.9064
  -2870516.50649  -2223594.64344  22346825.7504   22346819.5314
      1414.7504
   3139555.21249   2430881.04746  20856761.4224   20856755.0274
     -2350.1094
   6460708.31748   5000818.93843  22871041.2734   22871036.9024
     -4354.7814
   4476488.62248   3465185.71443  23467688.8834   23467682.8244
     -3162.0784
   4242261.40048   3281988.98244  22522363.6254   22522356.7624
     -2866.5784
  -3780258.37548  -2931549.19644  22305611.1564   22305606.4884
      2078.2194
 04  9  2 15 27 15.0000000  0  7G 1G11G14G15G19G22G25
  -3697714.02047  -2876518.32643  23148985.3134   23148980.7894
      2082.8594
  -2891688.78249  -2240092.50844  22342797.1174   22342791.1214
      1407.8914
   3174846.85349   2458381.03946  20863477.2974   20863470.7074
     -2355.7034
   6526058.88048   5051741.42143  22883476.9144   22883472.8594
     -4358.9064
   4523954.12148   3502171.82543  23476721.0704   23476714.8754
     -3166.8444
   4285279.12849   3315509.27744  22530549.7814   22530542.4384
     -2869.4374
  -3811394.59348  -2955811.16244  22299686.4304   22299681.5864
      2073.0164
 04  9  2 15 27 30.0000000  0  7G 1G11G14G15G19G22G25
  -3728919.23047  -2900834.07143  23143046.6724   23143042.1484
      2077.9844
  -2912749.16749  -2256503.20444  22338789.2194   22338783.0824
      1400.2814
   3210232.16449   2485953.99745  20870210.5864   20870204.1804
     -2362.2034
   6591480.53248   5102719.27943  22895926.2344   22895922.3244
     -4363.8284
   4571501.42548   3539221.60942  23485769.4774   23485763.0354
     -3172.5944
   4328349.64549   3349070.69844  22538745.8594   22538738.6724
     -2873.1094
  -3842442.82248  -2980004.57344  22293777.8134   22293772.8094
      2066.9384
 04  9  2 15 27 45.0000000  0  7G 1G11G14G15G19G22G25
  -3760056.20548  -2925096.65243  23137121.3134   23137117.2624
      2073.3134
  -2933699.98749  -2272828.51444  22334802.1884   22334796.1414
      1392.8444
   3245708.46749   2513597.87746  20876961.7734   20876955.5204
     -2368.2814
   6656970.51948   5153750.41943  22908388.8284   22908384.8204
     -4368.4064
   4619127.65348   3576332.93243  23494832.3204   23494826.6644
     -3177.8914
   4371470.36149   3382671.23744  22546951.2894   22546944.0704
     -2876.5944
  -3873405.14148  -3004131.04544  22287886.1334   22287880.9454
      2061.0784
 04  9  2 15 28  0.0000000  0  7G 1G11G14G15G19G22G25
  -3791124.91147  -2949305.99942  23131209.4924   23131205.4884
      2069.1254
  -2954541.17449  -2289068.39944  22330836.0164   22330829.6054
      1385.8284
   3281275.51549   2541312.44646  20883729.9224   20883723.7624
     -2374.0624
   6722528.46648   5204834.51343  22920863.4064   22920859.2664
     -4372.6724
   4666832.34748   3613505.40942  23503910.1884   23503904.0314
     -3182.8444
   4414641.25249   3416310.87944  22555166.5474   22555159.7544
     -2879.6254
  -3904281.23448  -3028190.33944  22282010.1174   22282005.6334
      2055.5944
 04  9  2 15 28 15.0000000  0  7G 1G11G14G15G19G22G25
  -3822128.72447  -2973464.82043  23125309.3524   23125305.5984
      2064.8284
  -2975275.91849  -2305225.34244  22326890.6564   22326884.6094
      1378.8444
   3316929.51749   2569094.78146  20890514.5164   20890507.8524
     -2379.7194
   6788150.46648   5255968.50043  22933351.3914   22933347.2504
     -4376.8754
   4714611.63848   3650735.98943  23513002.7194   23512996.4774
     -3187.7194
   4457858.72449   3449986.81044  22563390.6564   22563383.3364
     -2882.5944
  -3935074.34848  -3052184.94244  22276151.1174   22276146.0824
      2050.1414
 04  9  2 15 28 30.0000000  0  7G 1G11G14G15G19G22G25
  -3853066.74548  -2997572.37443  23119422.3054   23119418.3954
      2060.5004
  -2995903.14949  -2321298.50844  22322965.3594   22322959.0744
      1371.7664
   3352671.08749   2596945.34446  20897316.0164   20897309.6644
     -2385.4844
   6853837.11048   5307152.84943  22945850.9534   22945847.0514
     -4381.0474
   4762466.13748   3688025.17142  23522108.8914   23522102.6564
     -3192.5624
   4501123.70749   3483699.75644  22571623.5234   22571616.6604
     -2885.7504
  -3965783.41249  -3076114.09144  22270306.6884   22270302.1374
      2044.6564
 04  9  2 15 28 45.0000000  0  7G 1G11G14G15G19G22G25
  -3883937.70347  -3021627.63243  23113547.9774   23113543.4494
      2055.8594
  -3016421.39549  -2337286.73944  22319060.8984   22319054.4024
      1364.2814
   3388501.00149   2624864.75246  20904134.1804   20904127.8444
     -2391.5784
   6919589.30048   5358388.29043  22958363.4534   22958359.6564
     -4385.6724
   4810396.40548   3725373.38943  23531229.6024   23531223.2074
     -3197.9224
   4544437.35749   3517450.62944  22579865.6884   22579858.5314
     -2889.1414
  -3996407.01149  -3099976.60144  22264479.2114   22264474.2504
      2038.7504
 04  9  2 15 29  0.0000000  0  7G 1G11G14G15G19G22G25
  -3914739.31248  -3045628.91543  23107686.3674   23107681.8164
      2051.5944
  -3036828.31049  -2353188.22844  22315177.4924   22315171.3594
      1357.3134
   3424421.28849   2652854.57246  20910969.7424   20910963.0634
     -2397.2034
   6985408.95648   5409676.30343  22970888.4224   22970884.6524
     -4389.6724
   4858404.24248   3762782.08442  23540365.1174   23540359.0274
     -3202.5944
   4587801.76249   3551241.05944  22588117.8054   22588110.9534
     -2892.1254
  -4026942.70949  -3123770.65144  22258668.7894   22258663.9104
      2033.2974
 04  9  2 15 29 15.0000000  0  7G 1G11G14G15G19G22G25
  -3945471.70348  -3069576.19143  23101837.9454   23101833.6844
      2046.3134
  -3057123.80349  -2369002.89944  22311315.1564   22311309.1804
      1349.1884
   3460431.59249   2680914.54846  20917821.9924   20917815.5164
     -2403.8284
   7051295.58148   5461016.47643  22983426.3054   22983422.3834
     -4394.7974
   4906489.12848   3800250.78942  23549515.1254   23549509.4454
     -3208.3754
   4631216.66949   3585070.82944  22596379.6644   22596372.5944
     -2896.1414
  -4057390.20949  -3147495.95844  22252874.5554   22252869.5084
      2026.6884
 04  9  2 15 29 30.0000000  0  7G 1G11G14G15G19G22G25
  -3976134.65548  -3093469.39843  23096003.0314   23095998.9884
      2042.0634
  -3077307.47849  -2384730.43644  22307474.5004   22307468.5204
      1342.0784
   3496531.69849   2709044.48745  20924691.7344   20924685.5004
     -2409.4064
   7117248.89047   5512408.63743  22995976.6564   22995973.1844
     -4398.8754
   4954650.80548   3837779.33743  23558680.4844   23558674.1564
     -3213.1414
   4674682.27249   3618940.12444  22604650.6024   22604643.5044
     -2899.1874
  -4087749.19449  -3171152.30744  22247098.0084   22247093.0044
      2021.1414
 04  9  2 15 29 45.0000000  0  7G 1G11G14G15G19G22G25
  -4006727.84448  -3117308.25343  23090181.6954   23090177.4884
      2037.2344
  -3097378.93949  -2400370.54044  22303654.9774   22303648.8324
      1334.3594
   3532721.54049   2737244.36345  20931578.5944   20931572.3594
     -2415.6254
   7183268.85047   5563852.70643  23008539.9144   23008536.3404
     -4403.5004
   5002889.04948   3875367.53643  23567860.1174   23567853.4534
     -3218.4064
   4718198.60749   3652848.93244  22612931.8204   22612924.5904
     -2902.7974
  -4118019.13949  -3194739.25644  22241337.3444   22241332.6134
      2015.0634
 04  9  2 15 30  0.0000000  0  7G 1G11G14G15G19G22G25
  -4037253.68348  -3141094.59643  23084372.6254   23084369.0124
      2032.8754
  -3117340.26849  -2415924.82044  22299856.5234   22299850.3914
      1327.2344
   3568998.45949   2765512.08546  20938481.9144   20938475.6764
     -2421.1874
   7249352.74648   5615346.61443  23021115.2114   23021111.8834
     -4407.5944
   5051201.02548   3913013.22443  23577053.8364   23577046.9844
     -3223.1414
   4761763.38649   3686795.47944  22621221.3914   22621214.6884
     -2905.8284
  -4148202.11349  -3218258.44844  22235593.6804   22235588.8444
      2009.4224
 04  9  2 15 30 15.0000000  0  7G 1G11G14G15G19G22G25
  -4067715.16748  -3164830.81743  23078575.7974   23078572.1564
      2028.9384
  -3137194.46049  -2431395.61844  22296078.5234   22296072.2344
      1320.2504
   3605359.10249   2793845.04245  20945400.5784   20945394.3954
     -2426.5624
   7315497.07848   5666887.62643  23033702.5164   23033699.1844
     -4411.3754
   5099583.20248   3950713.60242  23586260.4534   23586253.8164
     -3227.5164
   4805373.36549   3720777.27744  22629520.2344   22629513.5044
     -2908.5314
  -4178300.94649  -3241712.06544  22229866.3834   22229861.4024
      2004.0164
 04  9  2 15 30 30.0000000  0  7G 1G11G14G15G19G22G25
  -4098109.07048  -3188514.35643  23072791.9384   23072788.1764
      2023.7504
  -3156938.07349  -2446780.24744  22292321.6884   22292315.0234
      1312.2344
   3641806.40049   2822245.52146  20952337.0164   20952330.3324
     -2432.9534
   7381704.74048   5718477.93643  23046300.7974   23046296.9924
     -4416.1724
   5148038.41248   3988470.86043  23595481.1174   23595474.3754
     -3233.0624
   4849031.75549   3754796.77744  22637828.3364   22637821.1644
     -2912.4694
  -4208312.33449  -3265097.55944  22224154.8914   22224150.1524
      1997.5314
 04  9  2 15 30 45.0000000  0  7G 1G11G14G15G19G22G25
  -4128436.48648  -3212146.08743  23067020.9534   23067017.1024
      2019.9844
  -3176571.91249  -2462079.35744  22288585.2974   22288578.8714
      1305.5474
   3678338.80149   2850712.33346  20959288.3284   20959281.9964
     -2438.0314
   7447974.25548   5770116.51043  23058912.1024   23058908.0664
     -4419.6724
   5196565.03248   4026283.79943  23604715.2114   23604709.3284
     -3237.0944
   4892737.22949   3788852.96844  22646145.0704   22646138.0234
     -2914.9534
  -4238237.06649  -3288415.52344  22218460.6484   22218455.5514
      1992.3914
 04  9  2 15 31  0.0000000  0  7G 1G11G14G15G19G22G25
  -4158699.39548  -3235727.57343  23061262.0084   23061258.1414
      2015.0944
  -3196098.01649  -2477294.49044  22284869.3834   22284863.2734
      1297.8594
   3714953.89649   2879243.56745  20966255.8834   20966249.8954
     -2443.9374
   7514303.25847   5821801.41043  23071533.9924   23071530.4804
     -4424.1724
   5245160.47848   4064150.34742  23613963.5004   23613956.8714
     -3242.2194
   4936487.76949   3822944.28844  22654470.7274   22654463.5004
     -2918.4374
  -4268077.04049  -3311667.42844  22212782.0234   22212777.6024
      1986.2344
 04  9  2 15 31 15.0000000  0  7G 1G11G14G15G19G22G25
  -4188893.33548  -3259255.31143  23055516.5944   23055512.3714
      2010.3594
  -3215511.88649  -2492422.19444  22281175.2424   22281169.1844
      1290.2344
   3751656.03349   2907842.62246  20973240.7114   20973234.1334
     -2449.9844
   7580695.78348   5873535.79543  23084168.2974   23084164.2664
     -4428.5474
   5293828.92648   4102073.80743  23623224.6804   23623218.2304
     -3247.2814
   4980287.64749   3857074.03644  22662806.0314   22662798.3524
     -2921.9844
  -4297827.34949  -3334849.48744  22207120.8674   22207115.9534
      1980.0474
 04  9  2 15 31 30.0000000  0  7G 1G11G14G15G19G22G25
  -4219015.67248  -3282727.27743  23049784.4384   23049780.2894
      2005.6254
  -3234810.47749  -2507460.05844  22277502.5474   22277495.8714
      1282.5314
   3788447.53849   2936511.31945  20980241.7194   20980235.1644
     -2455.9694
   7647154.07647   5925321.45142  23096814.4534   23096810.7624
     -4432.9694
   5342572.39348   4140055.71342  23632499.5474   23632493.4574
     -3252.2974
   5024139.32949   3891244.15944  22671150.6954   22671143.4574
     -2925.3914
  -4327485.17149  -3357959.47344  22201477.1724   22201472.4384
      1973.8754
 04  9  2 15 31 45.0000000  0  7G 1G11G14G15G19G22G25
  -4249069.92548  -3306146.15643  23044065.3134   23044060.9104
      2001.0314
  -3253997.40549  -2522410.91344  22273851.6484   22273845.1564
      1275.0164
   3825324.38849   2965246.51245  20987258.9614   20987252.2544
     -2461.6874
   7713674.16447   5977155.22543  23109473.5004   23109469.2584
     -4437.0474
   5391386.85048   4178092.88743  23641789.3284   23641783.1954
     -3257.0784
   5068039.24249   3925451.86344  22679504.1174   22679497.4804
     -2928.6564
  -4357053.97349  -3381000.08544  22195850.2114   22195846.1414
      1967.9384
 04  9  2 15 32  0.0000000  0  7G 1G11G14G15G19G22G25
  -4279056.80248  -3329512.54043  23038359.1024   23038355.1844
      1997.2194
  -3273073.11849  -2537275.10744  22270221.9224   22270215.3134
      1268.3284
   3862285.58349   2994047.43845  20994292.4774   20994286.5274
     -2466.5474
   7780255.08448   6029036.44842  23122142.7114   23122139.3524
     -4440.4374
   5440271.19648   4216184.56143  23651091.4924   23651084.9654
     -3260.8754
   5111986.65849   3959696.58044  22687867.1724   22687860.2344
     -2931.0784
  -4386534.24149  -3403971.69444  22190240.4384   22190235.5234
      1962.7504
 04  9  2 15 32 15.0000000  0  7G 1G11G14G15G19G22G25
  -4308978.49248  -3352828.13143  23032664.7894   23032660.9414
      1992.5164
  -3292039.54149  -2552054.13844  22266612.5554   22266606.7544
      1260.6254
   3899328.51049   3022912.05146  21001341.5944   21001335.2664
     -2472.3124
   7846894.14947   6080962.93842  23134823.8914   23134820.5704
     -4444.7034
   5489222.73248   4254328.58943  23660406.5704   23660400.2624
     -3265.7664
   5155979.19449   3993976.45944  22696238.5864   22696231.7544
     -2934.4534
  -4415927.99249  -3426875.90544  22184646.6564   22184642.5354
      1956.5944
 04  9  2 15 32 30.0000000  0  7G 1G11G14G15G19G22G25
  -4338829.83248  -3376088.92743  23026984.4844   23026980.5274
      1987.9064
  -3310891.41149  -2566743.90544  22263025.2664   22263019.1724
      1253.0944
   3936458.11449   3051844.20246  21008406.8284   21008400.7584
     -2478.0474
   7913596.22148   6132938.56142  23147516.6884   23147513.1724
     -4448.7504
   5538246.07548   4292528.58543  23669735.1254   23669729.3054
     -3270.5164
   5200021.89449   4028295.42244  22704619.6884   22704613.2234
     -2937.7664
  -4445229.73849  -3449708.42644  22179071.3594   22179066.8324
      1950.5314
 04  9  2 15 32 45.0000000  0  7G 1G11G14G15G19G22G25
  -4368608.03148  -3399292.69243  23021317.8984   23021313.7774
      1983.0004
  -3329625.82549  -2581342.16144  22259459.8754   22259453.5124
      1245.3134
   3973676.79249   3080845.75645  21015489.1724   21015482.9224
     -2483.9374
   7980363.74347   6184965.16042  23160222.4924   23160218.7894
     -4453.1094
   5587343.62148   4330786.36142  23679078.1484   23679071.8524
     -3275.3914
   5244117.47049   4062655.58944  22713010.6954   22713004.2344
     -2941.2664
  -4474436.41649  -3472466.84744  22173513.7424   22173508.9224
      1944.2034
 04  9  2 15 33  0.0000000  0  7G 1G11G14G15G19G22G25
  -4398319.60848  -3422444.55543  23015664.1094   23015659.7774
      1978.8284
  -3348249.17249  -2595853.85544  22255916.1024   22255909.7114
      1238.0784
   4010977.72949   3109911.40145  21022587.5784   21022581.5554
     -2489.2504
   8047189.74947   6237037.31942  23172939.1644   23172936.0664
     -4456.7504
   5636508.48648   4369096.63343  23688433.1254   23688427.4024
     -3279.7034
   5288259.28949   4097051.79444  22721410.5944   22721404.2774
     -2944.0784
  -4503554.38249  -3495156.16844  22167972.1094   22167967.2854
      1938.4534
 04  9  2 15 33 15.0000000  0  7G 1G11G14G15G19G22G25
  -4427964.14247  -3445544.18943  23010022.4774   23010018.4454
      1974.0944
  -3366760.84849  -2610278.53444  22252393.5554   22252387.2974
      1230.3594
   4048360.95149   3139041.18345  21029701.5864   21029695.1024
     -2494.9844
   8114074.25848   6289155.09142  23185666.7114   23185663.4804
     -4460.9534
   5685740.34848   4407459.07543  23697802.5864   23697796.2704
     -3284.4534
   5332447.56649   4131484.21544  22729819.2034   22729812.4964
     -2947.4694
  -4532583.12248  -3517775.94544  22162448.3914   22162443.8954
      1932.2344
 04  9  2 15 33 30.0000000  0  7G 1G11G14G15G19G22G25
  -4457538.32047  -3468588.97243  23004394.9924   23004390.7624
      1969.6414
  -3385157.46449  -2624613.55744  22248893.1094   22248886.2384
      1222.9384
   4085829.44749   3168237.40246  21036831.6414   21036825.4654
     -2500.3754
   8181020.16548   6341320.70842  23198405.7504   23198402.4534
     -4464.8124
   5735042.07848   4445875.98742  23707184.2114   23707178.0634
     -3288.7194
   5376685.57049   4165955.35244  22738237.7034   22738231.2464
     -2950.5164
  -4561519.09248  -3540323.45144  22156941.9064   22156937.1524
      1926.2194
 04  9  2 15 33 45.0010000  0  7G 1G11G14G15G19G22G25
  -4487046.64148  -3491582.47743  22998779.7784   22998775.4314
      1964.8134
  -3403442.57449  -2638861.70144  22245413.1924   22245407.0714
      1215.1094
   4123382.85149   3197499.78246  21043977.7314   21043971.0874
     -2506.1414
   8248028.99947   6393535.32342  23211157.2634   23211153.9464
     -4468.7974
   5784414.02748   4484347.61042  23716579.7714   23716573.0244
     -3293.4064
   5420973.62649   4200465.49944  22746665.5284   22746659.1344
     -2953.9844
  -4590366.61049  -3562802.03544  22151452.2714   22151447.9234
      1919.9694
 04  9  2 15 34  0.0010000  0  7G 1G11G14G15G19G22G25
  -4516484.58047  -3514521.13543  22993177.7314   22993173.5364
      1960.1724
  -3421613.03949  -2653020.49544  22241955.3334   22241949.5914
      1207.5634
   4161016.40249   3226824.61346  21051139.2634   21051133.1424
     -2511.6564
   8315092.11647   6445792.30042  23223919.0524   23223915.6614
     -4472.8284
   5833849.75148   4522868.93042  23725986.6694   23725980.5244
     -3297.8754
   5465306.27549   4235010.40944  22755101.6464   22755095.3884
     -2957.0624
  -4619120.88248  -3585207.93044  22145980.8564   22145976.0564
      1914.0314
 04  9  2 15 34 15.0010000  0  7G 1G11G14G15G19G22G25
  -4545853.15148  -3537405.71443  22987589.0444   22987584.6814
      1955.5634
  -3439669.02649  -2667090.09544  22238519.4034   22238513.0134
      1199.9844
   4198733.32249   3256214.41045  21058316.5444   21058310.1884
     -2517.1724
   8382214.41447   6498095.32642  23236692.2554   23236688.6064
     -4476.7344
   5883353.00548   4561442.87042  23735407.0134   23735400.5564
     -3302.4224
   5509687.38049   4269593.06744  22763547.1384   22763540.2984
     -2960.3284
  -4647782.76849  -3607541.85544  22140526.4194   22140521.4854
      1907.8284
 04  9  2 15 34 30.0010000  0  7G 1G11G14G15G19G22G25
  -4575151.28847  -3560235.42943  22982014.1144   22982010.0364
      1950.5004
  -3457609.14449  -2681069.40944  22235105.5444   22235099.4234
      1191.8594
   4236534.35749   3285669.74745  21065509.7944   21065503.6814
     -2523.1724
   8449396.69147   6550445.12142  23249476.7864   23249472.8764
     -4481.1094
   5932924.43548   4600069.92142  23744839.9034   23744833.8724
     -3307.3124
   5554117.86649   4304214.18544  22772002.2634   22771995.4664
     -2963.9694
  -4676350.97848  -3629802.77644  22135090.0834   22135085.3764
      1901.1884
 04  9  2 15 34 45.0010000  0  7G 1G11G14G15G19G22G25
  -4604379.37047  -3583010.53743  22976452.2474   22976447.5444
      1946.4534
  -3475433.79949  -2694958.74144  22231713.9974   22231707.6574
      1184.7034
   4274418.72949   3315190.03946  21072719.1304   21072712.7944
     -2528.1874
   8516638.10147   6602840.96742  23262272.1534   23262269.2124
     -4484.5314
   5982563.03848   4638749.30442  23754285.9354   23754280.0444
     -3311.2344
   5598597.16149   4338873.36644  22780466.5364   22780459.4584
     -2966.6254
  -4704825.64548  -3651990.82144  22129671.4584   22129666.8454
      1895.4844
 04  9  2 15 35  0.0010000  0  7G 1G11G14G15G19G22G25
  -4633538.63448  -3605732.02943  22970903.6064   22970899.2554
      1941.6254
  -3493143.97649  -2708758.89944  22228343.7554   22228337.7554
      1176.8914
   4312384.78649   3344773.95246  21079943.7164   21079937.6774
     -2533.7194
   8583937.06648   6655281.68842  23275078.7784   23275075.1854
     -4488.5474
   6032267.16348   4677479.75842  23763744.2714   23763738.0404
     -3315.7504
   5643123.91249   4373569.50944  22788939.3254   22788932.3724
     -2969.9694
  -4733207.83349  -3674106.80844  22124271.0444   22124266.3024
      1889.1254
 04  9  2 15 35 15.0010000  0  7G 1G11G14G15G19G22G25
  -4662627.78448  -3628398.89943  22965367.8564   22965363.3924
      1936.5944
  -3510738.38349  -2722468.81444  22224995.6304   22224989.2824
      1168.8134
   4350433.58049   3374422.35745  21087183.9664   21087178.3454
     -2539.7194
   8651294.55247   6707768.01642  23287896.1304   23287892.6344
     -4492.7974
   6082037.64848   4716261.96342  23773215.8104   23773209.6184
     -3320.5624
   5687699.41149   4408303.63944  22797421.8724   22797415.0754
     -2973.6254
  -4761496.01949  -3696149.53144  22118887.6064   22118882.8994
      1882.4844
 04  9  2 15 35 30.0010000  0  7G 1G11G14G15G19G22G25
  -4691646.71348  -3651011.03243  22959845.6854   22959841.4424
      1932.2664
  -3528216.55349  -2736088.16444  22221669.5444   22221663.4934
      1161.3444
   4388564.82349   3404135.00446  21094440.4974   21094434.3024
     -2544.7664
   8718710.16847   6760299.61342  23300725.1924   23300721.8564
     -4496.2344
   6131874.05948   4755095.51442  23782699.0054   23782692.7904
     -3324.5624
   5732323.63749   4443075.73744  22805913.6224   22805906.8374
     -2976.5314
  -4789689.84649  -3718118.72044  22113522.5524   22113517.7284
      1876.5314
 04  9  2 15 35 45.0010000  0  7G 1G11G14G15G19G22G25
  -4720596.88448  -3673569.60143  22954336.7164   22954332.5874
      1927.7664
  -3545579.81049  -2749617.97844  22218365.3494   22218359.6104
      1153.7974
   4426776.77549   3433910.53746  21101711.7314   21101705.5214
     -2550.0474
   8786182.21348   6812875.20242  23313564.8334   23313561.1694
     -4499.9844
   6181774.52248   4793978.95042  23792195.0674   23792188.6734
     -3328.8444
   5776995.01149   4477884.58244  22814414.1064   22814407.2714
     -2979.5314
  -4817790.62949  -3740015.42944  22108174.7164   22108170.0484
      1870.4224
 04  9  2 15 36  0.0010000  0  7G 1G11G14G15G19G22G25
  -4749477.52447  -3696073.97943  22948840.8494   22948836.1884
      1922.9844
  -3562827.28549  -2763057.56644  22215083.3174   22215077.4114
      1145.7814
   4465069.93349   3463749.36346  21108998.8564   21108992.4074
     -2555.7504
   8853710.90847   6865494.93442  23326415.6614   23326412.0714
     -4503.9374
   6231739.27848   4832912.50142  23801702.7554   23801696.7244
     -3333.1724
   5821714.17149   4512730.65244  22822924.3804   22822916.9504
     -2983.0004
  -4845797.32248  -3761838.80944  22102845.6224   22102840.8134
      1863.8444
 04  9  2 15 36 15.0010000  0  7G 1G11G14G15G19G22G25
  -4778286.83548  -3718522.79943  22943358.2164   22943353.9314
      1917.9064
  -3579957.07949  -2776405.44744  22211823.6384   22211817.3924
      1137.6884
   4503445.59349   3493652.45746  21116301.1774   21116295.2594
     -2561.4374
   8921297.78247   6918159.99942  23339276.3334   23339273.2284
     -4508.0784
   6281769.68348   4871897.18742  23811223.3414   23811216.8964
     -3337.9224
   5866482.84049   4547615.31844  22831443.3414   22831436.5364
     -2986.5624
  -4873708.04849  -3783587.41245  22097534.3104   22097529.3994
      1857.1414
 04  9  2 15 36 30.0010000  0  7G 1G11G14G15G19G22G25
  -4807024.01648  -3740915.38843  22937890.0914   22937886.1464
      1913.2974
  -3596968.11649  -2789660.81944  22208586.7784   22208580.6534
      1130.0004
   4541904.35149   3523620.31846  21123619.9744   21123613.8024
     -2566.7664
   8988943.20447   6970870.65742  23352148.9744   23352145.8964
     -4511.7034
   6331866.07848   4910933.31742  23820756.4504   23820750.3534
     -3342.0624
   5911301.81649   4582539.17044  22839971.9744   22839964.6104
     -2989.6564
  -4901521.78649  -3805260.44744  22092241.6464   22092236.7394
      1850.8914
 04  9  2 15 36 45.0010000  0  7G 1G11G14G15G19G22G25
  -4835691.25948  -3763253.49843  22932434.2004   22932430.3964
      1909.1254
  -3613862.58049  -2802825.33644  22205371.6854   22205365.4354
      1122.7344
   4580443.70449   3553650.96646  21130953.9274   21130947.4934
     -2571.6724
   9056644.59947   7023624.96042  23365032.4114   23365028.6814
     -4515.0314
   6382025.71448   4950018.72242  23830301.0834   23830295.6144
     -3345.7344
   5956168.66549   4617500.31844  22848510.0994   22848502.4074
     -2992.3754
  -4929240.54049  -3826859.46845  22086967.0284   22086962.6344
      1845.0474
 04  9  2 15 37  0.0010000  0  7G 1G11G14G15G19G22G25
  -4864291.89748  -3785539.70743  22926992.2474   22926988.2714
      1903.9534
  -3630643.61349  -2815901.46044  22202178.4354   22202172.1964
      1114.3284
   4619060.01249   3583741.58746  21138301.9814   21138295.9664
     -2577.5474
   9124398.21848   7076419.94642  23377925.7944   23377921.9854
     -4519.2344
   6432244.86848   4989150.49442  23839858.1694   23839851.5214
     -3350.4694
   6001079.97649   4652496.14744  22857056.3884   22857049.3024
     -2996.1874
  -4956867.28449  -3848386.76944  22081709.6854   22081704.5484
      1838.1564
 04  9  2 15 37 15.0010000  0  7G 1G11G14G15G19G22G25
  -4892814.47748  -3807765.07043  22921564.3804   22921560.7284
      1899.2194
  -3647299.66849  -2828880.21144  22199008.6224   22199002.6654
      1106.5164
   4657764.30949   3613900.77046  21145667.1304   21145660.7864
     -2582.9064
   9192215.16246   7129264.28642  23390830.2864   23390827.1184
     -4522.9224
   6482534.50648   5028337.21042  23849427.9974   23849421.4784
     -3354.6874
   6046047.10449   4687535.44644  22865613.2714   22865606.0484
     -2999.3284
  -4984390.37849  -3869833.33845  22076472.1384   22076467.5834
      1831.7664
 04  9  2 15 37 30.0010000  0  7G 1G11G14G15G19G22G25
  -4921263.64948  -3829933.24743  22916150.8414   22916146.4974
      1894.3134
  -3663835.18749  -2841765.03244  22195862.2864   22195855.6814
      1098.4694
   4696551.60549   3644124.62445  21153048.5674   21153042.5324
     -2588.4374
   9260090.41247   7182154.02242  23403746.7164   23403743.0874
     -4526.8124
   6532889.40148   5067574.73942  23859010.4584   23859004.1534
     -3359.0944
   6091065.33049   4722614.54844  22874180.2714   22874173.3064
     -3002.8124
  -5011814.42148  -3891202.69544  22071253.5054   22071248.3024
      1825.0944
 04  9  2 15 37 45.0010000  0  7G 1G11G14G15G19G22G25
  -4949642.56548  -3852046.68643  22910750.3724   22910746.4384
      1889.3754
  -3680253.20349  -2854558.28844  22192737.9894   22192731.7594
      1090.3444
   4735418.48749   3674410.48545  21160444.3964   21160437.9194
     -2593.9844
   9328020.52748   7235086.54442  23416673.7634   23416670.2394
     -4530.7344
   6583306.00448   5106860.37642  23868604.2634   23868597.6144
     -3363.3914
   6136131.34749   4757730.90944  22882755.8804   22882748.7744
     -3006.2504
  -5039142.33949  -3912497.17044  22066053.4744   22066048.3174
      1818.4224
 04  9  2 15 38  0.0010000  0  7G 1G11G14G15G19G22G25
  -4977948.90548  -3874103.56243  22905364.1304   22905359.6854
      1884.7504
  -3696551.20149  -2867258.02644  22189636.5214   22189630.3994
      1082.6884
   4774366.98649   3704759.96146  21167856.0604   21167850.1614
     -2599.1414
   9396007.37147   7288063.25842  23429611.3414   23429608.4424
     -4534.2504
   6633786.18648   5146195.57442  23878210.7634   23878203.8924
     -3367.3124
   6181247.45249   4792886.30044  22891341.1694   22891334.1184
     -3009.2504
  -5066371.54249  -3933714.71445  22060871.6304   22060866.3764
      1812.1414
 04  9  2 15 38 15.0010000  0  7G 1G11G14G15G19G22G25
  -5006181.69748  -3896103.11943  22899991.5364   22899987.5214
      1879.8444
  -3712728.07849  -2879863.40244  22186558.3804   22186551.5994
      1074.5784
   4813397.77549   3735173.55246  21175283.1774   21175277.3724
     -2604.7194
   9464051.49647   7341084.60042  23442559.4424   23442555.8414
     -4538.0784
   6684330.42548   5185580.65542  23887828.4354   23887822.1464
     -3371.6094
   6226414.44549   4828081.33844  22899936.2314   22899929.3684
     -3012.7344
  -5093500.79149  -3954854.38245  22055709.0134   22055703.9814
      1805.3444
 04  9  2 15 38 30.0010000  0  7G 1G11G14G15G19G22G25
  -5034342.86748  -3918046.89743  22894632.4814   22894628.2984
      1875.0314
  -3728785.58049  -2892375.73844  22183502.7554   22183496.5134
      1066.5004
   4852508.58349   3765649.49246  21182725.7554   21182719.6264
     -2610.0474
   9532150.57447   7394148.78842  23455518.5364   23455514.7474
     -4541.7504
   6734936.30148   5225013.76742  23897458.3804   23897452.2044
     -3375.7504
   6271630.37649   4863314.50944  22908540.5604   22908533.9814
     -3016.0164
  -5120531.86549  -3975917.53545  22050565.2944   22050560.3884
      1798.8134
 04  9  2 15 38 45.0010000  0  7G 1G11G14G15G19G22G25
  -5062431.43748  -3939934.04643  22889287.2944   22889283.6814
      1870.4224
  -3744722.61049  -2904794.20544  22180469.8494   22180463.4854
      1058.7664
   4891700.00649   3796188.25645  21190183.6384   21190177.6614
     -2615.1564
   9600305.26547   7447256.29542  23468487.8174   23468484.7124
     -4545.1724
   6785604.40948   5264495.39642  23907100.2164   23907094.0524
     -3379.6414
   6316896.08949   4898586.47744  22917154.3644   22917147.9704
     -3019.0784
  -5147463.45249  -3996903.17245  22045440.1144   22045435.5484
      1792.4224
 04  9  2 15 39  0.0010000  0  7G 1G11G14G15G19G22G25
  -5090446.75248  -3961764.17943  22883956.2634   22883952.0134
      1865.5634
  -3760538.44649  -2917118.22744  22177459.9814   22177453.9154
      1050.6254
   4930972.37949   3826790.08346  21197656.8494   21197650.8414
     -2620.6254
   9668515.79947   7500407.33642  23481467.2784   23481464.1694
     -4548.9224
   6836334.85248   5304025.58242  23916753.9894   23916747.7314
     -3383.7814
   6362212.02649   4933897.58344  22925777.6464   22925771.2244
     -3022.4694
  -5174294.88349  -4017810.76345  22040334.5604   22040329.3764
      1785.6884
 04  9  2 15 39 15.0010000  0  7G 1G11G14G15G19G22G25
  -5118390.62848  -3983538.59943  22878638.6924   22878634.0674
      1860.7974
  -3776234.70049  -2929349.08644  22174473.4744   22174467.5444
      1042.5944
   4970323.55849   3857453.35046  21205145.5674   21205139.2554
     -2625.8284
   9736780.03447   7553600.16742  23494457.7314   23494455.0174
     -4552.4694
   6887125.36148   5343602.57842  23926419.2084   23926412.8924
     -3387.9374
   6407576.40248   4969246.42344  22934410.2004   22934403.7824
     -3025.7034
  -5201027.71149  -4038641.51645  22035247.1694   22035242.4544
      1779.0784
 04  9  2 15 39 30.0010000  0  7G 1G11G14G15G19G22G25
  -5146260.51148  -4005255.40143  22873335.3104   22873331.2244
      1855.4064
  -3791808.69349  -2941484.67844  22171509.6924   22171503.4664
      1034.0784
   5009755.78649   3888179.73646  21212649.1854   21212643.0834
     -2631.6414
   9805100.05947   7606836.50242  23507458.6854   23507455.4704
     -4556.7194
   6937978.02148   5383227.97542  23936096.4034   23936090.0174
     -3392.2974
   6452991.70148   5004634.93744  22943052.2004   22943045.7434
     -3029.5164
  -5227659.25749  -4059393.35745  22030179.4664   22030174.6034
      1771.9534
 04  9  2 15 39 45.0010000  0  7G 1G11G14G15G19G22G25
  -5174057.10348  -4026915.05643  22868045.9744   22868041.5994
      1850.8914
  -3807261.04249  -2953525.45844  22168568.9584   22168562.6964
      1026.3594
   5049268.02649   3918968.48846  21220168.0444   21220161.6964
     -2636.6094
   9873474.74947   7660115.43942  23520470.0754   23520466.9424
     -4559.8594
   6988891.64548   5422900.89742  23945784.9424   23945778.5714
     -3396.0944
   6498457.03548   5040062.45844  22951703.9974   22951697.3964
     -3032.5164
  -5254189.96849  -4080066.61945  22025130.9194   22025125.8724
      1765.5784
 04  9  2 15 40  0.0010000  0  7G 1G11G14G15G19G22G25
  -5201774.33448  -4048512.90443  22862771.2634   22862767.3534
      1845.1094
  -3822585.32449  -2965466.46544  22165653.1224   22165646.3644
      1017.3134
   5088866.02549   3949824.05845  21227702.7164   21227696.9424
     -2642.7974
   9941909.93547   7713441.50242  23533493.1694   23533489.6144
     -4564.4224
   7039871.85748   5462625.68142  23955486.1534   23955479.6814
     -3400.9694
   6543978.42048   5075533.64544  22960366.6064   22960359.8454
     -3036.6564
  -5280613.38749  -4100656.28445  22020102.6534   22020097.7824
      1757.9534
 04  9  2 15 40 15.0010000  0  7G 1G11G14G15G19G22G25
  -5229415.81948  -4070051.70143  22857511.2394   22857506.9854
      1839.9844
  -3837785.12448  -2977310.46644  22162760.5524   22162753.8884
      1008.9694
   5128545.93849   3980743.46245  21235253.9814   21235248.0954
     -2648.3124
  10010401.64248   7766811.64842  23546526.9424   23546523.3374
     -4568.2664
   7090914.46148   5502399.15142  23965199.6304   23965192.5244
     -3405.0944
   6589552.14948   5111045.64043  22969038.9664   22969032.7474
     -3040.2344
  -5306933.14649  -4121165.16645  22015094.0054   22015089.0364
      1750.9694
 04  9  2 15 40 30.0010000  0  7G 1G11G14G15G19G22G25
  -5256979.21748  -4091529.65543  22852266.1224   22852261.5364
      1835.1884
  -3852858.03949  -2989055.60444  22159892.2714   22159886.0524
      1000.7974
   5168309.66749   4011728.17445  21242820.8174   21242814.5364
     -2653.4844
  10078951.76048   7820227.26442  23559571.6694   23559568.0834
     -4571.7664
   7142021.39248   5542222.64843  23974924.6854   23974918.3644
     -3409.0784
   6635180.41048   5146600.09344  22977721.9814   22977715.1034
     -3043.4844
  -5333146.69549  -4141591.28845  22010105.7714   22010100.8024
      1744.1414
 04  9  2 15 40 45.0010000  0  7G 1G11G14G15G19G22G25
  -5284470.40748  -4112951.35943  22847034.5284   22847030.4544
      1830.4694
  -3867809.81449  -3000706.34444  22157047.3174   22157040.6184
       992.8284
   5208151.04449   4042773.39145  21250402.4664   21250396.1654
     -2658.5624
  10147554.00948   7873683.54642  23572626.1304   23572622.3644
     -4575.1414
   7193186.28848   5582091.35742  23984660.9584   23984654.5754
     -3412.8594
   6680857.19748   5182192.37744  22986413.8414   22986406.7084
     -3046.6564
  -5359259.67049  -4161939.03445  22005136.5994   22005131.9034
      1737.5784
 04  9  2 15 41  0.0010000  0  7G 1G11G14G15G19G22G25
  -5311884.19748  -4134312.73943  22841818.2244   22841813.9074
      1825.0004
  -3882634.93249  -3012258.37844  22154226.2314   22154219.7164
       984.1564
   5248075.00949   4073882.96845  21257999.8024   21257993.3064
     -2664.3124
  10216213.20647   7927184.13742  23585691.4894   23585688.2634
     -4579.0474
   7244413.82048   5622008.88442  23994409.4034   23994402.6494
     -3417.1414
   6726587.53948   5217826.38644  22995116.4584   22995109.3214
     -3050.4374
  -5385266.68549  -4182204.23245  22000187.8414   22000182.5524
      1730.2664
 04  9  2 15 41 15.0010000  0  7G 1G11G14G15G19G22G25
  -5339222.03848  -4155614.94243  22836615.9744   22836611.7864
      1819.8284
  -3897334.77349  -3023712.81344  22151428.6384   22151422.3994
       975.6564
   5288079.76649   4105055.49245  21265612.4894   21265606.1144
     -2669.8284
  10284927.56648   7980727.76442  23598767.3254   23598764.5714
     -4582.8444
   7295702.13248   5661973.78442  24004169.2864   24004162.7164
     -3421.3914
   6772370.03948   5253501.03944  23003828.1924   23003821.4034
     -3054.0624
  -5411168.96649  -4202387.80145  21995258.7474   21995253.9934
      1723.1724
 04  9  2 15 41 30.0010000  0  7G 1G11G14G15G19G22G25
  -5366478.48948  -4176853.71943  22831429.0284   22831424.9274
      1813.9384
  -3911903.86749  -3035065.34944  22148656.5444   22148649.8024
       966.4534
   5328170.42249   4136294.94645  21273241.3724   21273234.9464
     -2675.9694
  10353702.09848   8034318.23842  23611854.5914   23611851.3534
     -4587.3754
   7347056.27848   5701989.97242  24013941.4814   24013935.0994
     -3426.2194
   6818209.96148   5289220.42343  23012551.2634   23012544.0754
     -3058.3444
  -5436960.87949  -4222485.39145  21990350.7004   21990345.6464
      1715.3754
 04  9  2 15 41 45.0010000  0  7G 1G11G14G15G19G22G25
  -5393658.25548  -4198032.73043  22826256.8254   22826252.4624
      1809.4384
  -3926346.71349  -3046319.51544  22145907.9744   22145901.5754
       958.5314
   5368341.88149   4167597.38846  21280885.8884   21280879.5834
     -2680.8284
  10422531.79747   8087951.76342  23624952.6854   23624949.7594
     -4590.5164
   7398470.93748   5742053.29142  24023725.3494   24023719.5214
     -3429.7194
   6864102.50548   5324980.84544  23021284.5214   23021277.4664
     -3061.2664
  -5462646.91649  -4242500.45445  21985462.9814   21985458.1494
      1708.8284
 04  9  2 15 42  0.0010000  0  7G 1G11G14G15G19G22G25
  -5420756.95248  -4219148.58943  22821100.0994   22821096.3024
      1803.6414
  -3940658.77249  -3057471.77244  22143184.2944   22143178.0054
       949.5164
   5408598.31949   4198966.02545  21288546.1854   21288539.7554
     -2686.8284
  10491420.64348   8141631.34542  23638061.7474   23638058.7594
     -4594.7344
   7449950.17247   5782166.93842  24033521.5134   24033515.6774
     -3434.3284
   6910051.98049   5360785.60244  23030027.9194   23030021.3534
     -3065.4224
  -5488222.56649  -4262429.51345  21980596.1614   21980590.7004
      1701.1094
 04  9  2 15 42 15.0010000  0  7G 1G11G14G15G19G22G25
  -5447773.66848  -4240200.56743  22815959.2944   22815955.1344
      1799.1884
  -3954839.00749  -3068521.30944  22140485.7714   22140479.5284
       941.7664
   5448940.27449   4230401.30045  21296223.0364   21296217.1104
     -2691.4534
  10560369.16948   8195357.42442  23651182.3804   23651179.5564
     -4597.7344
   7501494.26048   5822331.13842  24043330.0444   24043324.0914
     -3437.6414
   6956059.20849   5396635.36944  23038783.1304   23038775.9974
     -3068.3284
  -5513686.62849  -4282271.62345  21975750.3724   21975745.2864
      1694.6724
 04  9  2 15 42 30.0010000  0  7G 1G11G14G15G19G22G25
  -5474712.10548  -4261191.52443  22810832.5754   22810828.5714
      1793.2814
  -3968890.98749  -3079470.91144  22137812.3564   22137805.2554
       932.5314
   5489363.83249   4261900.16945  21303915.3644   21303909.2314
     -2697.7194
  10629373.30847   8249126.80142  23664313.7634   23664309.7354
     -4602.0944
   7553099.11847   5862542.70142  24053150.0914   24053144.0754
     -3442.2974
   7002120.39849   5432527.18544  23047548.4424   23047541.4464
     -3072.5624
  -5539042.61649  -4302029.51445  21970924.9274   21970920.0284
      1686.7344
 04  9  2 15 42 45.0010000  0  7G 1G11G14G15G19G22G25
  -5501570.86548  -4282120.42943  22805721.6854   22805717.3884
      1787.4694
  -3982813.06549  -3090319.29144  22135162.5994   22135155.9464
       923.3594
   5529869.96649   4293463.37045  21311623.8104   21311617.1924
     -2703.6254
  10698433.98548   8302940.28742  23677455.3494   23677452.1104
     -4606.3754
   7604765.68147   5902802.30342  24062981.6854   24062975.9424
     -3447.0004
   7048236.88649   5468462.09644  23056324.1854   23056317.1384
     -3076.8124
  -5564288.95349  -4321701.97345  21966121.1384   21966116.1344
      1678.9844
 04  9  2 15 43  0.0010000  0  7G 1G11G14G15G19G22G25
  -5528348.71148  -4302986.26943  22800626.0054   22800621.5174
      1782.5944
  -3996603.86849  -3101065.36145  22132538.2474   22132531.9114
       915.1254
   5570459.72049   4325091.74245  21319347.6144   21319341.1534
     -2708.7344
  10767552.11548   8356798.52642  23690608.4814   23690605.1964
     -4609.7034
   7656494.73847   5943110.60842  24072825.5364   24072819.7474
     -3450.5784
   7094409.82749   5504440.97244  23065110.3644   23065103.6884
     -3079.9844
  -5589424.10749  -4341287.78545  21961337.9424   21961332.9504
      1672.0004
 04  9  2 15 43 15.0010000  0  7G 1G11G14G15G19G22G25
  -5555044.63948  -4323788.27843  22795546.0364   22795541.7944
      1777.0784
  -4010262.42049  -3111708.39444  22129939.1854   22129933.1304
       906.2504
   5611133.72549   4356785.75645  21327087.7474   21327081.1384
     -2714.3124
  10836728.36248   8410702.06342  23703771.8644   23703768.8454
     -4613.5944
   7708286.83647   5983468.05642  24082680.8254   24082675.9234
     -3454.8444
   7140640.10648   5540464.54544  23073907.6614   23073900.9314
     -3083.7664
  -5614446.93649  -4360786.08445  21956576.1144   21956570.8374
      1664.5004
 04  9  2 15 43 30.0010000  0  7G 1G11G14G15G19G22G25
  -5581662.80148  -4344529.69143  22790480.8494   22790476.7004
      1772.0164
  -4023792.61149  -3122251.39644  22127364.3174   22127358.0674
       897.7504
   5651887.45049   4388541.90045  21334842.6854   21334836.3964
     -2719.4224
  10905958.17747   8464647.31442  23716945.7714   23716942.6224
     -4617.0004
   7760137.26147   6023870.94742  24092548.3884   24092542.2674
     -3458.5474
   7186923.46048   5576529.46544  23082715.3024   23082708.1734
     -3087.2814
  -5639361.48649  -4380199.99845  21951835.1694   21951829.7634
      1657.3444
 04  9  2 15 43 45.0010000  0  7G 1G11G14G15G19G22G25
  -5608199.25248  -4365207.42443  22785431.0524   22785426.7434
      1766.4534
  -4037190.41849  -3132691.25744  22124815.1534   22124808.5874
       888.7814
   5692724.53049   4420362.99545  21342614.0444   21342607.6774
     -2725.1724
  10975245.16248   8518637.12542  23730130.7864   23730127.8964
     -4620.9694
   7812049.49947   6064322.01442  24102426.7084   24102421.2164
     -3462.8284
   7233263.72048   5612638.73844  23091533.4974   23091526.5054
     -3091.1724
  -5664163.42349  -4399526.16945  21947115.4424   21947110.1034
      1649.7344
 04  9  2 15 44  0.0010000  0  7G 1G11G14G15G19G22G25
  -5634650.49748  -4385818.77344  22780397.6614   22780393.1384
      1760.5164
  -4050452.24749  -3143025.14245  22122291.3334   22122285.1694
       879.5314
   5733648.15849   4452251.52145  21350401.5604   21350394.8724
     -2731.1254
  11044592.37748   8572673.86042  23743327.0834   23743324.1184
     -4625.1724
   7864026.61047   6104823.62342  24112317.8644   24112312.0524
     -3467.3754
   7279664.26248   5648794.99343  23100363.5994   23100356.7004
     -3095.4374
  -5688849.19449  -4418761.81445  21942417.9504   21942412.4894
      1641.7974
 04  9  2 15 44 15.0010000  0  7G 1G11G14G15G19G22G25
  -5661016.11549  -4406363.38443  22775380.7314   22775376.2714
      1755.1254
  -4063577.47449  -3153252.60444  22119793.9354   22119787.3994
       870.6724
   5774658.51849   4484207.63745  21358205.2944   21358199.3374
     -2736.6724
  11113999.90448   8626757.60642  23756535.6144   23756532.3214
     -4628.9224
   7916068.53847   6145375.71542  24122221.3884   24122215.4234
     -3471.2974
   7326125.56148   5684998.55744  23109204.3644   23109197.5054
     -3099.2034
  -5713418.04849  -4437906.34945  21937742.6144   21937737.4384
      1634.2974
 04  9  2 15 44 30.0010000  0  7G 1G11G14G15G19G22G25
  -5687300.65648  -4426844.82943  22770378.6304   22770374.2204
      1749.5634
  -4076570.42549  -3163376.99144  22117321.1464   22117315.0014
       861.7504
   5815750.79149   4516227.57545  21366024.8804   21366018.8254
     -2742.2814
  11183462.75448   8680884.44142  23769753.8644   23769750.5284
     -4632.7194
   7968170.41647   6185974.54942  24132135.3494   24132130.0914
     -3475.5474
   7372642.84448   5721245.78644  23118056.7164   23118049.4704
     -3103.0784
  -5737874.40249  -4456963.23345  21933088.5994   21933082.9584
      1626.6414
 04  9  2 15 44 45.0010000  0  7G 1G11G14G15G19G22G25
  -5713504.20648  -4447263.18243  22765392.1614   22765387.5054
      1744.2814
  -4089431.07249  -3173398.27145  22114873.9274   22114867.3884
       853.0314
   5856924.55449   4548311.00745  21373860.2244   21373854.0244
     -2747.5784
  11252980.57148   8735054.11342  23782982.7554   23782978.6464
     -4636.2194
   8020331.59047   6226619.56042  24142061.4894   24142055.8964
     -3479.3444
   7419216.03548   5757536.54444  23126919.1924   23126912.3334
     -3106.6874
  -5762218.17049  -4475932.39245  21928456.2084   21928451.0834
      1619.1884
 04  9  2 15 45  0.0010000  0  7G 1G11G14G15G19G22G25
  -5739626.91749  -4467618.52843  22760421.1464   22760416.6924
      1738.7194
  -4102159.49549  -3183316.52345  22112451.8564   22112445.4784
       844.0474
   5898179.27549   4580457.54145  21381710.5754   21381704.0174
     -2753.0784
  11322552.84148   8789266.28042  23796221.3174   23796218.4154
     -4640.0164
   8072551.42147   6267310.31742  24151998.2714   24151992.5284
     -3483.4064
   7465844.81548   5793870.64444  23135792.2714   23135785.4384
     -3110.5474
  -5786449.32149  -4494813.78845  21923844.7084   21923840.0134
      1611.5784
 04  9  2 15 45 15.0010000  0  7G 1G11G14G15G19G22G25
  -5765671.64248  -4487913.10744  22755464.8414   22755460.7004
      1733.2664
  -4114758.57649  -3193133.98845  22110054.4274   22110048.2944
       835.3284
   5939511.79749   4612664.68745  21389575.8724   21389570.4074
     -2758.4374
  11392176.20348   8843518.16742  23809470.1304   23809467.3564
     -4643.5784
   8124826.55147   6308044.16342  24161946.4354   24161940.1424
     -3487.1724
   7512526.20648   5830245.74744  23144675.8334   23144668.6574
     -3114.2344
  -5810570.60849  -4513609.57745  21919254.7554   21919250.1614
      1604.0944
 04  9  2 15 45 30.0010000  0  7G 1G11G14G15G19G22G25
  -5791631.18249  -4508141.29143  22750525.0834   22750520.9744
      1727.6414
  -4127220.71349  -3202844.74544  22107683.1064   22107676.2944
       826.1414
   5980929.01149   4644937.82545  21397457.5364   21397451.0634
     -2764.0944
  11461857.51247   8897815.28142  23822730.2864   23822727.4234
     -4647.5004
   8177163.81647   6348826.41542  24171906.3104   24171899.8564
     -3491.3124
   7559267.35048   5866667.37444  23153570.0834   23153562.9274
     -3118.1564
  -5834574.51849  -4532313.90445  21914687.0134   21914681.9894
      1596.2504
 04  9  2 15 45 45.0010000  0  7G 1G11G14G15G19G22G25
  -5817509.31549  -4528306.06543  22745600.5914   22745596.3684
      1722.5474
  -4139549.62149  -3212451.68645  22105337.0674   22105330.6344
       817.5314
   6022426.84449   4677273.79445  21405354.0364   21405348.2514
     -2769.2034
  11531592.60747   8952154.25242  23836000.3494   23835997.3174
     -4650.7194
   8229558.98247   6389653.76742  24181876.2554   24181870.3924
     -3494.9064
   7606064.45648   5903132.62744  23162475.2244   23162468.4114
     -3121.7344
  -5858464.51149  -4550929.46845  21910140.8494   21910135.7204
      1588.9064
 04  9  2 15 46  0.0010000  0  7G 1G11G14G15G19G22G25
  -5843300.96648  -4548403.44843  22740692.8024   22740688.3414
      1716.3754
  -4151740.16249  -3221950.82745  22103017.2864   22103011.0634
       807.9534
   6064010.05349   4709676.27145  21413267.0994   21413261.3254
     -2775.2664
  11601386.24247   9006538.85942  23849282.1384   23849278.9744
     -4654.9694
   8282016.53547   6430529.78342  24191859.4584   24191853.1774
     -3499.4374
   7652922.42848   5939645.31943  23171391.8334   23171384.2824
     -3126.0004
  -5882235.46249  -4569452.26345  21905617.3884   21905612.0364
      1580.6094
 04  9  2 15 46 15.0010000  0  7G 1G11G14G15G19G22G25
  -5869009.52748  -4568436.07344  22735800.4744   22735796.2164
      1711.2194
  -4163795.45849  -3231344.55845  22100722.8564   22100716.6264
       799.2504
   6105674.99349   4742142.46145  21421195.9274   21421189.5054
     -2780.4374
  11671234.68247   9060966.18742  23862572.9584   23862570.7004
     -4658.3124
   8334532.66047   6471451.38542  24201852.3564   24201846.2164
     -3502.9844
   7699837.80248   5976202.72444  23180319.7164   23180312.7984
     -3129.5784
  -5905890.52049  -4587884.75745  21901115.7634   21901111.0604
      1573.1724
 04  9  2 15 46 30.0010000  0  7G 1G11G14G15G19G22G25
  -5894636.90148  -4588405.44444  22730923.7784   22730919.2714
      1705.8284
  -4175717.24149  -3240634.26545  22098454.4034   22098447.5874
       790.3914
   6147419.45149   4774670.60445  21429139.2474   21429133.3534
     -2785.5624
  11741135.67047   9115434.40142  23875875.2864   23875872.9704
     -4661.6724
   8387105.03147   6512416.82042  24211856.9354   24211850.5244
     -3506.6874
   7746808.61948   6012803.33343  23189257.8254   23189251.1534
     -3133.2194
  -5929431.37949  -4606228.26045  21896636.0914   21896631.0324
      1565.6254
 04  9  2 15 46 45.0010000  0  7G 1G11G14G15G19G22G25
  -5920182.34448  -4608310.96443  22726062.2244   22726058.4894
      1700.1724
  -4187504.67949  -3249819.27845  22096211.3024   22096205.1034
       781.2194
   6189243.87649   4807261.03545  21437098.3104   21437092.3334
     -2791.0474
  11811089.57047   9169943.88242  23889187.6224   23889183.8604
     -4665.4064
   8439733.98247   6553426.37042  24221871.2634   24221865.0954
     -3510.6094
   7793835.46049   6049447.59444  23198207.0134   23198200.5564
     -3137.1094
  -5952857.11849  -4624482.07245  21892178.4974   21892173.9624
      1557.7504
 04  9  2 15 47  0.0010000  0  7G 1G11G14G15G19G22G25
  -5945642.44848  -4628150.01443  22721217.7314   22721213.4154
      1694.6254
  -4199154.25549  -3258896.87545  22093994.4664   22093988.1494
       772.1414
   6231151.38949   4839916.22845  21445072.9584   21445067.0754
     -2796.5164
  11881099.45847   9224496.99042  23902509.7784   23902506.6694
     -4669.0944
   8492422.43647   6594482.28242  24231898.1224   24231892.1614
     -3514.5004
   7840921.75248   6086138.19444  23207167.5914   23207160.6924
     -3140.8754
  -5976164.06549  -4642643.31745  21887743.0674   21887738.3924
      1549.9224
 04  9  2 15 47 15.0010000  0  7G 1G11G14G15G19G22G25
  -5971017.88548  -4647923.06044  22716389.0134   22716384.4664
      1688.6094
  -4210666.56949  -3267867.50744  22091803.8644   22091797.3104
       762.6414
   6273140.96449   4872635.37246  21453063.5674   21453057.3924
     -2802.3124
  11951164.22047   9279092.85742  23915842.1614   23915839.4544
     -4673.1094
   8545169.17647   6635583.58942  24241935.2714   24241928.6614
     -3518.6564
   7888066.66249   6122874.46044  23216138.7474   23216132.0484
     -3145.2504
  -5999352.80749  -4660712.44645  21883330.5444   21883325.3454
      1541.7034
 04  9  2 15 47 30.0010000  0  7G 1G11G14G15G19G22G25
  -5996306.14248  -4667628.17043  22711576.7084   22711572.3924
      1682.9694
  -4222039.03049  -3276729.17544  22089639.6304   22089633.6464
       753.5634
   6315214.82049   4905420.18445  21461069.7164   21461063.8294
     -2807.7194
  12021286.07947   9333733.21342  23929186.3334   23929183.3174
     -4676.6874
   8597976.46247   6676732.08342  24251983.9274   24251978.1734
     -3522.4844
   7935272.56149   6159658.25244  23225121.6854   23225115.5174
     -3149.0314
  -6022420.62049  -4678687.34245  21878940.8494   21878935.9074
      1533.7664
 04  9  2 15 47 45.0010000  0  7G 1G11G14G15G19G22G25
  -6021511.81448  -4687268.94244  22706779.9664   22706775.6574
      1677.3754
  -4233275.91249  -3285485.18745  22087501.3334   22087495.1884
       744.3594
   6357368.14349   4938266.91145  21469091.6384   21469085.2124
     -2813.1094
  12091460.07547   9388414.20042  23942539.7864   23942537.3294
     -4680.2344
   8650839.10847   6717923.69342  24262043.8104   24262037.9114
     -3526.2194
   7982534.88349   6196486.00143  23234115.5214   23234109.0754
     -3152.9694
  -6045371.88649  -4696571.44045  21874573.6224   21874568.3684
      1525.9384
 04  9  2 15 48  0.0010000  0  7G 1G11G14G15G19G22G25
  -6046635.41848  -4706845.77344  22701999.2864   22701995.0214
      1672.3444
  -4244377.69849  -3294135.93545  22085388.9894   22085382.5324
       735.7664
   6399599.97349   4971174.81245  21477128.0284   21477121.6144
     -2817.8444
  12161685.18947   9443135.03342  23955903.5284   23955900.5794
     -4683.1724
   8703756.05747   6759157.68042  24272113.1854   24272107.4424
     -3529.4534
   8029852.99849   6233357.24843  23243120.1304   23243113.5284
     -3156.2504
  -6068206.94749  -4714364.97045  21870228.0524   21870222.9504
      1518.6564
 04  9  2 15 48 15.0010000  0  7G 1G11G14G15G19G22G25
  -6071674.20648  -4726356.49344  22697234.6854   22697229.7744
      1665.6564
  -4255341.57149  -3302679.21845  22083302.4194   22083295.9584
       725.5004
   6441912.87249   5004145.89445  21485179.9584   21485173.6224
     -2824.3444
  12231963.87447   9497897.56442  23969277.1924   23969274.2244
     -4687.8284
   8756729.58446   6800435.70842  24282193.4034   24282188.2204
     -3534.1254
   8077229.56449   6270274.02543  23252135.3804   23252129.1814
     -3161.1564
  -6090922.75549  -4732065.58945  21865905.6144   21865900.7514
      1509.5634
 04  9  2 15 48 30.0010000  0  7G 1G11G14G15G19G22G25
  -6096620.11048  -4745794.85944  22692487.6614   22692483.2904
      1660.0784
  -4266159.17149  -3311108.51445  22081243.8334   22081237.5324
       716.3444
   6484314.68749   5037186.25645  21493248.6064   21493242.2984
     -2829.7194
  12302303.90047   9552707.94942  23982662.8174   23982659.8334
     -4691.3124
   8809767.45947   6841763.91442  24292286.8804   24292280.5714
     -3537.9534
   8124672.61148   6307242.61144  23261163.6144   23261156.9894
     -3165.0624
  -6113511.00749  -4749666.80945  21861606.9744   21861602.0994
      1501.6564
 04  9  2 15 48 45.0010000  0  7G 1G11G14G15G19G22G25
  -6121484.82248  -4765169.95844  22687756.0674   22687751.5484
      1654.9534
  -4276842.11049  -3319432.88844  22079210.7244   22079204.4384
       707.6724
   6526793.31249   5070286.47045  21501332.0364   21501325.9854
     -2834.4374
  12372693.13247   9607556.62242  23996057.0524   23996054.4354
     -4694.2664
   8862857.45347   6883132.71042  24302389.0444   24302384.0324
     -3541.0624
   8172170.24549   6344253.73543  23270201.4974   23270195.5714
     -3168.3124
  -6135983.41849  -4767177.75445  21857330.5284   21857325.5444
      1494.3284
 04  9  2 15 49  0.0010000  0  7G 1G11G14G15G19G22G25
  -6146267.67748  -4784481.24943  22683040.1614   22683035.6494
      1649.5474
  -4287389.55249  -3327651.68144  22077203.7314   22077197.2314
       698.6884
   6569349.16249   5103446.86145  21509430.1694   21509423.8104
     -2839.5624
  12443131.81147   9662443.91142  24009460.9424   24009458.4464
     -4697.4694
   8915999.87147   6924542.37242  24312501.5994   24312496.1614
     -3544.5314
   8219723.08248   6381307.87243  23279250.9894   23279244.3134
     -3171.9224
  -6158338.87849  -4784597.58545  21853076.5284   21853071.3334
      1486.5314
 04  9  2 15 49 15.0010000  0  7G 1G11G14G15G19G22G25
  -6170966.79148  -4803727.29943  22678339.4664   22678335.5444
      1643.9534
  -4297799.58449  -3335763.40145  22075222.7944   22075216.4464
       689.5944
   6611983.80249   5136668.65345  21517543.3644   21517537.2744
     -2844.7344
  12513621.57747   9717370.91442  24022875.1064   24022872.2284
     -4700.8914
   8969195.96847   6965993.85342  24322624.8724   24322619.4274
     -3548.0164
   8267332.94049   6418406.43543  23288310.4584   23288303.8024
     -3175.7974
  -6180575.46649  -4801924.77845  21848845.0604   21848839.9504
      1478.6094
 04  9  2 15 49 30.0010000  0  7G 1G11G14G15G19G22G25
  -6195582.14748  -4822908.09843  22673655.4744   22673651.3924
      1638.3444
  -4308071.97049  -3343767.86445  22073268.1854   22073261.7244
       680.2814
   6654697.02449   5169951.66045  21525671.2164   21525665.0914
     -2850.0784
  12584162.03247   9772337.44742  24036298.8024   24036295.6694
     -4704.3124
   9022445.46246   7007486.91242  24332758.2554   24332752.1494
     -3551.6094
   8314999.77749   6455549.39543  23297381.6144   23297375.0794
     -3179.6094
  -6202693.02549  -4819159.21545  21844636.3724   21844631.1854
      1470.5944
 04  9  2 15 49 45.0010000  0  7G 1G11G14G15G19G22G25
  -6220119.14248  -4842027.83744  22668986.4194   22668981.6494
      1632.9064
  -4318211.95849  -3351669.15445  22071338.4504   22071332.2434
       671.1564
   6697483.05249   5203291.40845  21533813.3564   21533807.0014
     -2855.2194
  12654747.38647   9827338.96942  24049730.5364   24049727.4974
     -4707.6414
   9075742.39947   7049016.94842  24342900.3494   24342894.0914
     -3555.1724
   8362718.11749   6492732.49743  23306461.9424   23306455.4314
     -3183.3754
  -6224696.72949  -4836304.96245  21840449.1774   21840443.7944
      1462.6564
 04  9  2 15 50  0.0010000  0  7G 1G11G14G15G19G22G25
  -6244573.53448  -4861083.18744  22664333.1304   22664328.4314
      1627.7194
  -4328215.26949  -3359463.94745  22069435.0134   22069428.6464
       662.5164
   6740345.82849   5236690.97045  21541969.9274   21541963.6534
     -2859.8754
  12725381.54247   9882378.53142  24063171.7554   24063168.8374
     -4710.3754
   9129090.51047   7090586.87342  24353051.7784   24353046.3844
     -3558.0944
   8410492.10048   6529958.95843  23315553.2394   23315546.3724
     -3186.5944
  -6246582.11449  -4853358.48245  21836284.2944   21836279.3024
      1455.2504
 04  9  2 15 50 15.0010000  0  7G 1G11G14G15G19G22G25
  -6268948.44748  -4880076.62144  22659694.6224   22659689.8884
      1622.1414
  -4338084.89149  -3367154.56445  22067556.7864   22067550.4424
       653.2974
   6783281.95949   5270147.67645  21550140.0604   21550134.1424
     -2865.0314
  12796061.09847   9937453.42442  24076621.6534   24076618.5874
     -4713.6724
   9182486.41446   7132194.09642  24363212.9584   24363207.1494
     -3561.4374
   8458318.49949   6567226.25643  23324654.1224   23324647.7164
     -3190.3594
  -6268352.01149  -4870322.02745  21832141.6534   21832136.4744
      1447.2974
 04  9  2 15 50 30.0010000  0  7G 1G11G14G15G19G22G25
  -6293243.61048  -4899007.91144  22655071.4114   22655067.2004
      1616.9224
  -4347820.44049  -3374740.70945  22065704.3884   22065697.7594
       644.4384
   6826291.34849   5303661.47645  21558324.7004   21558318.4154
     -2869.8754
  12866785.89347   9992563.64142  24090080.7784   24090077.2354
     -4716.5784
   9235929.84246   7173838.28942  24373383.0754   24373376.6184
     -3564.6564
   8506197.50949   6604534.55743  23333765.4424   23333758.5954
     -3193.7974
  -6290006.02249  -4887195.27045  21828021.0284   21828015.9744
      1439.5944
 04  9  2 15 50 45.0010000  0  7G 1G11G14G15G19G22G25
  -6317460.41348  -4917878.13144  22650463.0444   22650458.3334
      1612.0004
  -4357423.07449  -3382223.27545  22063876.9034   22063870.3064
       635.7974
   6869372.40249   5337231.11745  21566522.4664   21566516.7124
     -2874.3444
  12937554.04547  10047707.61642  24103547.3564   24103544.0954
     -4719.2034
   9289418.97646   7215518.10242  24383561.0214   24383556.2244
     -3567.3124
   8554127.64549   6641882.68643  23342886.1224   23342879.3214
     -3196.9224
  -6311545.31349  -4903979.12045  21823922.0524   21823916.9034
      1432.2194
 04  9  2 15 51  0.0010000  0  7G 1G11G14G15G19G22G25
  -6341596.41648  -4936685.38544  22645870.0444   22645865.8454
      1605.9224
  -4366890.32849  -3389600.36644  22062075.2784   22062068.9314
       626.2034
   6912527.24749   5370858.25245  21574734.9664   21574729.1494
     -2879.8754
  13008367.69947  10102887.04742  24117022.3104   24117019.2784
     -4722.8444
   9342955.71746   7257234.99042  24393749.2554   24393743.0324
     -3571.0944
   8602111.36249   6679272.57243  23352017.3334   23352010.4074
     -3201.0784
  -6332967.32449  -4920671.59145  21819845.6924   21819840.2244
      1423.8444
 04  9  2 15 51 15.0010000  0  7G 1G11G14G15G19G22G25
  -6365649.55448  -4955428.08544  22641293.2474   22641288.4744
      1600.7344
  -4376219.98049  -3396870.22844  22060300.1534   22060293.5484
       617.3444
   6955757.68249   5404544.28745  21582961.3564   21582955.3454
     -2884.5164
  13079228.67847  10158103.32442  24130506.9814   24130504.0054
     -4725.6874
   9396541.80246   7298990.37842  24403945.7634   24403940.4074
     -3574.1874
   8650150.54749   6716705.66743  23361158.7084   23361152.4274
     -3204.5474
  -6354269.89449  -4937270.97745  21815792.0834   21815786.9154
      1416.1094
 04  9  2 15 51 30.0010000  0  7G 1G11G14G15G19G22G25
  -6389623.79548  -4974109.31744  22636730.8174   22636726.2124
      1595.4844
  -4385415.77449  -3404035.79145  22058550.0214   22058543.4464
       608.4694
   6999059.51649   5438285.96445  21591201.3724   21591195.2864
     -2889.2814
  13150132.66047  10213353.13742  24143999.1854   24143996.5014
     -4728.5474
   9450172.75246   7340780.65042  24414152.1924   24414145.9584
     -3576.9064
   8698241.25449   6754178.92343  23370310.2944   23370303.2474
     -3207.9064
  -6375456.72049  -4953780.18845  21811760.2864   21811754.6734
      1408.4384
 04  9  2 15 51 45.0010000  0  7G 1G11G14G15G19G22G25
  -6413520.48148  -4992730.09444  22632183.1224   22632178.8254
      1590.3914
  -4394479.02849  -3411098.07245  22056825.2084   22056819.0174
       599.8134
   7042430.95049   5472081.87045  21599454.7944   21599448.5994
     -2893.7974
  13221077.88947  10268635.08842  24157499.7634   24157496.6224
     -4731.0784
   9503846.60246   7382604.44142  24424365.5284   24424359.6774
     -3579.6564
   8746381.87949   6791691.07343  23379470.9584   23379464.1104
     -3211.1094
  -6396528.88649  -4970200.04045  21807750.2714   21807744.9934
      1400.9064
 04  9  2 15 52  0.0010000  0  7G 1G11G14G15G19G22G25
  -6437338.45748  -5011289.53044  22627650.7004   22627646.4854
      1585.0164
  -4403408.43549  -3418056.04945  22055126.2474   22055119.8644
       590.5944
   7085873.03949   5505932.83445  21607721.3334   21607715.5014
     -2898.7664
  13292065.21247  10323949.85542  24171008.6534   24171005.2084
     -4734.1254
   9557564.32946   7424462.34242  24434587.9354   24434581.8024
     -3582.9064
   8794573.62348   6829243.04743  23388641.3254   23388634.7084
     -3214.7194
  -6417484.90349  -4986529.39045  21803762.5054   21803757.3764
      1392.9534
 04  9  2 15 52 15.0010000  0  7G 1G11G14G15G19G22G25
  -6461079.90648  -5029789.34544  22623132.1694   22623128.2824
      1580.1724
  -4412206.02949  -3424911.32445  22053451.8964   22053445.8454
       582.2034
   7129383.26749   5539836.90645  21616001.2554   21615995.3804
     -2902.9224
  13363092.06147  10379295.36842  24184524.2864   24184521.6034
     -4736.4064
   9611323.22646   7466352.39942  24444817.3174   24444812.1344
     -3585.3284
   8842814.19949   6866833.09243  23397821.0914   23397814.4154
     -3217.6094
  -6438326.93749  -5002769.92245  21799796.6224   21799791.2784
      1385.6564
 04  9  2 15 52 30.0010000  0  7G 1G11G14G15G19G22G25
  -6484745.38049  -5048229.96944  22618629.4894   22618625.0284
      1574.8914
  -4420872.31349  -3431664.27745  22051802.5524   22051796.3604
       573.0314
   7172960.74449   5573793.36545  21624293.8564   21624287.6854
     -2907.6564
  13434157.31247  10434670.84742  24198047.3724   24198044.7204
     -4739.2194
   9665122.15845   7508273.57642  24455056.0604   24455049.3064
     -3588.1564
   8891102.92448   6904460.63943  23407010.0284   23407003.5874
     -3221.0944
  -6459055.44149  -5018921.99345  21795852.0134   21795846.6464
      1377.8914
 04  9  2 15 52 45.0010000  0  6G 1G11G14G15G22G25
  -6508336.24748  -5066612.44644  22614140.7314   22614136.1734
      1570.3444
  -4429408.40749  -3438315.77645  22050178.6304   22050172.4034
       564.8594
   7216603.76049   5607800.88845  21632598.7474   21632592.3844
     -2911.6094
  13505259.35647  10490075.01342  24211577.6774   24211574.7784
     -4741.1564
   8939438.37148   6942124.58743  23416208.2474   23416201.5324
     -3223.8284
  -6479671.52349  -5034986.44645  21791928.7634   21791923.6694
      1370.8284
 04  9  2 15 53  0.0010000  0  6G 1G11G14G15G22G25
  -6531851.35848  -5084935.89644  22609665.7634   22609660.6534
      1565.2664
  -4437813.16049  -3444864.92745  22048579.0834   22048572.8494
       556.1094
   7260313.22149   5641860.20445  21640915.8964   21640910.2394
     -2915.9844
  13576399.05747  10545508.50041  24225114.8884   24225112.1104
     -4743.7344
   8987821.71448   6979825.89543  23425415.6854   23425408.6264
     -3227.0314
  -6500173.86349  -5050962.27745  21788027.5604   21788022.1854
      1363.1414
 04  9  2 15 53 15.0010000  0  6G 1G11G14G15G22G25
  -6555288.51549  -5103198.63444  22605206.0994   22605201.5564
      1559.9694
  -4446084.26449  -3451309.95745  22047005.3024   22046998.8254
       547.0314
   7304091.12949   5675972.84545  21649247.0754   21649241.1104
     -2920.8124
  13647578.24647  10600972.72842  24238659.8414   24238657.6384
     -4746.5314
   9036254.98549   7017566.05443  23434631.9504   23434625.2244
     -3230.5164
  -6520560.05849  -5066847.61445  21784148.1384   21784142.9034
      1355.2504
 04  9  2 15 53 30.0010000  0  6G 1G11G14G15G22G25
  -6578647.33748  -5121400.27444  22600760.9744   22600756.0054
      1554.8444
  -4454221.09949  -3457650.36045  22045456.7554   22045450.3604
       538.1094
   7347937.47549   5710138.81945  21657590.6384   21657585.1224
     -2925.2344
  13718796.93447  10656467.76942  24252212.5524   24252209.7784
     -4749.0624
   9084738.54849   7055345.42943  23443858.4664   23443851.3924
     -3233.7034
  -6540829.61049  -5082642.06545  21780291.3104   21780285.8494
      1347.5004
 04  9  2 15 53 45.0010000  0  6G 1G11G14G15G22G25
  -6601929.99648  -5139542.60044  22596330.2784   22596325.7244
      1549.8594
  -4462225.77949  -3463887.78045  22043933.6304   22043927.9854
       529.4224
   7391849.87249   5744356.26445  21665947.0214   21665940.9504
     -2929.4534
  13790052.62447  10711991.62642  24265772.3414   24265769.7744
     -4751.4534
   9133270.14749   7093162.23043  23453093.6614   23453086.8964
     -3236.7974
  -6560984.36049  -5098347.04245  21776455.4974   21776450.2204
      1340.0784
 04  9  2 15 54  0.0010000  0  6G 1G11G14G15G22G25
  -6625141.52349  -5157629.49344  22591912.9194   22591908.5954
      1544.9844
  -4470103.16449  -3470026.00545  22042434.3884   22042428.5874
       520.7974
   7435822.95749   5778620.97745  21674314.7004   21674309.0794
     -2933.7194
  13861339.87447  10767540.08242  24279337.7784   24279335.3334
     -4753.6094
   9181844.70249   7131012.51243  23462336.6224   23462330.0634
     -3239.9224
  -6581029.07449  -5113966.28845  21772641.3564   21772635.4464
      1332.5784
 04  9  2 15 54 15.0010000  0  6G 1G11G14G15G22G25
  -6648275.71548  -5175656.12944  22587510.8494   22587506.4784
      1539.8594
  -4477846.95349  -3476060.13345  22040961.1774   22040954.5994
       511.9534
   7479862.72549   5812937.66845  21682695.2164   21682689.4384
     -2938.0944
  13932664.56247  10823117.71042  24292910.9894   24292907.8454
     -4756.0944
   9230468.24249   7168900.96043  23471589.7554   23471583.3994
     -3243.0474
  -6600957.55049  -5129494.94846  21768848.8254   21768843.3724
      1324.8134
 04  9  2 15 54 30.0010000  0  6G 1G11G14G15G22G25
  -6671336.63848  -5193625.66344  22583122.2474   22583118.0604
      1534.8134
  -4485461.12349  -3481993.25245  22039512.3174   22039506.1574
       503.2034
   7523964.83249   5847302.94045  21691087.4354   21691081.7204
     -2942.3914
  14004022.22147  10878721.04242  24306489.1304   24306486.9354
     -4758.4374
   9279136.69648   7206824.39943  23480851.0674   23480844.8924
     -3246.2034
  -6620773.65049  -5144936.04846  21765078.0674   21765072.5954
      1317.2344
 04  9  2 15 54 45.0010000  0  6G 1G11G14G15G22G25
  -6694319.39648  -5211534.27144  22578749.0834   22578744.1144
      1529.7034
  -4492940.52849  -3487821.36845  22038088.8024   22038082.4854
       494.2504
   7568133.80249   5881720.30445  21699492.6384   21699487.1654
     -2946.7034
  14075417.40346  10934353.55442  24320075.3964   24320073.1574
     -4760.7504
   9327854.81349   7244786.54043  23490121.7474   23490115.6424
     -3249.3754
  -6640472.18949  -5160285.54145  21761329.5834   21761324.4664
      1309.4384
 04  9  2 15 55  0.0010000  0  6G 1G11G14G15G22G25
  -6717230.06348  -5229386.75144  22574389.0524   22574384.9894
      1524.7974
  -4500291.19449  -3493549.15345  22036689.9814   22036683.5444
       485.5784
   7612363.37449   5916184.89845  21707909.5214   21707903.4974
     -2950.8284
  14146843.71446  10990010.40242  24333668.3104   24333665.3724
     -4762.8594
   9376616.48449   7282782.64343  23499401.1304   23499394.4154
     -3252.3754
  -6660059.18649  -5175548.12745  21757602.3334   21757596.7084
      1301.9384
 04  9  2 15 55 15.0010000  0  5G 1G11G14G22G25
  -6740063.48448  -5247178.99944  22570044.0284   22570039.6574
      1519.7974
  -4507507.79849  -3499172.49345  22035316.9194   22035310.3994
       476.8134
   7656658.47249   5950700.54745  21716338.0994   21716332.5324
     -2955.0314
   9425426.74149   7320816.56443  23508689.2314   23508682.8604
     -3255.4534
  -6679529.21849  -5190719.56646  21753897.1854   21753891.9664
      1294.3134
 04  9  2 15 55 30.0010000  0  5G 1G11G14G22G25
  -6762822.79448  -5264913.52344  22565713.3804   22565708.4814
      1514.8444
  -4514593.49149  -3504693.80945  22033968.4034   22033962.4544
       468.0164
   7701015.55349   5985264.50145  21724779.2394   21724773.2554
     -2959.1724
   9474282.40649   7358885.87743  23517986.6144   23517979.6034
     -3258.5474
  -6698885.20049  -5205802.13145  21750214.0604   21750208.4274
      1286.5784
 04  9  2 15 55 45.0010000  0  5G 1G11G14G22G25
  -6785509.23448  -5282591.25044  22561395.9424   22561391.7474
      1509.7664
  -4521549.30149  -3510113.93245  22032644.5444   22032638.3804
       459.2034
   7745433.17449   6019875.62245  21733231.6534   21733225.9384
     -2963.3914
   9523182.17449   7396989.55843  23527291.4584   23527284.9704
     -3261.6724
  -6718128.18049  -5220796.65245  21746551.9034   21746546.6344
      1278.8594
 04  9  2 15 56  0.0010000  0  5G 1G11G14G22G25
  -6808119.76648  -5300209.83244  22557093.1694   22557088.9234
      1504.7344
  -4528371.97949  -3515430.30545  22031346.3494   22031340.2124
       450.2974
   7789914.15849   6054536.11845  21741695.8964   21741690.4504
     -2967.6094
   9572129.08149   7435129.98343  23536605.9424   23536598.9854
     -3264.7814
  -6737254.90449  -5235700.56745  21742912.4744   21742906.9274
      1271.1414
 04  9  2 15 56 15.0010000  0  5G 1G11G14G22G25
  -6830654.98848  -5317769.73744  22552804.9584   22552800.3684
      1499.8914
  -4535062.09149  -3520643.39045  22030073.2714   22030067.1064
       441.6414
   7834457.58449   6089245.26645  21750172.2944   21750166.9464
     -2971.6254
   9621122.38349   7473306.56843  23545929.2314   23545922.3064
     -3267.7344
  -6756265.91749  -5250514.33845  21739294.7944   21739289.1574
      1263.5634
 04  9  2 15 56 30.0010000  0  5G 1G11G14G22G25
  -6853117.47649  -5335272.96044  22548530.7244   22548526.1534
      1495.0784
  -4541621.96749  -3525754.98745  22028824.9974   22028818.4934
       432.9694
   7879060.66249   6124000.90145  21758660.3414   21758654.2784
     -2975.5314
   9670159.58349   7511517.34043  23555260.6534   23555253.7714
     -3270.6564
  -6775163.52849  -5265239.73845  21735698.4504   21735693.3064
      1256.0474
 04  9  2 15 56 45.0010000  0  5G 1G11G14G22G25
  -6875504.57648  -5352717.44244  22544270.4354   22544265.7084
      1490.1414
  -4548049.03449  -3530763.09145  22027601.9504   22027595.8414
       424.1724
   7923725.62049   6158804.75545  21767159.7394   21767153.6774
     -2979.5314
   9719243.11249   7549764.22343  23564600.6774   23564593.8684
     -3273.6094
  -6793944.90849  -5279874.55645  21732124.1384   21732119.1464
      1248.3754
 04  9  2 15 57  0.0010000  0  5G 1G11G14G22G25
  -6897818.67549  -5370105.03944  22540024.2554   22540019.6384
      1484.8914
  -4554345.49549  -3535669.43645  22026403.9424   22026397.6574
       415.1414
   7968449.86549   6193654.80545  21775670.3884   21775664.2514
     -2983.8754
   9768370.49549   7588045.26443  23573949.2944   23573942.6384
     -3276.8444
  -6812612.40049  -5294420.64045  21728572.1064   21728566.4584
      1240.4384
 04  9  2 15 57 15.0010000  0  5G 1G11G14G22G25
  -6920059.63749  -5387435.64544  22535792.1304   22535787.2474
      1480.2814
  -4560511.17049  -3540473.85745  22025230.3724   22025224.0874
       406.6724
   8013233.17749   6228550.88545  21784192.1694   21784186.3454
     -2987.5784
   9817541.78748   7626360.53943  23583306.6924   23583299.8374
     -3279.5474
  -6831165.62349  -5308877.67645  21725041.7394   21725036.1924
      1233.0164
 04  9  2 15 57 30.0010000  0  5G 1G11G14G22G25
  -6942226.24649  -5404708.32144  22531573.8804   22531569.0214
      1475.5004
  -4566544.67149  -3545175.29845  22024082.4354   22024076.2084
       398.0004
   8058076.61949   6263493.81145  21792725.7244   21792719.7004
     -2991.4064
   9866758.10648   7664710.88943  23592672.0444   23592665.2784
     -3282.3914
  -6849603.04449  -5323244.48145  21721533.0524   21721527.5444
      1225.5004
 04  9  2 15 57 45.0010000  0  6G 1G20G11G14G22G25
  -6964318.45449  -5421923.00644  22527369.5214   22527364.7394
      1470.5164
    -76004.18456    -51236.15352  24533289.9894   24533284.8924
      2166.5474
  -4572445.87749  -3549773.63745  22022959.4504   22022953.1774
       389.1414
   8102979.96649   6298483.42745  21801270.8414   21801264.8024
     -2995.4534
   9916019.47849   7703096.34743  23602046.2714   23602039.0994
     -3285.4694
  -6867924.52349  -5337520.94345  21718047.0914   21718041.0364
      1217.7034
 04  9  2 15 58  0.0010000  0  6G 1G20G11G14G22G25
  -6986338.18249  -5439081.22444  22523179.4744   22523174.8924
      1465.4384
   -108499.34846    -76557.08542  24527106.6144   24527101.1734
      2166.0634
  -4578216.47049  -3554270.20945  22021861.0994   22021855.1884
       380.2664
   8147940.95049   6333517.94445  21809826.6534   21809820.4744
     -2999.4534
   9965323.89248   7741515.33943  23611428.5054   23611421.5954
     -3288.4844
  -6886131.84849  -5351708.45545  21714581.7314   21714576.3254
      1209.9534
 04  9  2 15 58 15.0010000  0  6G 1G20G11G14G22G25
  -7008281.60349  -5456179.98944  22519003.7944   22518999.2354
      1460.5474
   -140985.40146   -101870.97442  24520924.5524   24520919.7084
      2165.5004
  -4583852.57949  -3558661.98745  22020788.7474   22020782.4154
       371.4844
   8192963.32149   6368600.30545  21818394.0914   21818387.8844
     -3003.4064
  10014675.13348   7779970.81243  23620819.7864   23620813.4624
     -3291.4374
  -6904221.03449  -5365803.90745  21711139.6304   21711134.7984
      1202.1724
 04  9  2 15 58 30.0010000  0  6G 1G20G11G14G22G25
  -7030151.78549  -5473221.67544  22514841.6224   22514836.9784
      1455.2194
   -173465.53047   -127180.06642  24514744.3024   24514738.9274
      2164.7344
  -4589357.04749  -3562951.18245  22019741.4504   22019735.2004
       362.2194
   8238043.63049   6403727.79845  21826972.5214   21826966.5404
     -3007.6414
  10064070.07349   7818460.36243  23630219.2394   23630212.5954
     -3294.8124
  -6922194.79449  -5379809.42245  21707719.3564   21707713.9234
      1194.0314
 04  9  2 15 58 45.0010000  0  6G 1G20G11G14G22G25
  -7051951.00349  -5490208.07344  22510693.5214   22510689.3254
      1450.8914
   -205941.94946   -152486.39042  24508564.3414   24508558.3564
      2164.9534
  -4594732.28549  -3567139.67945  22018718.3564   22018712.3884
       353.9694
   8283179.24849   6438898.40245  21835561.5214   21835555.7554
     -3010.9064
  10113506.25848   7856982.01643  23639626.7554   23639620.6654
     -3297.2034
  -6940055.44149  -5393726.80045  21704320.7164   21704315.1654
      1186.8914
 04  9  2 15 59  0.0010000  0  6G 1G20G11G14G22G25
  -7073674.83549  -5507135.72544  22506559.6064   22506555.3454
      1445.8134
   -238410.21547   -177786.33142  24502385.2084   24502379.9114
      2164.3594
  -4599973.70949  -3571223.92245  22017720.8104   22017714.6734
       345.0474
   8328374.44249   6474115.41745  21844162.0444   21844155.8024
     -3014.9844
  10162988.14148   7895539.31543  23649043.0914   23649036.4114
     -3300.2034
  -6957798.31649  -5407552.40146  21700944.1924   21700938.7944
      1179.0314
 04  9  2 15 59 15.0010000  0  6G 1G20G11G14G22G25
  -7095324.68649  -5524005.71344  22502439.8884   22502435.3374
      1440.8134
   -270871.54447   -203080.86942  24496208.3644   24496203.1184
      2163.8134
  -4605082.53249  -3575204.80345  22016748.7784   22016743.0754
       336.1884
   8373627.50249   6509377.53845  21852773.2554   21852767.0714
     -3018.8124
  10212514.26048   7934131.05243  23658467.3964   23658460.9624
     -3303.2034
  -6975424.56149  -5421287.11245  21697589.9114   21697584.3024
      1171.1094
 04  9  2 15 59 30.0010000  0  6G 1G20G11G14G22G25
  -7116900.01449  -5540817.65444  22498334.2314   22498329.6064
      1435.8594
   -303325.41046   -228369.54342  24490032.3644   24490027.5994
      2163.2194
  -4610057.99749  -3579081.81945  22015802.1064   22015795.9854
       327.1724
   8418938.68749   6544684.93545  21861395.9194   21861389.6694
     -3022.7034
  10262085.10748   7972757.64243  23667900.2004   23667893.7944
     -3306.2194
  -6992933.41849  -5434930.37346  21694258.2084   21694252.8494
      1163.3914
 04  9  2 15 59 45.0010000  0  6G 1G20G11G14G22G25
  -7138403.77649  -5557573.80744  22494242.3804   22494237.9934
      1431.5314
   -335774.76946   -253654.74542  24483857.3334   24483852.2714
      2163.4844
  -4614903.11349  -3582857.21745  22014880.0134   22014874.2354
       318.9534
   8464304.87649   6580035.19745  21870028.8724   21870022.1574
     -3025.9844
  10311697.61448   8011416.73743  23677341.3804   23677335.0054
     -3308.5944
  -7010327.61349  -5448484.26545  21690947.9894   21690942.5994
      1156.1094
 04  9  2 16  0  0.0010000  0  6G 1G20G11G14G22G25
  -7159832.94049  -5574271.84844  22490164.2084   22490159.9664
      1426.0634
   -368216.43245   -278933.99942  24477684.0834   24477678.6614
      2162.3914
  -4619614.69149  -3586528.59745  22013983.3494   22013977.7004
       309.5634
   8509728.69249   6615430.36345  21878672.5054   21878666.7004
     -3030.2034
  10361354.77948   8050110.60443  23686790.4894   23686784.3134
     -3312.0474
  -7027603.94049  -5461946.32545  21687660.4274   21687654.9234
      1147.7664
 04  9  2 16  0 15.0010000  0  6G 1G20G11G14G22G25
  -7181188.07049  -5590912.21144  22486100.6064   22486096.3214
      1421.0474
   -400651.02046   -304207.71542  24471512.1384   24471506.6694
      2162.0004
  -4624193.08549  -3590096.18045  22013112.4744   22013105.9894
       300.6254
   8555209.36949   6650869.83245  21887327.3494   21887321.0524
     -3034.0164
  10411055.89448   8088838.71343  23696248.3644   23696242.3024
     -3314.9374
  -7044763.03449  -5475317.04345  21684395.2634   21684389.8104
      1139.9064
 04  9  2 16  0 30.0010000  0  6G 1G20G11G14G22G25
  -7202468.97749  -5607494.73044  22482050.9974   22482046.3884
      1416.3754
   -433078.17047   -329475.60842  24465341.4584   24465335.9784
      2161.5784
  -4628638.05749  -3593559.79645  22012266.3964   22012260.3024
       291.9534
   8600746.84549   6686353.56545  21895992.9354   21895986.6964
     -3037.6414
  10460801.15348   8127601.22443  23705714.7084   23705708.8884
     -3317.6724
  -7061804.52649  -5488596.10246  21681152.4664   21681146.9784
      1132.2344
 04  9  2 16  0 45.0010000  0  6G 1G20G11G14G22G25
  -7223677.07549  -5624020.49944  22478015.2634   22478011.1304
      1411.3134
   -465499.28346   -354738.76542  24459172.0914   24459166.6064
      2161.1094
  -4632950.94749  -3596920.49045  22011445.6224   22011439.7084
       283.0634
   8646339.48249   6721880.29645  21904668.9114   21904662.6774
     -3041.4694
  10510589.05248   8166396.96743  23715188.8964   23715182.7514
     -3320.7344
  -7078729.57249  -5501784.43646  21677931.7004   21677926.6264
      1124.3754
 04  9  2 16  1  0.0010000  0  6G 1G20G11G14G22G25
  -7244811.87749  -5640489.15944  22473993.7714   22473988.8454
      1406.5944
   -497913.79647   -379996.85242  24453003.7244   24452998.3024
      2160.6884
  -4637131.13449  -3600177.78045  22010650.0134   22010643.8334
       274.2664
   8691987.42249   6757450.10245  21913355.0994   21913349.2004
     -3045.0314
  10560419.89648   8205226.17043  23724671.5604   23724665.3334
     -3323.4374
  -7095537.55049  -5514881.55846  21674733.1534   21674728.3924
      1116.6094
 04  9  2 16  1 15.0010000  0  6G 1G20G11G14G22G25
  -7265875.30149  -5656902.21044  22469985.2474   22469980.6384
      1401.7034
   -530323.56146   -405251.20842  24446835.5834   24446830.3764
      2160.2664
  -4641180.45149  -3603333.10645  22009879.7084   22009873.3644
       265.3284
   8737688.71649   6793061.47745  21922052.0054   21922046.0754
     -3048.7194
  10610291.85548   8244087.39843  23734161.8104   23734155.4784
     -3326.3914
  -7112230.07149  -5527888.70346  21671556.4194   21671551.1144
      1108.7664
 04  9  2 16  1 30.0010000  0  6G 1G20G11G14G22G25
  -7286863.03349  -5673256.27344  22465991.5754   22465987.0954
      1396.5944
   -562724.22846   -430498.44842  24440670.7394   24440665.2864
      2159.6884
  -4645094.54449  -3606383.04945  22009134.9504   22009128.5604
       256.3754
   8783447.18649   6828717.41345  21930759.3724   21930753.5634
     -3052.5944
  10660209.13448   8282983.95443  23743661.1774   23743654.6384
     -3329.3444
  -7128802.67349  -5540802.40646  21668403.0524   21668397.3644
      1100.7504
 04  9  2 16  1 45.0010000  0  6G 1G20G11G14G22G25
  -7307776.33949  -5689552.33844  22462011.5754   22462007.1964
      1391.8284
   -595116.85847   -455739.47342  24434506.5444   24434501.3494
      2159.3754
  -4648874.52249  -3609328.49245  22008415.6464   22008409.4384
       247.7034
   8829261.37249   6864416.76945  21939477.8254   21939471.9784
     -3056.0314
  10710170.35348   8321914.76643  23753168.2944   23753162.0954
     -3332.0314
  -7145256.43749  -5553623.50646  21665272.2714   21665266.8414
      1093.0784
 04  9  2 16  2  0.0010000  0  6G 1G20G11G14G22G25
  -7328614.60049  -5705789.94744  22458046.2864   22458041.8804
      1386.5474
   -627500.81847   -480973.70942  24428344.2784   24428338.2474
      2158.5004
  -4652519.57749  -3612168.79245  22007722.0994   22007715.9034
       238.3284
   8875131.74949   6900159.90045  21948206.5444   21948200.5364
     -3060.0784
  10760176.08548   8360880.22043  23762684.1224   23762677.3964
     -3335.3444
  -7161590.60749  -5566351.41445  21662163.4034   21662158.1964
      1084.8284
 04  9  2 16  2 15.0010000  0  6G 1G20G11G14G22G25
  -7349376.65549  -5721968.16544  22454095.7164   22454090.8994
      1381.8134
   -659874.97747   -506200.31742  24422183.1224   24422177.8254
      2158.1884
  -4656028.60749  -3614903.10545  22007054.5214   22007047.9934
       229.5944
   8921059.10649   6935947.44245  21956946.3254   21956940.1064
     -3063.5004
  10810227.47248   8399881.28643  23772208.4974   23772202.3104
     -3338.0624
  -7177803.98549  -5578985.20245  21659078.4274   21659072.9074
      1077.0314
 04  9  2 16  2 30.0010000  0  6G 1G20G11G14G22G25
  -7370068.82049  -5738091.92044  22450157.7084   22450153.4274
      1377.1254
   -692245.49347   -531424.09942  24416023.7394   24416018.2744
      2157.9064
  -4659407.57249  -3617536.06745  22006411.5604   22006404.9704
       220.9064
   8967036.89949   6971774.27445  21965695.5444   21965689.8064
     -3066.9064
  10860318.09548   8438912.89143  23781740.6464   23781734.5404
     -3340.6414
  -7193902.54749  -5591529.52746  21656014.5914   21656009.3294
      1069.3754
 04  9  2 16  2 45.0010000  0  6G 1G20G11G14G22G25
  -7390685.73849  -5754157.03944  22446234.3804   22446230.2354
      1371.7814
   -724606.96047   -556640.79942  24409865.6694   24409859.3374
      2156.9384
  -4662651.18649  -3620063.57045  22005794.1924   22005787.7354
       211.5474
   9013070.25949   7007644.41045  21974455.1924   21974449.4854
     -3070.9694
  10910453.26748   8477979.23543  23791280.8254   23791274.5994
     -3344.0004
  -7209880.94349  -5603980.21746  21652974.1304   21652969.1264
      1061.0314
 04  9  2 16  3  0.0010000  0  6G 1G20G11G14G22G25
  -7411227.42049  -5770163.54044  22442325.3564   22442321.0284
      1367.2344
   -756959.34147   -581850.46642  24403709.0524   24403703.4114
      2156.8594
  -4665759.30849  -3622485.47345  22005202.6854   22005196.4114
       203.0004
   9059158.96349   7043557.67945  21983225.7864   21983219.8764
     -3074.1724
  10960632.98348   8517080.30043  23800830.0134   23800823.3374
     -3346.4534
  -7225738.83249  -5616337.00045  21649956.3104   21649951.0484
      1053.4694
 04  9  2 16  3 15.0010000  0  6G 1G20G11G14G22G25
  -7431696.22749  -5786113.24244  22438430.5054   22438426.1424
      1362.0634
   -789304.90347   -607054.79542  24397553.8104   24397547.9814
      2156.1254
  -4668734.16649  -3624803.55045  22004636.4354   22004630.5094
       193.7664
   9105300.26849   7079511.92445  21992006.1464   21992000.3494
     -3077.9224
  11010854.70449   8556214.08943  23810386.6774   23810380.5284
     -3349.5784
  -7241478.37149  -5628601.55946  21646961.4194   21646956.3294
      1045.3134
 04  9  2 16  3 30.0010000  0  6G 1G20G11G14G22G25
  -7452088.20149  -5802003.09844  22434550.0214   22434545.5954
      1357.0314
   -821639.65146   -632250.69642  24391400.6924   24391395.3534
      2155.5164
  -4671571.68549  -3627014.61545  22004096.7784   22004090.1384
       184.7664
   9151498.01749   7115510.16345  22000797.4974   22000791.5174
     -3081.5164
  11061122.38748   8595383.65043  23819952.5444   23819946.3254
     -3352.5624
  -7257095.45049  -5640770.70146  21643989.6534   21643984.1814
      1037.2034
 04  9  2 16  3 45.0010000  0  6G 1G20G11G14G22G25
  -7472406.15449  -5817835.26644  22430683.4354   22430679.1884
      1351.8914
   -853966.23647   -657440.27142  24385248.8564   24385243.5014
      2154.8134
  -4674274.64449  -3629120.82445  22003582.1224   22003575.8064
       175.5784
   9197749.08449   7151549.94045  22009598.6304   22009592.8684
     -3085.2974
  11111433.09448   8634586.79043  23829526.1304   23829519.6694
     -3355.5944
  -7272592.78049  -5652846.54346  21641040.2084   21641034.9274
      1029.0944
 04  9  2 16  4  0.0010000  0  6G 1G20G11G14G22G25
  -7492649.48649  -5833609.27444  22426831.4584   22426826.5214
      1346.9694
   -886284.02646   -682622.94642  24379099.0444   24379093.5914
      2154.1724
  -4676842.35749  -3631121.63745  22003093.8104   22003087.5834
       166.6414
   9244053.79549   7187631.53045  22018410.4814   22018404.3884
     -3088.7974
  11161787.39648   8673823.87443  23839108.4894   23839101.7784
     -3358.5004
  -7287969.58049  -5664828.45646  21638114.4974   21638109.1034
      1021.0474
 04  9  2 16  4 15.0010000  0  6G 1G20G11G14G22G25
  -7512814.04449  -5849321.91444  22422994.1854   22422989.4424
      1341.6094
   -918588.66946   -707795.33242  24372951.7474   24372946.1464
      2153.0474
  -4679270.56149  -3633013.75845  22002631.4504   22002625.2864
       157.1564
   9290416.17049   7223758.03245  22027232.8024   22027227.2594
     -3092.7974
  11212189.49248   8713098.21143  23848699.6464   23848693.3134
     -3361.8124
  -7303221.45449  -5676713.01146  21635211.8804   21635206.5954
      1012.5634
 04  9  2 16  4 30.0010000  0  6G 1G20G11G14G22G25
  -7532904.29549  -5864976.63044  22419171.5054   22419166.4154
      1337.2194
   -950884.66047   -732961.07742  24366806.3564   24366800.4854
      2153.0164
  -4681563.47449  -3634800.43845  22002195.5674   22002189.2864
       148.6564
   9336831.50749   7259925.81445  22036065.1384   22036059.2984
     -3095.7974
  11262634.73449   8752406.18343  23858299.0994   23858293.2084
     -3364.1874
  -7318352.85549  -5688503.70845  21632332.8024   21632327.4504
      1005.0474
 04  9  2 16  4 45.0010000  0  6G 1G20G11G14G22G25
  -7552925.03449  -5880577.20844  22415361.1384   22415356.8764
      1332.4844
   -983176.81647   -758123.76742  24360660.8644   24360654.9544
      2152.7504
  -4683725.97149  -3636485.49645  22001783.5604   22001777.8374
       139.9064
   9383294.65749   7296130.87245  22044906.3104   22044901.1494
     -3099.0164
  11313118.31148   8791743.97943  23867905.9664   23867899.6614
     -3366.8284
  -7333368.36749  -5700204.09546  21629475.0364   21629469.7984
       997.2974
 04  9  2 16  5  0.0010000  0  6G 1G20G11G14G22G25
  -7572872.96149  -5896121.04244  22411565.3884   22411560.5404
      1327.3754
  -1015461.74747   -783280.86842  24354517.1694   24354512.0674
      2152.1254
  -4685754.65649  -3638066.31245  22001397.3964   22001391.3254
       130.7344
   9429808.64149   7332375.50245  22053757.9354   22053752.3454
     -3102.6874
  11363643.43448   8831114.19743  23877520.8564   23877514.2284
     -3369.7344
  -7348264.52849  -5711811.49346  21626640.7714   21626635.2944
       989.0944
 04  9  2 16  5 15.0010000  0  6G 1G20G11G14G22G25
  -7592746.41349  -5911606.84244  22407783.7784   22407779.6304
      1322.5314
  -1047737.70647   -808431.00842  24348375.1774   24348369.9624
      2151.5004
  -4687647.83849  -3639541.52045  22001037.3964   22001031.4384
       121.7194
   9476374.85049   7368660.86245  22062619.5994   22062613.5754
     -3106.1414
  11414211.77548   8870518.05643  23887143.6774   23887137.3454
     -3372.6414
  -7363039.49549  -5723324.42846  21623829.0364   21623823.6304
       980.9694
 04  9  2 16  5 30.0010000  0  6G 1G20G11G14G22G25
  -7612544.43849  -5927033.86245  22404016.2554   22404011.6304
      1317.6564
  -1080003.57347   -833573.15442  24342235.0134   24342229.8804
      2150.9224
  -4689404.37049  -3640910.25245  22000703.2164   22000696.8494
       112.8754
   9522994.07449   7404987.51545  22071490.6144   22071485.0134
     -3109.4064
  11464824.04548   8909956.16743  23896774.3564   23896768.7314
     -3375.3284
  -7377692.02449  -5734741.98846  21621040.8104   21621035.1104
       973.0634
 04  9  2 16  5 45.0010000  0  6G 1G20G11G14G22G25
  -7632269.33849  -5942403.91044  22400262.6614   22400258.2514
      1312.4224
  -1112261.55347   -858709.28642  24336097.1534   24336091.0674
      2150.2194
  -4691026.42749  -3642174.18145  22000394.4194   22000388.4424
       103.5634
   9569663.89849   7441353.60345  22080371.7554   22080366.1654
     -3113.1254
  11515478.04948   8949426.78543  23906413.7474   23906407.2514
     -3378.4694
  -7392224.30749  -5746065.82646  21618275.3174   21618269.6264
       964.7664
 04  9  2 16  6  0.0020000  0  6G 1G20G11G14G22G25
  -7651919.18249  -5957715.46144  22396523.3774   22396518.4864
      1307.5474
  -1144510.56747   -883838.37942  24329959.9944   24329954.4634
      2149.5474
  -4692510.87949  -3643330.91945  22000111.9714   22000105.5214
        94.5314
   9616390.25549   7477763.72745  22089263.9634   22089257.4364
     -3116.4844
  11566180.26148   8988934.96843  23916062.2364   23916055.7714
     -3381.2664
  -7406634.09749  -5757294.23545  21615533.3074   21615527.7484
       956.6254
 04  9  2 16  6 15.0020000  0  6G 1G20G11G14G22G25
  -7671494.90149  -5972969.23845  22392798.0804   22392793.8424
      1302.5634
  -1176749.72147   -908959.78542  24323825.3614   24323819.6894
      2148.8754
  -4693860.84849  -3644382.83145  21999854.9864   21999848.6744
        85.4224
   9663163.16349   7514210.14945  22098163.9324   22098157.9204
     -3119.9374
  11616920.28648   9028472.63343  23925717.5964   23925711.4824
     -3384.1724
  -7420922.68349  -5768428.19046  21612814.3544   21612808.9284
       948.4534
 04  9  2 16  6 30.0020000  0  6G 1G20G11G14G22G25
  -7690993.29649  -5988162.80245  22389087.9794   22389083.0534
      1297.5944
  -1208976.72947   -934071.69142  24317692.6894   24317686.8384
      2148.2814
  -4695071.84849  -3645326.47945  21999624.9164   21999618.5804
        76.2814
   9709990.06849   7550698.62645  22107074.9164   22107069.4554
     -3123.3124
  11667705.92948   9068045.82543  23935381.8934   23935375.9004
     -3387.0164
  -7435086.44149  -5779464.86446  21610118.6744   21610113.3854
       940.3754
 04  9  2 16  6 45.0020000  0  6G 1G20G11G14G22G25
  -7710415.73849  -6003297.15944  22385391.8074   22385387.3074
      1292.1094
  -1241192.64947   -959175.03842  24311562.1504   24311556.2174
      2147.0944
  -4696145.20149  -3646162.87145  21999420.1194   21999413.8034
        66.7664
   9756869.39548   7587227.95045  22115995.4944   22115989.5064
     -3127.2504
  11718535.89748   9107653.55143  23945054.6434   23945048.1894
     -3390.3914
  -7449126.59549  -5790405.25446  21607447.3074   21607441.6074
       931.6414
 04  9  2 16  7  0.0020000  0  6G 1G20G11G14G22G25
  -7729761.99449  -6018372.15344  22381710.3774   22381706.0024
      1287.1884
  -1273397.09447   -984269.38242  24305433.2444   24305428.1784
      2146.4384
  -4697080.55149  -3646891.72145  21999242.3614   21999236.1074
        57.6254
   9803801.07849   7623798.09145  22124926.5254   22124920.5494
     -3130.5784
  11769410.30348   9147295.92343  23954735.2914   23954729.2684
     -3393.1414
  -7463042.70349  -5801248.96746  21604799.0884   21604793.4714
       923.5634
 04  9  2 16  7 15.0020000  0  6G 1G20G11G14G22G25
  -7749032.82549  -6033388.36745  22378043.6824   22378038.7684
      1282.4384
  -1305590.87747  -1009355.47142  24299308.3934   24299302.3464
      2146.0474
  -4697878.56849  -3647513.54645  21999090.5644   21999084.0964
        48.7814
   9850784.10349   7660408.22445  22133866.8544   22133861.1354
     -3133.7194
  11820328.25948   9186972.21243  23964425.2604   23964419.3544
     -3395.8284
  -7476835.39649  -5811996.50746  21602174.4394   21602168.8384
       915.5784
 04  9  2 16  7 30.0020000  0  6G 1G20G11G14G22G25
  -7768229.97149  -6048347.18344  22374389.9554   22374385.4204
      1277.0944
  -1337775.70447  -1034434.54142  24293183.2684   24293177.3344
      2145.1414
  -4698540.89949  -3648029.64945  21998964.2294   21998958.1544
        39.3594
   9897816.52849   7697056.86145  22142817.2834   22142811.5414
     -3137.3594
  11871287.96948   9226681.06143  23974122.4244   23974116.7174
     -3398.9844
  -7490506.16649  -5822649.04746  21599572.7684   21599567.3814
       907.0944
 04  9  2 16  7 45.0020000  0  6G 1G20G11G14G22G25
  -7787352.13149  -6063247.55744  22370751.5804   22370746.8814
      1272.6094
  -1369950.11047  -1059505.47742  24287060.3144   24287054.8384
      2144.8594
  -4699066.18349  -3648438.96045  21998864.6744   21998858.2874
        30.7814
   9944899.38949   7733744.79845  22151776.6114   22151770.7174
     -3140.2504
  11922290.79048   9266423.49243  23983827.4634   23983821.9284
     -3401.2974
  -7504053.55449  -5833205.45146  21596994.5644   21596989.4944
       899.3444
 04  9  2 16  8  0.0020000  0  6G 1G20G11G14G22G25
  -7806401.16749  -6078090.94744  22367126.3224   22367121.4864
      1267.3754
  -1402115.90947  -1084569.73942  24280939.3934   24280933.8574
      2143.9844
  -4699456.25349  -3648742.92145  21998789.9474   21998784.1194
        21.3444
   9992030.55648   7770470.36745  22160745.5104   22160739.9794
     -3143.7974
  11973334.67748   9306197.92143  23993541.1194   23993535.4394
     -3404.4064
  -7517479.37449  -5843667.12146  21594439.9794   21594434.5684
       890.8754
 04  9  2 16  8 15.0020000  0  6G 1G20G11G14G22G25
  -7825375.65749  -6092876.25044  22363515.7214   22363511.0574
      1262.8444
  -1434271.55647  -1109626.06942  24274819.9944   24274814.9944
      2143.7814
  -4699709.41149  -3648940.19045  21998742.0574   21998735.6744
        12.6254
  10039211.28049   7807234.55945  22169723.4634   22169717.2994
     -3146.7344
  12024421.02048   9346005.41643  24003262.5574   24003256.7054
     -3406.8594
  -7530781.90549  -5854032.71946  21591908.4634   21591903.7214
       883.0314
 04  9  2 16  8 30.0020000  0  6G 1G20G11G14G22G25
  -7844276.50449  -6107604.17045  22359918.8934   22359914.4044
      1257.3594
  -1466417.77147  -1134675.06742  24268703.2524   24268697.5064
      2142.4224
  -4699826.50449  -3649031.44045  21998720.0644   21998713.8034
         3.0314
  10086440.47648   7844036.50845  22178711.2364   22178704.8074
     -3150.5164
  12075548.99448   9385845.36543  24012992.3464   24012986.2294
     -3410.1724
  -7543961.89849  -5864302.84846  21589400.1824   21589394.8854
       874.2664
 04  9  2 16  8 45.0020000  0  6G 1G20G11G14G22G25
  -7863100.14849  -6122271.93944  22356336.7364   22356332.2754
      1252.1414
  -1498550.99548  -1159713.92242  24262588.6664   24262582.6824
      2141.5004
  -4699803.84649  -3649013.79145  21998724.2914   21998717.9824
        -6.4694
  10133721.43848   7880878.80845  22187708.2914   22187702.5414
     -3154.0314
  12126722.00748   9425720.40843  24022729.8774   24022724.1234
     -3413.2814
  -7557015.86849  -5874474.76046  21586916.1894   21586911.2134
       865.7814
 04  9  2 16  9  0.0020000  0  6G 1G20G11G14G22G25
  -7881847.59449  -6136880.32345  22352769.1584   22352764.7484
      1247.5314
  -1530672.19348  -1184743.41542  24256476.0574   24256470.3544
      2141.2504
  -4699642.58049  -3648888.12945  21998754.7134   21998748.2174
       -15.1564
  10181052.85449   7917760.41245  22196715.4864   22196709.2954
     -3156.8914
  12177939.02348   9465629.76543  24032475.9004   24032470.3934
     -3415.7034
  -7569944.57249  -5884549.08045  21584455.9084   21584450.8464
       857.9534
 04  9  2 16  9 15.0020000  0  6G 1G20G11G14G22G25
  -7900521.01949  -6151431.04145  22349215.9084   22349211.0804
      1242.0784
  -1562783.36548  -1209765.12442  24250365.3144   24250359.7054
      2140.0634
  -4699344.82249  -3648656.11845  21998811.6194   21998805.5724
       -24.7974
  10228432.33549   7954679.47445  22205731.1744   22205725.4474
     -3160.6564
  12229197.67748   9505571.51543  24042229.9944   24042224.6434
     -3419.0004
  -7582749.98849  -5894527.30746  21582019.5024   21582013.7564
       849.2034
 04  9  2 16  9 30.0020000  0  6G 1G20G11G14G22G25
  -7919118.27049  -6165922.38844  22345676.8304   22345672.1314
      1237.3594
  -1594882.23948  -1234777.21942  24244257.4084   24244251.4904
      2139.5004
  -4698908.31549  -3648315.98445  21998894.7914   21998888.3964
       -33.6724
  10275861.74649   7991637.44645  22214757.0804   22214751.0574
     -3163.4844
  12280500.06448   9545547.38642  24051992.7994   24051987.4864
     -3421.5944
  -7595429.71949  -5904407.61245  21579606.2754   21579601.3464
       841.1884
 04  9  2 16  9 45.0020000  0  6G 1G20G11G14G22G25
  -7937639.50949  -6180354.50744  22342152.2684   22342147.5884
      1232.0164
  -1626969.01048  -1259779.89742  24238150.9244   24238145.5684
      2138.5314
  -4698333.08849  -3647867.76345  21999004.0254   21998997.7754
       -43.1874
  10323340.82749   8028634.12845  22223791.8544   22223786.0254
     -3167.1414
  12331846.05048   9585557.20842  24061763.7834   24061758.3224
     -3424.7814
  -7607983.89349  -5914190.08645  21577217.5254   21577212.0884
       832.4694
 04  9  2 16 10  0.0020000  0  6G 1G20G11G14G22G25
  -7956086.42649  -6194728.71345  22338642.1824   22338637.4044
      1227.2034
  -1659045.17947  -1284774.27442  24232047.3774   24232042.2794
      2137.9384
  -4697620.73849  -3647312.67645  21999139.6824   21999133.3304
       -52.1564
  10370867.56649   8065667.93645  22232835.8934   22232829.9004
     -3170.1094
  12383233.93248   9625599.67942  24071542.5414   24071536.9084
     -3427.3284
  -7620413.91849  -5923875.80745  21574852.0024   21574846.7444
       824.4224
 04  9  2 16 10 15.0020000  0  6G 1G20G11G14G22G25
  -7974456.77849  -6209043.26844  22335146.5024   22335141.5924
      1222.3754
  -1691108.43547  -1309758.66142  24225945.4324   24225940.7684
      2137.4224
  -4696768.90349  -3646648.93045  21999301.8854   21999295.8774
       -61.1254
  10418444.06449   8102740.51945  22241889.1044   22241883.4754
     -3173.1414
  12434665.90048   9665676.52442  24081329.4394   24081323.4944
     -3430.0164
  -7632717.52249  -5933463.02845  21572510.9864   21572505.2524
       816.2814
 04  9  2 16 10 30.0020000  0  6G 1G20G11G14G22G25
  -7992752.92749  -6223299.99244  22331664.5884   22331659.6074
      1217.3914
  -1723161.05447  -1334734.72642  24219846.4474   24219841.2874
      2136.6094
  -4695779.88649  -3645878.26645  21999489.7684   21999483.5804
       -70.3914
  10466067.69249   8139849.83245  22250952.3144   22250945.8424
     -3176.3124
  12486139.47448   9705785.76642  24091124.6664   24091119.2954
     -3432.8444
  -7644896.92849  -5942953.46446  21570193.1744   21570187.4164
       807.9224
 04  9  2 16 10 45.0020000  0  6G 1G20G11G14G22G25
  -8010973.20549  -6237497.60044  22328197.6894   22328193.0334
      1212.0004
  -1755201.17547  -1359701.01142  24213749.2364   24213743.8894
      2135.4534
  -4694651.86649  -3644999.29345  21999704.4944   21999698.4714
       -80.0164
  10513739.89249   8176996.98144  22260024.0724   22260018.0534
     -3179.9064
  12537656.25148   9745928.66442  24100928.0024   24100922.1114
     -3436.0784
  -7656950.15649  -5952345.58846  21567899.3934   21567893.8934
       799.1094
 04  9  2 16 11  0.0020000  0  6G 1G20G11G14G22G25
  -8029116.05749  -6251634.88744  22324744.9394   22324740.2404
      1207.3134
  -1787227.21347  -1384656.33942  24207654.7834   24207649.6934
      2134.9384
  -4693383.11649  -3644010.65945  21999945.8144   21999939.8144
       -88.9374
  10561462.06249   8214183.08145  22269104.6044   22269098.6704
     -3182.8444
  12589217.78448   9786106.45542  24110739.9474   24110734.0374
     -3438.5314
  -7668875.69449  -5961638.20946  21565630.0574   21565624.6504
       791.1254
 04  9  2 16 11 15.0020000  0  6G 1G20G11G14G22G25
  -8047184.58049  -6265714.24545  22321306.5414   22321302.1194
      1202.0784
  -1819242.11047  -1409603.00742  24201562.7444   24201557.7914
      2133.9224
  -4691976.80649  -3642914.83745  22000213.8854   22000207.7834
       -98.3124
  10609230.87848   8251405.50944  22278195.2684   22278189.0844
     -3186.1094
  12640820.91148   9826316.64442  24120559.5964   24120554.2484
     -3441.6094
  -7680676.37649  -5970833.54246  21563384.5644   21563378.9084
       782.4844
 04  9  2 16 11 30.0020000  0  6G 1G20G11G14G22G25
  -8065178.13449  -6279735.17545  22317882.5184   22317878.3384
      1196.9224
  -1851245.18947  -1434540.48342  24195472.4714   24195467.6394
      2133.0314
  -4690432.19449  -3641711.24845  22000507.6044   22000501.5104
      -107.7194
  10657046.69948   8288664.58344  22287293.8854   22287288.0454
     -3189.4064
  12692466.23348   9866559.73342  24130388.0024   24130382.1664
     -3444.5164
  -7692351.41749  -5979930.96546  21561162.8854   21561157.2794
       774.0004
 04  9  2 16 11 45.0020000  0  6G 1G20G11G14G22G25
  -8083095.65849  -6293696.87144  22314472.9244   22314468.4394
      1192.2664
  -1883235.10647  -1459467.64742  24189385.0644   24189379.9434
      2132.5474
  -4688748.20149  -3640399.04945  22000828.1974   22000822.2834
      -116.6724
  10704910.46148   8325961.01145  22296402.2524   22296396.4984
     -3192.3754
  12744154.81548   9906836.53442  24140223.5334   24140217.2834
     -3447.0624
  -7703899.60848  -5988929.55146  21558965.3384   21558960.3654
       765.9064
 04  9  2 16 12  0.0020000  0  6G 1G20G11G14G22G25
  -8100939.50549  -6307601.17144  22311077.2834   22311072.4824
      1187.0634
  -1915214.27947  -1484386.47342  24183300.0964   24183294.6624
      2131.5164
  -4686927.00149  -3638979.95845  22001174.7294   22001168.4904
      -126.1094
  10752819.48748   8363292.70344  22305519.0644   22305513.0884
     -3195.5944
  12795884.08948   9947144.99842  24150067.3144   24150061.0254
     -3450.1094
  -7715323.22349  -5997831.08246  21556791.5024   21556786.2484
       757.3754
 04  9  2 16 12 15.0020000  0  6G 1G20G11G14G22G25
  -8118705.51949  -6321444.79445  22307696.9004   22307692.2914
      1181.9694
  -1947178.37847  -1509293.58042  24177217.2134   24177211.8034
      2130.6414
  -4684964.29049  -3637450.56245  22001548.1504   22001542.1584
      -135.3914
  10800777.79048   8400662.79244  22314645.1274   22314639.2294
     -3198.6564
  12847658.26848   9987488.50142  24159919.8384   24159913.5964
     -3452.8444
  -7726617.88549  -6006632.10246  21554642.4554   21554636.6624
       748.8134
 04  9  2 16 12 30.0020000  0  6G 1G20G11G14G22G25
  -8136397.86049  -6335231.02645  22304330.1044   22304325.2834
      1176.8134
  -1979131.39747  -1534192.02442  24171136.5184   24171131.6154
      2129.7034
  -4682864.27649  -3635814.19245  22001947.4474   22001941.5214
      -144.7664
  10848781.01548   8438067.88444  22323779.8074   22323773.8384
     -3201.9534
  12899473.12748  10027863.68042  24169779.9794   24169774.0184
     -3455.9064
  -7737787.56849  -6015335.74346  21552516.6114   21552511.2484
       740.2814
 04  9  2 16 12 45.0020000  0  6G 1G20G11G14G22G25
  -8154012.79749  -6348956.94845  22300977.9164   22300973.7754
      1171.9534
  -2011069.53347  -1559078.85642  24165059.0104   24165054.1394
      2128.8134
  -4680623.19749  -3634067.90745  22002374.3074   22002368.3114
      -153.9064
  10896832.55848   8475510.64444  22332923.9084   22332917.8504
     -3204.8914
  12951332.37948  10068273.48342  24179648.4244   24179641.7404
     -3458.6254
  -7748828.49649  -6023939.05746  21550415.5574   21550410.2874
       731.9224
 04  9  2 16 13  0.0020000  0  6G 1G20G11G14G22G25
  -8171552.55949  -6362624.27845  22297640.1194   22297635.2094
      1166.8284
  -2042995.01747  -1583955.85242  24158983.2134   24158978.6744
      2128.0004
  -4678243.12449  -3632213.31245  22002827.1504   22002821.1234
      -163.2814
  10944929.97448   8512989.14244  22342076.2524   22342070.4634
     -3208.0164
  13003233.62648  10108715.96242  24189524.9004   24189518.2684
     -3461.4844
  -7759742.75549  -6032443.67546  21548338.8544   21548333.2254
       723.3284
 04  9  2 16 13 15.0020000  0  6G 1G20G11G14G22G25
  -8189016.18549  -6376232.29745  22294317.1044   22294312.3144
      1161.4534
  -2074906.60547  -1608822.05042  24152911.3544   24152906.5294
      2126.7194
  -4675723.01449  -3630249.58745  22003306.7914   22003300.4864
      -172.9064
  10993074.12948   8550504.03944  22351237.7994   22351231.8734
     -3211.3284
  13055177.91348  10149192.00443  24199409.6434   24199403.3934
     -3464.5784
  -7770529.14949  -6040848.65946  21546286.1584   21546281.1274
       714.5944
 04  9  2 16 13 30.0020000  0  6G 1G20G11G14G22G25
  -8206403.40449  -6389780.77045  22291008.4944   22291003.9864
      1156.6414
  -2106804.05147  -1633677.15742  24146841.0184   24146836.3504
      2126.0474
  -4673062.55549  -3628176.50945  22003813.0334   22003806.7254
      -182.0474
  11041264.98448   8588055.34045  22360408.4324   22360402.6194
     -3214.2664
  13107165.43848  10189701.73843  24209302.6044   24209296.3504
     -3467.2664
  -7781187.28849  -6049153.68946  21544257.6664   21544252.5024
       706.2504
 04  9  2 16 13 45.0020000  0  6G 1G20G11G14G22G25
  -8223715.05849  -6403270.36945  22287714.2524   22287709.7054
      1151.6414
  -2138688.01547  -1658521.81342  24140773.7914   24140768.7094
      2125.1254
  -4670262.64749  -3625994.77445  22004345.6354   22004340.1784
      -191.2664
  11089501.59848   8625642.30645  22369587.2364   22369581.2484
     -3217.3444
  13159195.15048  10230244.35443  24219203.5724   24219197.6624
     -3470.0004
  -7791717.96649  -6057359.41146  21542254.0724   21542248.6234
       697.8914
 04  9  2 16 14  0.0020000  0  6G 1G20G11G14G22G25
  -8240950.28349  -6416700.38245  22284434.2834   22284429.8144
      1146.5944
  -2170557.64947  -1683355.26142  24134709.3544   24134703.9674
      2124.3444
  -4667322.31149  -3623703.58745  22004905.4634   22004899.3384
      -200.5474
  11137784.48548   8663265.32044  22378775.2914   22378769.2604
     -3220.2974
  13211267.83348  10270820.46242  24229112.7524   24229107.1464
     -3472.8594
  -7802120.21949  -6065465.04846  21540274.1354   21540269.0374
       689.3134
 04  9  2 16 14 15.0020000  0  6G 1G20G11G14G22G25
  -8258107.09649  -6430069.32745  22281169.2604   22281164.6744
      1141.4534
  -2202410.74948  -1708175.84442  24128648.3854   24128642.8264
      2123.2814
  -4664239.50049  -3621301.40745  22005491.7914   22005485.6234
      -210.0164
  11186115.39749   8700925.74844  22387972.4324   22387966.3964
     -3223.3594
  13263385.47348  10311431.53342  24239030.4864   24239024.3934
     -3475.7344
  -7812391.79649  -6073468.87146  21538319.8934   21538314.3114
       680.7034
 04  9  2 16 14 30.0020000  0  6G 1G20G11G14G22G25
  -8275190.84649  -6443381.32345  22277918.2524   22277913.8964
      1136.2344
  -2234252.60147  -1732987.67242  24122588.8384   24122583.7214
      2122.1884
  -4661019.50849  -3618792.32945  22006104.8934   22006098.6584
      -219.5164
  11234488.84449   8738619.32244  22397177.7294   22397171.5924
     -3226.5164
  13315542.66748  10352073.50343  24248954.9944   24248949.0964
     -3478.7034
  -7822537.85449  -6081374.88346  21536388.8854   21536383.5804
       672.0004
 04  9  2 16 14 45.0020000  0  6G 1G20G11G14G22G25
  -8292195.72349  -6456631.87545  22274682.3464   22274677.9514
      1131.0634
  -2266077.13947  -1757786.01642  24116532.7134   24116527.4004
      2121.0944
  -4657656.34649  -3616171.69045  22006744.8544   22006738.9904
      -229.0164
  11282910.47149   8776350.45045  22406392.1664   22406385.6154
     -3229.6724
  13367745.28048  10392750.81342  24258889.4634   24258883.6784
     -3481.6414
  -7832552.51349  -6089178.50946  21534483.5184   21534478.0724
       663.2504
 04  9  2 16 15  0.0020000  0  6G 1G20G11G14G22G25
  -8309120.51049  -6469820.02045  22271461.8854   22271457.1544
      1125.6884
  -2297883.17648  -1782569.92442  24110479.9864   24110474.8734
      2119.8284
  -4654148.71449  -3613438.47545  22007412.0494   22007405.6154
      -238.6094
  11331381.21449   8814119.84344  22415615.7444   22415609.6624
     -3232.9224
  13419994.40248  10433464.38942  24268831.8614   24268825.8854
     -3484.8124
  -7842434.50949  -6096878.76246  21532603.0964   21532597.4324
       654.4064
 04  9  2 16 15 15.0020000  0  6G 1G20G11G14G22G25
  -8325967.32449  -6482947.38245  22268255.9864   22268251.3264
      1121.0784
  -2329672.64047  -1807340.94342  24104431.0104   24104425.5144
      2119.2504
  -4650498.75349  -3610594.35945  22008106.5964   22008100.5104
      -247.5944
  11379898.78449   8851925.72944  22424848.0884   22424842.1314
     -3235.5004
  13472287.87448  10474212.51942  24278782.8694   24278777.0924
     -3487.1564
  -7852185.75149  -6104477.12146  21530747.5334   21530741.6434
       646.2664
 04  9  2 16 15 30.0020000  0  6G 1G20G11G14G22G25
  -8342741.70749  -6496018.34345  22265064.2054   22265059.2294
      1115.8754
  -2361450.93147  -1832103.26042  24098383.9084   24098378.0724
      2118.2034
  -4646711.87049  -3607643.54845  22008827.3854   22008821.0104
      -257.0164
  11428457.40949   8889763.59844  22434088.9084   22434082.9284
     -3238.6094
  13524620.08548  10514990.82042  24288740.9084   24288735.8034
     -3490.1874
  -7861811.65349  -6111977.83246  21528915.5184   21528909.8934
       637.5164
 04  9  2 16 15 45.0020000  0  6G 1G20G11G14G22G25
  -8359440.12949  -6509030.07645  22261886.1044   22261881.6864
      1110.8914
  -2393214.55447  -1856854.08442  24092339.2054   24092333.6744
      2117.2974
  -4642784.61749  -3604583.35245  22009574.9244   22009568.4754
      -266.2504
  11477060.36049   8927636.02044  22443337.4324   22443331.7014
     -3241.4534
  13576994.59348  10555802.09942  24298707.9244   24298702.2914
     -3492.8284
  -7871308.47249  -6119377.93546  21527108.6664   21527103.3654
       629.0314
 04  9  2 16 16  0.0020000  0  6G 1G20G11G14G22G25
  -8376060.79649  -6521981.23845  22258723.5254   22258718.9004
      1105.5784
  -2424961.43748  -1881591.91542  24086298.5494   24086292.3854
      2116.0004
  -4638714.98348  -3601412.21445  22010348.9324   22010342.8544
      -275.8914
  11525709.32148   8965544.28144  22452595.0964   22452588.7834
     -3244.6874
  13629413.16848  10596647.70442  24308682.8934   24308677.4754
     -3495.9064
  -7880674.24949  -6126675.94146  21525325.9794   21525320.6744
       620.0944
 04  9  2 16 16 15.0020000  0  6G 1G20G11G14G22G25
  -8392602.74249  -6534871.05645  22255575.5334   22255571.2714
      1100.4064
  -2456690.61648  -1906315.94842  24080260.2754   24080254.9364
      2114.8914
  -4634502.01149  -3598129.37945  22011150.7994   22011145.0374
      -285.3754
  11574404.99848   9003488.94944  22461861.6504   22461855.3654
     -3247.5624
  13681876.60148  10637528.28042  24318666.3854   24318660.5644
     -3498.7974
  -7889908.14349  -6133871.17346  21523568.9634   21523563.2994
       611.4534
 04  9  2 16 16 30.0020000  0  6G 1G20G11G14G22G25
  -8409072.38349  -6547704.53445  22252441.6044   22252436.7994
      1095.5164
  -2488408.17347  -1931030.89942  24074224.7134   24074219.3074
      2114.1094
  -4630151.88249  -3594739.67345  22011978.6584   22011972.2174
      -294.5784
  11623140.85448   9041464.92544  22471135.9244   22471129.9004
     -3250.4534
  13734378.48248  10678438.76842  24328656.9324   24328651.2294
     -3501.5164
  -7899016.25249  -6140968.40046  21521835.5884   21521830.2714
       602.9534
 04  9  2 16 16 45.0020000  0  6G 1G20G11G14G22G25
  -8425462.18749  -6560475.80645  22249322.8854   22249318.2754
      1090.1884
  -2520106.59347  -1955730.96342  24068192.5494   24068187.3814
      2112.7814
  -4625657.30849  -3591237.42245  22012834.0724   22012827.9984
      -304.2814
  11671924.08948   9079477.81944  22480419.0494   22480412.9824
     -3253.6094
  13786926.17747  10719384.98042  24338656.5644   24338651.1394
     -3504.4844
  -7907991.01249  -6147961.71446  21520127.8384   21520122.5374
       594.0164
 04  9  2 16 17  0.0020000  0  6G 1G20G11G14G22G25
  -8441772.93349  -6573185.46245  22246218.8934   22246214.4204
      1085.0944
  -2551786.55248  -1980416.66242  24062163.6354   24062159.1004
      2111.6884
  -4621018.89149  -3587623.07745  22013716.6584   22013710.4434
      -313.7034
  11720753.80749   9117526.94144  22489711.1664   22489704.9674
     -3256.5624
  13839518.90248  10760366.30642  24348664.8694   24348658.9594
     -3507.3914
  -7916832.96849  -6154851.54346  21518445.5024   21518439.7324
       585.3284
 04  9  2 16 17 15.0020000  0  6G 1G20G11G14G22G25
  -8458006.46149  -6585834.96645  22243129.8144   22243125.0144
      1079.4844
  -2583449.72447  -2005089.25142  24056138.9084   24056133.4674
      2110.1414
  -4616238.41849  -3583898.04445  22014626.4164   22014620.2564
      -323.6414
  11769627.90449   9155610.62644  22499011.4944   22499005.2714
     -3259.8754
  13892154.86147  10801381.26242  24358681.0804   24358675.7794
     -3510.6564
  -7925543.90149  -6161639.28646  21516788.2364   21516782.4124
       576.1884
 04  9  2 16 17 30.0020000  0  6G 1G20G11G14G22G25
  -8474161.96749  -6598423.65945  22240055.5414   22240050.7174
      1074.3754
  -2615095.06447  -2029747.95242  24050116.4244   24050111.3384
      2108.9844
  -4611314.99249  -3580061.59145  22015562.9944   22015557.0724
      -333.0004
  11818547.05349   9193729.43544  22508320.4244   22508314.6864
     -3262.8124
  13944834.86647  10842430.61442  24368705.8144   24368699.8814
     -3513.5624
  -7934122.81549  -6168324.14846  21515155.1664   21515149.5104
       567.4534
 04  9  2 16 17 45.0020000  0  6G 1G20G11G14G22G25
  -8490241.55249  -6610953.20245  22236995.7684   22236990.7834
      1069.5164
  -2646724.67847  -2054394.39242  24044097.2914   24044092.6864
      2108.2344
  -4606250.57849  -3576115.31645  22016527.1504   22016520.8114
      -342.2504
  11867508.90749   9231881.51744  22517637.4324   22517631.7874
     -3265.4534
  13997556.59547  10883512.38542  24378738.6194   24378732.6974
     -3516.1254
  -7942571.71049  -6174907.69946  21513547.2754   21513541.4324
       559.0004
 04  9  2 16 18  0.0020000  0  6G 1G20G11G14G22G25
  -8506245.21549  -6623423.57345  22233950.1504   22233945.8034
      1064.2974
  -2678338.45747  -2079028.48742  24038082.1504   24038076.5064
      2107.0314
  -4601045.25049  -3572059.21245  22017517.7134   22017511.5574
      -351.7664
  11916513.35249   9270066.77844  22526962.9084   22526957.3424
     -3268.4534
  14050320.11547  10924626.78342  24388779.2604   24388773.8504
     -3519.0314
  -7950890.32549  -6181389.72746  21511964.3144   21511958.8814
       550.2034
 04  9  2 16 18 15.0020000  0  6G 1G20G11G14G22G25
  -8522167.85149  -6635830.81445  22230920.0254   22230915.4474
      1058.9224
  -2709931.12247  -2103646.13842  24032069.8614   24032064.7294
      2105.5314
  -4595693.81249  -3567889.26345  22018535.7524   22018530.0764
      -361.5474
  11965565.21949   9308289.00944  22536297.0884   22536291.4944
     -3271.6094
  14103130.41647  10965777.67542  24398828.2754   24398822.5334
     -3522.1564
  -7959073.52449  -6187766.23346  21510407.3934   21510401.4984
       541.2034
 04  9  2 16 18 30.0020000  0  6G 1G20G11G14G22G25
  -8538014.24949  -6648178.65645  22227904.7364   22227900.6074
      1053.9844
  -2741507.29648  -2128250.92742  24026061.3694   24026055.9434
      2104.6254
  -4590200.97949  -3563609.14645  22019581.4714   22019574.9754
      -370.8284
  12014659.53249   9346544.30144  22545639.1744   22545633.6504
     -3274.3284
  14155982.64947  11006961.17642  24408885.8074   24408880.2254
     -3524.7344
  -7967125.94549  -6194040.85046  21508874.9944   21508869.5414
       532.6094
 04  9  2 16 18 45.0020000  0  6G 1G20G11G14G22G25
  -8553781.42649  -6660464.76345  22224904.2754   22224899.5104
      1048.5004
  -2773063.88447  -2152840.48042  24020055.9394   24020050.6314
      2103.0944
  -4584563.73949  -3559216.49845  22020653.9794   22020647.7794
      -380.5944
  12063799.05849   9384834.82344  22554990.0494   22554984.5374
     -3277.5944
  14208879.71647  11048179.64642  24418952.5184   24418946.5764
     -3527.9844
  -7975044.60149  -6200211.22546  21507368.0184   21507362.1864
       523.3754
 04  9  2 16 19  0.0020000  0  6G 1G20G11G14G22G25
  -8569474.34249  -6672692.99745  22221918.0414   22221913.5414
      1043.4384
  -2804605.76547  -2177418.55442  24014054.1114   24014048.6114
      2101.9694
  -4578786.90349  -3554715.06945  22021753.5884   22021747.1974
      -390.0474
  12112978.68249   9423156.59144  22564348.7684   22564343.1584
     -3280.2344
  14261816.72847  11089429.23242  24429025.9714   24429019.6044
     -3530.8284
  -7982834.17749  -6206281.01946  21505886.0254   21505880.0064
       514.7344
 04  9  2 16 19 15.0020000  0  6G 1G20G11G14G22G25
  -8585088.96849  -6684860.22245  22218946.6664   22218941.7714
      1038.5004
  -2836128.74347  -2201981.89042  24008055.7054   24008050.3894
      2101.0004
  -4572866.51849  -3550101.79145  22022879.8464   22022873.6544
      -399.3284
  12162202.22049   9461512.57244  22573715.7364   22573709.8894
     -3282.8594
  14314797.54247  11130712.92842  24439107.5414   24439101.9244
     -3533.4064
  -7990490.59849  -6212247.04746  21504428.9634   21504423.2754
       506.1414
 04  9  2 16 19 30.0020000  0  6G 1G20G11G14G22G25
  -8600625.68149  -6696966.73645  22215989.9554   22215985.3814
      1033.0164
  -2867633.05347  -2226530.70142  24002060.6274   24002055.0254
      2099.4224
  -4566802.86649  -3545376.87745  22024033.6354   22024027.2134
      -409.2664
  12211469.23549   9499902.44044  22583090.9324   22583085.4824
     -3286.1564
  14367821.79847  11172030.52642  24449198.1274   24449192.0844
     -3536.5314
  -7998014.00749  -6218109.44346  21502997.1274   21502991.1154
       496.8754
 04  9  2 16 19 45.0020000  0  6G 1G20G11G14G22G25
  -8616081.46949  -6709010.20445  22213049.0104   22213044.5574
      1027.8754
  -2899115.55147  -2251062.51742  23996069.3464   23996063.9284
      2098.2814
  -4560592.90049  -3540537.94345  22025215.4324   22025209.2294
      -418.6724
  12260782.46749   9538328.32444  22592474.9244   22592469.5764
     -3288.9224
  14420892.56447  11213384.31042  24459296.9714   24459291.2604
     -3539.3914
  -8005401.34649  -6223865.80646  21501591.2754   21501585.7644
       488.1254
 04  9  2 16 20  0.0020000  0  6G 1G20G11G14G22G25
  -8631463.77049  -6720996.39745  22210121.7994   22210116.8814
      1022.8284
  -2930583.45548  -2275582.94642  23990081.5884   23990075.4634
      2097.1094
  -4554243.87949  -3535590.65745  22026423.7364   22026417.7684
      -428.1254
  12310134.26249   9576784.25244  22601865.9634   22601860.7794
     -3291.5944
  14474002.22747  11254768.47642  24469403.5414   24469397.7054
     -3542.2034
  -8012659.94449  -6229521.84846  21500210.2994   21500204.6584
       479.3754
 04  9  2 16 20 15.0020000  0  6G 1G20G11G14G22G25
  -8646766.86849  -6732920.89145  22207209.7054   22207204.9084
      1017.4384
  -2962030.91748  -2300087.44842  23984097.0964   23984091.2994
      2095.7194
  -4547750.16049  -3530530.63645  22027659.0964   22027653.1154
      -437.8444
  12359530.12749   9615274.51944  22611266.2834   22611260.3734
     -3294.6254
  14527156.52247  11296187.37342  24479518.4084   24479512.8304
     -3545.1564
  -8019783.94649  -6235073.01946  21498854.2364   21498848.6314
       470.3134
 04  9  2 16 20 30.0020000  0  6G 1G20G11G14G22G25
  -8661991.22749  -6744784.01245  22204312.4864   22204308.1354
      1011.8754
  -2993458.33648  -2324576.35543  23978116.3614   23978110.9324
      2094.1094
  -4541112.13549  -3525358.14445  22028922.5884   22028916.2364
      -447.7814
  12408969.43749   9653798.64444  22620673.9324   22620668.5724
     -3297.8594
  14580354.94847  11337640.67842  24489641.6584   24489635.6464
     -3548.4694
  -8026773.76849  -6240519.62846  21497524.3544   21497518.7294
       461.0474
 04  9  2 16 20 45.0020000  0  6G 1G20G11G14G22G25
  -8677139.32649  -6756587.72045  22201430.2214   22201425.4514
      1007.1724
  -3024868.02648  -2349051.41542  23972139.4864   23972134.0294
      2093.2814
  -4534332.31049  -3520075.17845  22030212.7754   22030206.5254
      -456.8284
  12458449.52049   9692354.52844  22630089.8074   22630084.1464
     -3300.2034
  14633594.92347  11379126.30442  24499773.1044   24499767.1464
     -3550.8914
  -8033631.70049  -6245863.46046  21496219.4794   21496213.2404
       452.6414
 04  9  2 16 21  0.0020000  0  6G 1G20G11G14G22G25
  -8692212.67949  -6768333.18345  22198561.7524   22198556.8114
      1002.3444
  -3056261.37548  -2373513.75742  23966165.6824   23966160.2134
      2092.2974
  -4527412.17149  -3514682.86445  22031529.7994   22031523.3854
      -466.0624
  12507968.54549   9730940.77244  22639512.9554   22639507.3694
     -3302.6254
  14686874.82247  11420643.11442  24509911.9394   24509905.9674
     -3553.4064
  -8040359.24449  -6251105.69346  21494938.9864   21494933.4594
       444.0784
 04  9  2 16 21 15.0020000  0  6G 1G20G11G14G22G25
  -8707209.91649  -6780019.33645  22195707.8304   22195703.2754
       997.4844
  -3087636.89048  -2397962.21542  23960195.1824   23960189.5294
      2091.3914
  -4520350.33349  -3509180.14045  22032873.3544   22032867.3304
      -475.2814
  12557527.74249   9769558.31544  22648943.9394   22648938.1624
     -3305.0314
  14740195.93547  11462192.00742  24520058.7994   24520052.8894
     -3555.9224
  -8046954.90649  -6256245.17346  21493684.0804   21493678.4244
       435.5314
 04  9  2 16 21 30.0020000  0  6G 1G20G11G14G22G25
  -8722134.03349  -6791648.51345  22192867.9324   22192863.2134
       992.4224
  -3118997.46248  -2422399.01242  23954227.2684   23954222.3814
      2090.1254
  -4513149.48749  -3503569.08945  22034243.2684   22034237.6074
      -484.7344
  12607123.94449   9808204.69344  22658381.5964   22658376.0104
     -3307.6874
  14793555.26047  11503770.66242  24530212.8384   24530206.2524
     -3558.6874
  -8053421.49349  -6261284.06546  21492453.3614   21492447.6704
       426.7194
 04  9  2 16 21 45.0020000  0  6G 1G20G11G14G22G25
  -8736980.58549  -6803217.25045  22190042.7444   22190037.6584
       986.7664
  -3150338.50048  -2446820.58542  23948263.4084   23948258.2174
      2088.3444
  -4505805.41849  -3497846.44845  22035641.3544   22035635.1234
      -494.8754
  12656761.40549   9846883.22244  22667827.5254   22667821.8734
     -3310.9694
  14846957.19147  11545382.54442  24540374.3614   24540368.6314
     -3561.9534
  -8059754.56049  -6266218.90746  21491248.5104   21491242.7214
       417.2814
 04  9  2 16 22  0.0020000  0  6G 1G20G11G14G22G25
  -8751743.74149  -6814720.99345  22187233.0964   22187228.3964
       981.5474
  -3181653.88648  -2471222.18542  23942304.2684   23942299.3224
      2086.9384
  -4498312.11249  -3492007.52545  22037067.2214   22037061.2914
      -504.4064
  12706445.71849   9885598.24944  22677282.2444   22677275.9864
     -3313.6724
  14900407.62847  11587032.19542  24550545.8304   24550540.1624
     -3564.8754
  -8065947.98949  -6271044.96546  21490069.5104   21490064.0414
       408.3284
 04  9  2 16 22 15.0020000  0  6G 1G20G11G14G22G25
  -8766430.25249  -6826165.01445  22184438.5104   22184434.0644
       976.7814
  -3212950.35148  -2495609.02042  23936348.3074   23936343.0724
      2086.1414
  -4490676.38149  -3486057.60345  22038519.9944   22038513.8034
      -513.5004
  12756170.10249   9924344.50244  22686744.4004   22686738.4204
     -3315.9694
  14953899.63747  11628714.22742  24560725.1434   24560718.8424
     -3567.1724
  -8072008.51249  -6275767.43646  21488916.4864   21488910.6194
       399.8914
 04  9  2 16 22 30.0020000  0  6G 1G20G11G14G22G25
  -8781040.41649  -6837549.56545  22181658.2364   22181653.6744
       971.5004
  -3244227.92948  -2519981.15542  23930396.7444   23930391.2254
      2084.6094
  -4482898.36149  -3479996.81245  22040000.4634   22039994.5374
      -523.2034
  12805934.10449   9963121.63144  22696214.3464   22696208.3894
     -3318.9064
  15007432.95446  11670428.43842  24570912.5804   24570906.2914
     -3570.1724
  -8077936.19549  -6280386.41346  21487788.5964   21487782.6624
       390.7814
 04  9  2 16 22 45.0020000  0  6G 1G20G11G14G22G25
  -8795575.17949  -6848875.34745  22178892.6114   22178887.6894
       966.6884
  -3275487.47348  -2544339.25642  23924447.9944   23924442.9514
      2083.6254
  -4474978.84449  -3473825.76745  22041506.9004   22041500.5494
      -532.4534
  12855736.55849  10001928.71544  22705691.0964   22705685.1434
     -3321.2194
  15061006.62046  11712174.13242  24581107.5024   24581100.6584
     -3572.5944
  -8083731.86449  -6284902.51346  21486685.5804   21486680.0684
       382.2194
 04  9  2 16 23  0.0020000  0  6G 1G20G11G14G22G25
  -8810033.86349  -6860141.83445  22176141.0334   22176136.2564
       961.7664
  -3306728.20048  -2568682.65943  23918503.1824   23918497.8504
      2082.5004
  -4466917.35449  -3467544.09045  22043041.3934   22043035.3774
      -541.8444
  12905577.97849  10040766.18744  22715175.9794   22715170.2604
     -3323.6874
  15114621.23147  11753951.72742  24591309.5724   24591303.3504
     -3575.3124
  -8089394.83549  -6289315.21146  21485607.7444   21485601.9904
       373.4844
 04  9  2 16 23 15.0020000  0  6G 1G20G11G14G22G25
  -8824418.04049  -6871350.28445  22173403.7684   22173399.1044
       956.6884
  -3337951.54748  -2593012.51942  23912561.2524   23912556.1234
      2081.1254
  -4458715.40149  -3461152.96445  22044602.1114   22044595.9364
      -551.2814
  12955456.44549  10079632.50144  22724667.6354   22724661.9984
     -3326.2814
  15168275.22746  11795760.01042  24601519.5334   24601513.5104
     -3578.0164
  -8094926.53149  -6293625.61346  21484555.3144   21484550.0644
       364.6724
 04  9  2 16 23 30.0020000  0  6G 1G20G11G14G22G25
  -8838726.53849  -6882499.75545  22170680.5884   22170676.3184
       951.4534
  -3369156.13048  -2617327.74942  23906623.9714   23906618.1234
      2079.7974
  -4450371.77949  -3454651.44346  22046189.6114   22046183.4474
      -560.8754
  13005373.12349  10118528.60344  22734166.4164   22734160.5374
     -3328.9224
  15221969.64047  11837599.79142  24611736.8614   24611731.4394
     -3580.8914
  -8100325.71249  -6297832.77146  21483527.9474   21483522.0414
       355.5944
 04  9  2 16 23 45.0020000  0  6G 1G20G11G14G22G25
  -8852957.08449  -6893588.49145  22167972.6504   22167968.5064
       946.0474
  -3400339.61748  -2641626.59243  23900689.6664   23900684.2054
      2078.1884
  -4441884.14349  -3448037.70945  22047804.8074   22047798.8544
      -570.6874
  13055329.96649  10157456.01044  22743672.5184   22743667.0644
     -3331.8594
  15275706.70647  11879472.77242  24621962.7994   24621957.4984
     -3583.9224
  -8105590.03149  -6301934.82046  21482526.1744   21482520.5764
       346.4224
 04  9  2 16 24  0.0020000  0  6G 1G20G11G14G22G25
  -8867112.10849  -6904618.36545  22165279.4394   22165274.5964
       940.9844
  -3431504.15948  -2665910.62943  23894758.9244   23894753.8264
      2076.8284
  -4433254.89549  -3441313.60645  22049446.7444   22049441.5104
      -580.2344
  13105324.47949  10196412.74644  22753186.5104   22753181.0574
     -3334.4534
  15329483.96746  11921377.07342  24632196.5414   24632190.8464
     -3586.8444
  -8110721.73549  -6305933.55146  21481549.6744   21481544.3384
       337.5314
 04  9  2 16 24 15.0020000  0  6G 1G20G11G14G22G25
  -8881187.96849  -6915586.55545  22162600.8144   22162596.5374
       935.5474
  -3462645.96648  -2690176.94943  23888832.9864   23888828.1114
      2075.1724
  -4424480.29049  -3434476.26045  22051116.7524   22051111.3344
      -590.0624
  13155360.12549  10235401.55544  22762707.9244   22762702.6464
     -3337.2504
  15383305.04646  11963315.55042  24642437.7914   24642432.7254
     -3589.7194
  -8115717.06949  -6309826.01446  21480598.8544   21480593.5964
       328.2344
 04  9  2 16 24 30.0020000  0  6G 1G20G11G14G22G25
  -8895184.58349  -6926492.98745  22159937.3774   22159933.2564
       930.4534
  -3493764.87648  -2714425.40943  23882911.0494   23882905.9794
      2073.8594
  -4415560.28749  -3427525.60646  22052814.0574   22052808.4364
      -599.4694
  13205436.85149  10274422.37844  22772237.1114   22772231.7794
     -3339.8284
  15437169.93946  12005288.15142  24652688.7134   24652683.2684
     -3592.4224
  -8120575.84149  -6313612.05346  21479674.1664   21479669.0064
       319.3754
 04  9  2 16 24 45.0020000  0  6G 1G20G11G14G22G25
  -8909107.08349  -6937341.69145  22157287.9554   22157283.5804
       925.7034
  -3524865.88548  -2738659.97442  23876993.1504   23876988.1864
      2072.8444
  -4406499.91349  -3420465.58745  22054538.2994   22054532.3574
      -608.6724
  13255549.32149  10313471.03044  22781773.3384   22781767.9324
     -3342.0314
  15491073.44247  12047290.81942  24662946.0334   24662941.1824
     -3594.8284
  -8125303.18249  -6317295.71146  21478774.7604   21478769.5104
       310.7664
 04  9  2 16 25  0.0020000  0  6G 1G20G11G14G22G25
  -8922953.29749  -6948130.95645  22154653.0964   22154648.0254
       920.5784
  -3555946.60748  -2762878.71242  23871078.4634   23871073.0574
      2071.3754
  -4397297.09249  -3413294.56945  22056289.5024   22056282.9944
      -618.2504
  13305699.47149  10352549.04244  22791316.1584   22791311.2994
     -3344.5944
  15545017.75047  12089325.33142  24673211.4164   24673205.9324
     -3597.5624
  -8129896.73049  -6320875.10046  21477900.7754   21477894.7954
       301.7974
 04  9  2 16 25 15.0020000  0  6G 1G20G11G14G22G25
  -8936724.31849  -6958861.60145  22152032.6504   22152027.7134
       915.5314
  -3587008.02548  -2787082.42542  23865167.7054   23865162.1114
      2070.0944
  -4387952.93149  -3406013.40545  22058067.9714   22058061.5614
      -627.7034
  13355885.95649  10391655.37344  22800866.2914   22800861.0884
     -3346.9694
  15599001.67547  12131390.66342  24683484.1584   24683478.5184
     -3600.2344
  -8134357.37849  -6324350.91946  21477051.6894   21477045.9364
       292.9064
 04  9  2 16 25 30.0020000  0  6G 1G20G11G14G22G25
  -8950418.78549  -6969532.59846  22149426.3694   22149422.4084
       910.3754
  -3618048.51648  -2811269.77843  23859260.9324   23859255.9794
      2068.6724
  -4378466.01049  -3398620.99246  22059872.9394   22059867.7994
      -637.2664
  13406110.07049  10430791.05344  22810423.8854   22810419.5414
     -3349.5624
  15653026.62047  12173487.97842  24693764.9244   24693759.6114
     -3603.0004
  -8138683.61549  -6327721.99647  21476228.5024   21476223.1434
       283.9064
 04  9  2 16 25 45.0020000  0  6G 1G20G11G14G22G25
  -8964034.83149  -6980142.49646  22146835.7294   22146831.2644
       905.1884
  -3649066.12248  -2835439.31943  23853358.1664   23853353.3734
      2067.1254
  -4368834.30649  -3391115.76846  22061705.7054   22061700.4284
      -646.8444
  13456373.64049  10469957.44845  22819988.9324   22819984.3964
     -3352.1254
  15707094.29446  12215618.66942  24704053.8854   24704048.6464
     -3605.8914
  -8142873.58449  -6330986.90447  21475431.2684   21475426.2294
       274.8444
 04  9  2 16 26  0.0020000  0  6G 1G20G11G14G22G25
  -8977577.26249  -6990695.03546  22144258.3854   22144254.2754
       900.0944
  -3680065.47848  -2859594.66143  23847459.2134   23847454.6074
      2065.7344
  -4359062.63849  -3383501.48746  22063565.5964   22063559.8574
      -656.3914
  13506671.57949  10509150.62844  22829560.1664   22829555.3574
     -3354.6414
  15761199.90746  12257778.78242  24714349.2054   24714344.9944
     -3608.5624
  -8146932.05549  -6334149.34147  21474658.8774   21474653.6624
       265.9064
 04  9  2 16 26 15.0020000  0  6G 1G20G11G14G22G25
  -8991043.31749  -7001188.06346  22141696.1664   22141691.9554
       895.2974
  -3711043.75248  -2883733.54743  23841564.2754   23841559.5844
      2064.7194
  -4349148.23949  -3375775.98546  22065452.0884   22065446.7364
      -665.6094
  13557006.46049  10548372.60044  22839138.4324   22839133.8854
     -3356.7814
  15815346.21347  12299970.68843  24724653.2524   24724648.7794
     -3611.0004
  -8150856.19549  -6337207.10947  21473912.1584   21473907.5254
       257.3444
 04  9  2 16 26 30.0020000  0  6G 1G20G11G14G22G25
  -9004436.35049  -7011624.19046  22139147.3934   22139143.5254
       889.7664
  -3742003.99648  -2907858.42643  23835672.9084   23835667.9364
      2062.7814
  -4339094.43849  -3367941.85346  22067365.3224   22067359.9594
      -675.5314
  13607374.85249  10587620.68744  22848723.3854   22848718.4904
     -3359.5944
  15869529.80547  12342191.61343  24734964.0024   24734959.5334
     -3614.1254
  -8154649.21449  -6340162.70947  21473190.4474   21473185.5374
       247.8134
 04  9  2 16 26 45.0020000  0  6G 1G20G11G14G22G25
  -9017749.70549  -7021998.22946  22136614.1894   22136609.9864
       884.8914
  -3772939.49648  -2931964.00043  23829785.9084   23829781.1504
      2061.5634
  -4328894.50149  -3359993.86146  22069306.4164   22069300.6864
      -684.8754
  13657783.08349  10626899.80144  22858315.5024   22858310.8774
     -3361.9064
  15923757.17947  12384446.67142  24745283.5184   24745278.6704
     -3616.6254
  -8158304.31649  -6343010.84847  21472494.7914   21472489.7134
       239.0004
 04  9  2 16 27  0.0020000  0  6G 1G20G11G14G22G25
  -9030988.37049  -7032314.05446  22134094.6974   22134090.7174
       879.9694
  -3803854.95348  -2956053.95243  23823902.9714   23823898.1894
      2060.2504
  -4318553.37049  -3351935.83346  22071274.2684   22071268.7794
      -694.1724
  13708226.02849  10666205.99144  22867914.3694   22867910.2324
     -3364.0944
  15978023.29547  12426731.88843  24755610.3614   24755604.4474
     -3619.1094
  -8161826.28049  -6345755.21347  21471824.6744   21471819.9904
       230.3134
 04  9  2 16 27 15.0020000  0  6G 1G20G11G14G22G25
  -9044151.61049  -7042571.11746  22131589.8304   22131585.6074
       874.8914
  -3834749.53048  -2980127.64343  23818023.7214   23818019.1154
      2058.7664
  -4308070.42449  -3343767.31046  22073269.1824   22073263.3144
      -703.7194
  13758704.28949  10705539.67944  22877520.5414   22877515.7564
     -3366.5784
  16032328.89747  12469047.94342  24765944.1504   24765938.7874
     -3621.8444
  -8165214.37549  -6348395.28447  21471180.0024   21471175.1894
       221.2814
 04  9  2 16 27 30.0020000  0  6G 1G20G11G14G22G25
  -9057236.07549  -7052766.81146  22129099.7834   22129095.8654
       869.5784
  -3865619.81948  -3004182.43543  23812149.3304   23812144.3464
      2057.1414
  -4297442.33149  -3335485.68946  22075291.2444   22075285.4634
      -713.5164
  13809220.99149  10744903.30344  22887133.3074   22887128.2684
     -3369.1564
  16086677.30948  12511397.27942  24776286.2914   24776280.8264
     -3624.7504
  -8168465.28049  -6350928.46846  21470561.1354   21470556.1004
       212.0944
 04  9  2 16 27 45.0020000  0  6G 1G20G11G14G22G25
  -9070240.37249  -7062900.01645  22126625.0884   22126620.4554
       864.4534
  -3896464.08348  -3028216.89942  23806280.1194   23806274.8344
      2055.6564
  -4286667.61849  -3327089.82145  22077342.2444   22077335.8304
      -723.0474
  13859777.53649  10784298.00244  22896753.6504   22896748.4044
     -3371.6254
  16141069.93248  12553781.11142  24786636.6114   24786631.2714
     -3627.4844
  -8171577.28249  -6353353.40846  21469969.1824   21469963.2994
       202.9534
 04  9  2 16 28  0.0020000  0  6G 1G20G11G14G22G25
  -9083171.69549  -7072976.36545  22124164.6194   22124160.2484
       859.3594
  -3927289.44748  -3052236.66243  23800414.2684   23800408.6744
      2054.1414
  -4275753.51149  -3318585.33145  22079418.5254   22079412.5334
      -732.4694
  13910366.42749  10823717.90544  22906380.9794   22906375.3304
     -3373.9374
  16195499.39848  12596193.63542  24796994.1114   24796988.4594
     -3630.1724
  -8174557.61449  -6355675.73546  21469401.8854   21469396.4904
       193.9534
 04  9  2 16 28 15.0020000  0  6G 1G20G11G14G22G25
  -9096030.19249  -7082995.95346  22121717.5334   22121713.1234
       855.0944
  -3958095.82248  -3076241.63743  23794552.0644   23794546.7564
      2053.3914
  -4264699.97449  -3309972.17745  22081522.0254   22081516.2484
      -741.3124
  13960987.38949  10863162.80244  22916013.3544   22916008.4594
     -3375.5944
  16249965.70148  12638634.82342  24807358.9944   24807353.3964
     -3632.0314
  -8177406.31449  -6357895.48746  21468859.6744   21468853.9794
       185.7504
 04  9  2 16 28 30.0020000  0  6G 1G20G11G14G22G25
  -9108813.49849  -7092956.96846  22119284.8694   22119280.4904
       849.8284
  -3988880.74848  -3100229.88543  23788693.5254   23788688.4904
      2051.7194
  -4253504.70149  -3301248.59846  22083652.4714   22083646.5414
      -750.9534
  14011642.60049  10902634.36044  22925652.8224   22925647.2014
     -3378.0624
  16304471.08248  12681106.53442  24817731.1504   24817725.0574
     -3634.9224
  -8180120.99349  -6360010.82946  21468343.1894   21468337.4004
       176.6724
 04  9  2 16 28 45.0020000  0  6G 1G20G11G14G22G25
  -9121521.23749  -7102859.10246  22116866.9084   22116862.3814
       844.4224
  -4019643.70948  -3124200.99943  23782839.7054   23782834.8344
      2049.8594
  -4242167.31049  -3292414.27246  22085809.8934   22085803.8614
      -760.8284
  14062332.28149  10942132.79644  22935298.7834   22935293.0184
     -3380.7034
  16359015.75448  12723608.86942  24828110.9164   24828104.6544
     -3637.9374
  -8182701.09949  -6362021.29946  21467852.2134   21467846.5494
       167.2194
 04  9  2 16 29  0.0020000  0  6G 1G20G11G14G22G25
  -9134154.33549  -7112703.06746  22114462.9244   22114457.9984
       839.6724
  -4050385.42948  -3148155.59343  23776989.8144   23776984.7714
      2048.7194
  -4230688.82949  -3283470.01046  22087994.2134   22087988.3894
      -769.9224
  14113055.37549  10981657.25444  22944951.5804   22944946.0374
     -3382.6094
  16413598.87048  12766141.12542  24838497.0644   24838491.7754
     -3640.2194
  -8185147.46849  -6363927.55246  21467386.4474   21467381.5534
       158.6094
 04  9  2 16 29 15.0020000  0  6G 1G20G11G14G22G25
  -9146713.83649  -7122489.68946  22112073.0964   22112067.9434
       834.6564
  -4081106.75448  -3172094.27643  23771143.8074   23771138.1004
      2047.2504
  -4219070.19748  -3274416.54346  22090205.1114   22090199.1744
      -779.4224
  14163810.69149  11021206.84444  22954609.9864   22954603.9324
     -3384.9064
  16468219.30547  12808702.45742  24848891.7134   24848885.7754
     -3642.7814
  -8187461.04548  -6365730.33546  21466946.4944   21466941.2134
       149.5944
 04  9  2 16 29 30.0020000  0  6G 1G20G11G14G22G25
  -9159196.83649  -7132216.69345  22109697.0024   22109692.6394
       829.6884
  -4111804.62248  -3196014.68243  23765301.5804   23765296.5764
      2045.7814
  -4207308.54949  -3265251.62646  22092443.0804   22092437.1114
      -788.8594
  14214600.86249  11060783.58344  22964274.8304   22964269.2994
     -3387.0624
  16522879.89048  12851295.06742  24859292.8224   24859287.0804
     -3645.3444
  -8189639.03449  -6367427.46246  21466531.9324   21466526.4364
       140.6884
 04  9  2 16 29 45.0020000  0  6G 1G20G11G14G22G25
  -9171601.74949  -7141882.85745  22107336.7364   22107331.7644
       824.3594
  -4142477.13848  -3219915.34243  23759465.6194   23759460.1504
      2043.9384
  -4195402.22649  -3255973.97846  22094709.1744   22094702.9474
      -798.6724
  14265427.45349  11100388.69244  22973946.7214   22973941.1394
     -3389.7194
  16577582.19348  12893920.17042  24869702.4324   24869696.4864
     -3648.3284
  -8191679.51949  -6369017.45146  21466143.8614   21466138.3224
       131.3134
 04  9  2 16 30  0.0020000  0  6G 1G20G11G14G22G25
  -9183928.37949  -7151488.00746  22104990.7294   22104986.4824
       819.3914
  -4173124.07448  -3243796.06243  23753633.0184   23753628.4164
      2042.4224
  -4183351.01049  -3246583.43346  22097002.3544   22096996.1274
      -808.0784
  14316290.42349  11140022.17444  22983625.8934   22983620.0254
     -3391.8754
  16632326.32548  12936577.89442  24880120.1354   24880114.3424
     -3650.8284
  -8193582.28249  -6370500.11946  21465781.7294   21465776.0884
       122.4534
 04  9  2 16 30 15.0020000  0  6G 1G20G11G14G22G25
  -9196179.14649  -7161034.05846  22102659.6824   22102655.1894
       814.4384
  -4203747.69048  -3267658.61343  23747805.7994   23747800.8264
      2041.0474
  -4171157.39049  -3237081.91745  22099322.8694   22099316.3464
      -817.4694
  14367187.31049  11179682.05444  22993311.1974   22993305.8504
     -3393.9844
  16687109.93548  12979266.41542  24890545.5724   24890539.8574
     -3653.3754
  -8195349.59049  -6371877.23746  21465445.3384   21465439.6704
       113.5004
 04  9  2 16 30 30.0020000  0  6G 1G20G11G14G22G25
  -9208355.67449  -7170522.25646  22100342.6114   22100338.1154
       809.3134
  -4234349.38748  -3291504.07943  23741982.5334   23741977.7054
      2039.4064
  -4158822.88149  -3227470.61546  22101669.9794   22101663.7294
      -827.0314
  14418116.26149  11219366.94244  23003002.7444   23002997.1504
     -3396.2664
  16741931.29947  13021984.32242  24900977.3144   24900972.4284
     -3655.9534
  -8196983.01049  -6373150.01946  21465134.7914   21465129.1274
       104.4534
 04  9  2 16 30 45.0020000  0  6G 1G20G11G14G22G25
  -9220457.84449  -7179952.51246  22098039.5574   22098035.2604
       804.3444
  -4264928.80548  -3315332.18843  23736163.4714   23736158.5684
      2037.8914
  -4146347.45649  -3217749.51346  22104043.8694   22104037.5064
      -836.3754
  14469077.23149  11259076.76744  23012699.7604   23012694.7564
     -3398.5164
  16796790.55447  13064731.76442  24911416.8224   24911411.0214
     -3658.5004
  -8198482.45249  -6374318.41946  21464849.1664   21464843.5924
        95.5164
 04  9  2 16 31  0.0020000  0  5G 1G20G11G14G25
  -9232484.78649  -7189324.15146  22095751.2294   22095746.3344
       799.4064
  -4295484.92748  -3339142.13743  23730348.9084   23730343.3304
      2036.3754
  -4133730.04649  -3207917.77146  22106444.8774   22106438.6434
      -845.8914
  14520070.96849  11298812.12444  23022404.0254   23022398.8304
     -3400.5474
  -8199846.91148  -6375381.62946  21464589.6194   21464583.6744
        86.5314
 04  9  2 16 31 15.0020000  0  5G 1G20G11G14G25
  -9244435.62649  -7198636.47846  22093476.6744   22093472.2834
       794.3594
  -4326016.80547  -3362933.21143  23724539.0964   23724533.8894
      2034.8284
  -4120969.99349  -3197974.87845  22108873.1504   22108867.0724
      -855.2974
  14571098.09949  11338573.51844  23032114.2294   23032109.1824
     -3402.7814
  -8201075.48449  -6376338.95746  21464355.5804   21464350.4944
        77.5634
 04  9  2 16 31 30.0020000  0  5G 1G20G11G14G25
  -9256311.03049  -7207890.04546  22091216.8304   22091212.3304
       789.0634
  -4356524.83147  -3386705.67743  23718733.1894   23718727.9364
      2032.8754
  -4108067.96749  -3187921.36846  22111328.4554   22111321.8654
      -865.0474
  14622157.92249  11378360.36344  23041830.2134   23041825.4944
     -3405.1724
  -8202168.66549  -6377190.78446  21464147.7054   21464142.5494
        68.2194
 04  9  2 16 31 45.0020000  0  5G 1G20G11G14G25
  -9268105.48549  -7217080.50946  22088972.5184   22088968.1114
       783.7034
  -4387003.46448  -3410455.23843  23712933.0254   23712928.3264
      2031.0784
  -4095018.43649  -3177752.90346  22113811.3144   22113804.9824
      -874.7194
  14673255.79849  11418176.88244  23051554.1114   23051549.0534
     -3407.6094
  -8203120.90849  -6377932.78346  21463966.4554   21463961.0184
        58.9384
 04  9  2 16 32  0.0020000  0  5G 1G20G11G14G25
  -9279824.80449  -7226212.44646  22086742.2914   22086737.7324
       778.9384
  -4417458.18447  -3434186.19443  23707138.0884   23707133.0534
      2029.6414
  -4081827.08049  -3167473.93046  22116321.7994   22116315.6544
      -883.9534
  14724385.75149  11458018.37644  23061284.0184   23061278.2324
     -3409.5004
  -8203937.77449  -6378569.29446  21463811.2444   21463805.4554
        50.0474
 04  9  2 16 32 15.0020000  0  5G 1G20G11G14G25
  -9291468.09049  -7235285.12646  22084526.6354   22084522.1934
       773.4224
  -4447887.94947  -3457897.71543  23701347.5024   23701342.2954
      2027.5784
  -4068493.05049  -3157083.78246  22118859.2914   22118853.0024
      -893.9224
  14775548.41149  11497885.35844  23071019.9004   23071014.0374
     -3412.1254
  -8204618.52649  -6379099.74846  21463681.3144   21463675.8654
        40.6724
 04  9  2 16 32 30.0020000  0  5G 1G20G11G14G25
  -9303034.99249  -7244298.29046  22082325.7214   22082321.4124
       768.7664
  -4478292.18048  -3481589.29943  23695561.8854   23695556.1584
      2026.2344
  -4055015.99648  -3146582.20045  22121423.5574   22121417.4794
      -903.1564
  14826744.10949  11537778.08044  23080762.0644   23080756.2794
     -3414.0004
  -8205162.68248  -6379523.76546  21463577.9714   21463572.5644
        31.8594
 04  9  2 16 32 45.0020000  0  5G 1G20G11G14G25
  -9314525.99749  -7253252.31346  22080139.3384   22080134.6504
       763.2814
  -4508671.26847  -3505261.29543  23689780.5254   23689775.4794
      2024.1414
  -4041396.48349  -3135969.59245  22124015.0724   22124009.0144
      -912.9534
  14877972.14749  11577696.03844  23090510.6354   23090505.0254
     -3416.5164
  -8205570.67849  -6379841.67946  21463500.3384   21463494.7914
        22.4534
 04  9  2 16 33  0.0020000  0  5G 1G20G11G14G25
  -9325935.90049  -7262143.14046  22077967.8934   22077963.0724
       758.4844
  -4539019.76947  -3528909.47943  23684005.9794   23684000.8034
      2022.7814
  -4027629.24048  -3125241.88346  22126634.9474   22126628.7604
      -922.2034
  14929237.57449  11617643.08544  23100265.7754   23100260.2874
     -3418.3914
  -8205837.18849  -6380049.33846  21463449.5644   21463443.9674
        13.5944
 04  9  2 16 33 15.0020000  0  5G 1G20G11G14G25
  -9337272.29349  -7270976.68846  22075810.7364   22075805.9244
       753.2664
  -4569345.14747  -3552539.63543  23678234.6974   23678229.6584
      2020.8444
  -4013722.01349  -3114405.08945  22129281.6354   22129275.6864
      -931.8444
  14980532.69149  11657613.29344  23110027.2364   23110021.9714
     -3420.7034
  -8205969.57549  -6380152.48546  21463424.5254   21463419.1044
         4.2664
 04  9  2 16 33 30.0020000  0  5G 1G20G11G14G25
  -9348532.63949  -7279750.98046  22073667.7444   22073663.3654
       748.4534
  -4599644.54947  -3576149.55743  23672469.6894   23672463.7754
      2019.3914
  -3999672.07349  -3103457.08845  22131955.1434   22131949.1154
      -941.1874
  15031859.97449  11697608.56244  23119794.6274   23119789.0884
     -3422.5944
  -8205965.27149  -6380149.14146  21463424.9634   21463419.6044
        -4.5784
 04  9  2 16 33 45.0020000  0  5G 1G20G11G14G25
  -9359715.71949  -7288465.07146  22071539.7214   22071534.9394
       743.0634
  -4629916.64247  -3599738.19643  23666708.7134   23666702.9944
      2017.2974
  -3985478.15949  -3092396.90945  22134655.9794   22134650.4674
      -950.9844
  15083220.51049  11737629.74844  23129568.0494   23129562.5024
     -3425.0004
  -8205823.08749  -6380038.33746  21463452.3544   21463446.7254
       -13.9694
 04  9  2 16 34  0.0020000  0  5G 1G20G11G14G25
  -9370821.32849  -7297118.78546  22069426.1044   22069421.8264
       738.0004
  -4660161.04347  -3623305.24943  23660953.3304   23660947.9754
      2015.5634
  -3971140.32048  -3081224.56546  22137384.6114   22137378.7604
      -960.4224
  15134614.21449  11777676.76944  23139347.7994   23139342.1934
     -3427.1254
  -8205542.82148  -6379819.93846  21463505.1894   21463499.9244
       -23.0474
 04  9  2 16 34 15.0020000  0  5G 1G20G11G14G25
  -9381848.13249  -7305711.10146  22067328.0644   22067323.2874
       732.3914
  -4690376.25447  -3646849.56543  23655203.3384   23655197.9904
      2013.2814
  -3956657.06149  -3069938.92446  22140140.7294   22140134.6004
      -970.4694
  15186042.29749  11817750.57544  23149134.2994   23149128.7174
     -3429.6724
  -8205123.10249  -6379492.89646  21463585.5414   21463579.9864
       -32.7344
 04  9  2 16 34 30.0020000  0  6G 1G20G11G14G23G25
  -9392800.11249  -7314245.10846  22065244.0724   22065239.1504
       727.9384
  -4720566.01347  -3670374.05743  23649458.7834   23649453.0374
      2012.2664
  -3942032.41949  -3058543.10546  22142923.7914   22142917.9554
      -979.2814
  15237500.67349  11857847.99844  23158926.5884   23158920.9754
     -3431.2194
    -77183.11855    -53944.19252  24880954.6354   24880947.6824
      2053.2974
  -8204567.69349  -6379060.10046  21463691.1044   21463685.6234
       -41.2664
 04  9  2 16 34 45.0020000  0  6G 1G20G11G14G23G25
  -9403679.09849  -7322722.23146  22063173.6744   22063169.0064
       722.9224
  -4750731.95548  -3693879.96143  23643717.7214   23643712.4324
      2010.3754
  -3927268.25548  -3047038.57245  22145733.4474   22145727.5644
      -988.8444
  15288987.32249  11897967.45344  23168724.2134   23168718.4474
     -3433.3124
   -107963.14446    -77928.55942  24875097.5184   24875089.8854
      2050.9064
  -8203878.36148  -6378522.95546  21463822.1824   21463816.9084
       -50.3444
 04  9  2 16 35  0.0020000  0  6G 1G20G11G14G23G25
  -9414484.69449  -7331142.17746  22061117.6744   22061112.9434
       717.9694
  -4780873.48147  -3717366.85343  23637982.4474   23637976.6434
      2008.7504
  -3912364.10949  -3035424.95745  22148569.4634   22148563.6744
      -998.2504
  15340502.56749  11938109.17544  23178527.4244   23178521.8734
     -3435.2814
   -138709.06346   -101886.41142  24869245.3144   24869239.2444
      2048.6564
  -8203054.69849  -6377881.13546  21463979.0184   21463973.5064
       -59.3444
 04  9  2 16 35 15.0020000  0  6G 1G20G11G14G23G25
  -9425211.23349  -7339500.51046  22059076.4164   22059071.5064
       712.1094
  -4810984.86347  -3740830.25343  23632252.3614   23632246.6664
      2006.0474
  -3897314.48348  -3023697.97945  22151433.0414   22151427.1194
     -1008.5004
  15392051.89849  11978277.46344  23188336.7214   23188331.5334
     -3438.1724
   -169415.28145   -125813.27942  24863402.6824   24863396.3934
      2045.3284
  -8202091.04049  -6377130.21546  21464162.2834   21464156.6864
       -69.2814
 04  9  2 16 35 30.0020000  0  6G 1G20G11G14G23G25
  -9435856.66249  -7347795.64446  22057050.6194   22057045.7684
       707.2504
  -4841063.78048  -3764268.35843  23626528.6354   23626522.9674
      2004.4384
  -3882117.27749  -3011856.00145  22154325.3694   22154319.3654
     -1017.7664
  15443637.17148  12018473.77044  23198153.3614   23198147.5684
     -3439.9534
   -200079.62146   -149707.62042  24857567.4794   24857560.5184
      2043.1254
  -8200985.24649  -6376268.56146  21464372.6824   21464366.8504
       -78.1874
 04  9  2 16 35 45.0020000  0  6G 1G20G11G14G23G25
  -9446428.53449  -7356033.46446  22055038.9394   22055034.4594
       702.2974
  -4871117.53348  -3787686.86643  23620809.4244   23620804.2484
      2002.6414
  -3866780.03749  -2999904.92146  22157243.6044   22157237.9554
     -1027.1564
  15495250.76749  12058692.13144  23207975.0414   23207969.4794
     -3441.8594
   -230709.45546   -173574.95542  24851739.3224   24851732.6624
      2040.7974
  -8199744.80849  -6375301.98646  21464608.6354   21464603.0924
       -87.2504
 04  9  2 16 36  0.0020000  0  6G 1G20G11G14G23G25
  -9456927.66449  -7364214.60346  22053041.0644   22053036.2324
       697.2664
  -4901146.69048  -3811086.19843  23615094.9474   23615090.2054
      2000.8284
  -3851303.58249  -2987845.35846  22160188.7604   22160182.7754
     -1036.6094
  15546891.68849  12098931.78144  23217801.6894   23217796.5764
     -3443.9224
   -261305.50347   -197416.03242  24845916.9324   24845909.7324
      2038.2974
  -8198370.18049  -6374230.84346  21464870.1824   21464865.0804
       -96.3444
 04  9  2 16 36 15.0020000  0  6G 1G20G11G14G23G25
  -9467349.99349  -7372335.89346  22051057.4324   22051053.0804
       692.4694
  -4931147.05648  -3834463.10843  23609386.4244   23609380.7644
      1999.3134
  -3835683.81149  -2975674.10746  22163161.3934   22163155.4394
     -1045.8914
  15598563.96349  12139195.88144  23227634.6194   23227629.6864
     -3445.6564
   -291863.67447   -221227.59942  24840101.5964   24840095.3074
      2036.2034
  -8196857.39549  -6373052.03946  21465158.2914   21465153.0684
      -105.2344
 04  9  2 16 36 30.0030000  0  6G 1G20G11G14G23G25
  -9477699.74749  -7380400.63946  22049088.1944   22049083.0154
       687.7034
  -4961124.06648  -3857821.80343  23603681.8584   23603676.6084
      1997.7194
  -3819923.31849  -2963393.21546  22166160.2024   22166154.4404
     -1055.1094
  15650267.35448  12179484.21144  23237473.6474   23237468.3664
     -3447.4534
   -322389.50848   -245013.91742  24834292.7654   24834286.0194
      2033.9844
  -8195209.80949  -6371768.21146  21465471.8744   21465466.5504
      -114.1724
 04  9  2 16 36 45.0030000  0  6G 1G20G11G14G23G25
  -9487970.25049  -7388403.61946  22047133.6014   22047128.1874
       682.2034
  -4991068.17348  -3881154.86943  23597983.4684   23597978.3084
      1995.3444
  -3804018.90049  -2951000.17646  22169186.9524   22169180.7334
     -1064.9844
  15702000.03549  12219795.37944  23247318.1084   23247313.0424
     -3449.8284
   -352873.48947   -268767.66242  24828491.5224   24828485.4094
      2031.0164
  -8193422.42349  -6370375.43046  21465811.6554   21465806.1984
      -123.6414
 04  9  2 16 37  0.0030000  0  6G 1G20G11G14G23G25
  -9498164.61849  -7396347.28146  22045193.9134   22045189.3154
       677.3284
  -5020983.57248  -3904465.55643  23592290.5304   23592285.3824
      1993.7344
  -3787971.91949  -2938496.03946  22172240.5154   22172234.5304
     -1074.2504
  15753762.97448  12260130.11044  23257167.8044   23257162.9724
     -3451.5474
   -383320.01347   -292492.20142  24822698.3514   24822690.8974
      2028.9384
  -8191497.45349  -6368875.45146  21466178.0624   21466172.9604
      -132.5474
 04  9  2 16 37 15.0030000  0  6G 1G20G11G14G23G25
  -9508283.02449  -7404231.75346  22043268.4684   22043263.3974
       672.3284
  -5050870.25948  -3927753.87343  23586603.6714   23586598.5034
      1991.7814
  -3771782.56448  -2925880.96846  22175321.2024   22175315.1944
     -1083.7194
  15805555.85348  12300488.18444  23267024.2654   23267018.8234
     -3453.5624
   -413729.26747   -316187.68942  24816911.5854   24816904.3544
      2026.2664
  -8189435.09649  -6367268.41646  21466570.6874   21466565.1324
      -141.7504
 04  9  2 16 37 30.0030000  0  6G 1G20G11G14G23G25
  -9518328.12249  -7412059.11246  22041356.8124   22041352.1514
       667.1724
  -5080730.64548  -3951021.69543  23580921.1014   23580916.1124
      1989.7504
  -3755453.55349  -2913157.07946  22178428.1244   22178422.8084
     -1093.3284
  15857375.92849  12340867.45744  23276885.2964   23276879.5304
     -3455.6564
   -444103.79647   -339856.14042  24811131.3664   24811123.9054
      2023.8284
  -8187237.80949  -6365556.24746  21466988.7574   21466983.4294
      -151.0624
 04  9  2 16 37 45.0030000  0  6G 1G20G11G14G23G25
  -9528299.22649  -7419828.78746  22039459.4054   22039454.4054
       661.6724
  -5110563.93748  -3974268.40844  23575244.1944   23575238.8354
      1987.4064
  -3738984.32249  -2900323.92246  22181562.4684   22181556.6404
     -1103.2664
  15909223.67948  12381268.27044  23286751.2264   23286745.8824
     -3458.0314
   -474442.79547   -363496.90342  24805358.3824   24805350.9214
      2020.8134
  -8184904.83149  -6363738.33046  21467432.6244   21467427.1164
      -160.7034
 04  9  2 16 38  0.0030000  0  6G 1G20G11G14G23G25
  -9538191.15349  -7427536.78146  22037577.2724   22037572.4954
       656.8134
  -5140364.68248  -3997489.75743  23569573.1404   23569568.0814
      1985.5634
  -3722369.59748  -2887377.38946  22184724.1714   22184718.4954
     -1112.5004
  15961104.15248  12421694.60244  23296624.0544   23296618.7804
     -3459.8594
   -504740.99047   -387105.88642  24799593.0774   24799585.0074
      2018.4844
  -8182430.99549  -6361810.66046  21467903.7804   21467897.7614
      -169.6724
 04  9  2 16 38 15.0030000  0  6G 1G20G11G14G23G25
  -9548005.49049  -7435184.31346  22035709.5464   22035704.2614
       652.0784
  -5170134.22248  -4020686.78843  23563908.5624   23563903.1244
      1984.0314
  -3705611.01949  -2874318.76346  22187913.1404   22187907.4294
     -1121.7194
  16013015.63148  12462145.07244  23306502.2024   23306496.8314
     -3461.4694
   -534999.84046   -410684.19242  24793834.9764   24793827.4954
      2016.2034
  -8179817.82349  -6359774.41146  21468400.9134   21468395.6594
      -178.5314
 04  9  2 16 38 30.0030000  0  6G 1G20G11G14G23G25
  -9557741.98649  -7442771.19246  22033856.8124   22033852.3084
       646.5314
  -5199872.12948  -4043859.16344  23558249.4374   23558244.0854
      1981.4694
  -3688708.37249  -2861147.88046  22191129.5384   22191123.7724
     -1131.6564
  16064958.30849  12502619.88944  23316386.5074   23316381.1084
     -3463.8754
   -565219.05947   -434231.60542  24788084.0224   24788076.8314
      2013.2814
  -8177065.01549  -6357629.36846  21468924.5304   21468918.9564
      -188.1874
 04  9  2 16 38 45.0030000  0  6G 1G20G11G14G23G25
  -9567401.16849  -7450297.80846  22032018.5694   22032013.8864
       641.2194
  -5229578.77848  -4067007.19644  23552596.5224   23552591.3744
      1979.2664
  -3671662.18348  -2847865.13746  22194373.6554   22194367.4404
     -1141.3284
  16116931.43849  12543118.40644  23326276.6714   23326271.5624
     -3466.0474
   -595399.19547   -457748.57042  24782341.1714   24782333.6444
      2010.6094
  -8174173.00949  -6355375.85446  21469474.8124   21469469.3944
      -197.5474
 04  9  2 16 39  0.0030000  0  6G 1G20G11G14G23G25
  -9576985.20549  -7457765.89146  22030194.5624   22030190.0544
       636.6564
  -5259256.12548  -4090132.40244  23546949.0854   23546943.8044
      1977.6884
  -3654474.61249  -2834472.23846  22197644.3354   22197637.9254
     -1150.3914
  16168932.76648  12583638.89744  23336172.2494   23336166.8084
     -3467.4224
   -625542.17346   -481236.60742  24776605.1714   24776598.2574
      2008.5164
  -8171143.94649  -6353015.54346  21470051.3744   21470045.9794
      -206.2974
 04  9  2 16 39 15.0030000  0  6G 1G20G11G14G23G25
  -9586492.24049  -7465173.97146  22028385.7334   22028380.9094
       631.7504
  -5288902.12248  -4113233.17544  23541307.4914   23541302.1324
      1975.8134
  -3637143.87649  -2820967.77746  22200942.1244   22200936.3974
     -1159.7344
  16220964.10448  12624182.76444  23346074.2024   23346068.4604
     -3469.3444
   -655646.11546   -504694.17542  24770876.1634   24770869.3474
      2006.0784
  -8167975.83749  -6350546.88346  21470654.0854   21470648.8904
      -215.3284
 04  9  2 16 39 30.0030000  0  6G 1G20G11G14G23G25
  -9595922.83649  -7472522.47446  22026590.9914   22026586.4014
       625.9844
  -5318516.99448  -4136309.67744  23535672.0224   23535666.1244
      1973.1414
  -3619670.53149  -2807352.18546  22204267.0854   22204261.2884
     -1169.8124
  16273024.76148  12664749.49644  23355980.5934   23355975.1474
     -3471.7504
   -685711.49747   -528121.73042  24765154.7104   24765147.9994
      2002.9694
  -8164669.27549  -6347970.33046  21471283.3974   21471277.6984
      -225.2034
 04  9  2 16 39 45.0030000  0  6G 1G20G11G14G23G25
  -9605272.93049  -7479808.26846  22024811.8974   22024806.7374
       620.6094
  -5348096.47048  -4159358.61144  23530043.3354   23530037.9254
      1970.7194
  -3602050.65349  -2793622.41446  22207619.9294   22207613.7964
     -1179.6094
  16325118.62648  12705342.10044  23365893.6474   23365888.2144
     -3474.1094
   -715734.08947   -551515.91742  24759441.7574   24759434.9604
      1999.9694
  -8161220.17549  -6345282.71646  21471939.6244   21471934.1794
      -234.7194
 04  9  2 16 40  0.0030000  0  6G 1G20G11G14G23G25
  -9614547.01849  -7487034.82246  22023047.3044   22023042.1044
       615.5784
  -5377644.94848  -4182383.37943  23524420.6714   23524414.7454
      1968.6564
  -3584288.72749  -2779781.96646  22211000.0694   22210994.5464
     -1189.0624
  16377240.97948  12745956.90244  23375812.6794   23375806.6364
     -3475.9844
   -745718.46347   -574880.37042  24753736.0544   24753729.6474
      1997.4844
  -8157632.86249  -6342487.40946  21472622.3274   21472616.6794
      -243.9694
 04  9  2 16 40 15.0030000  0  6G 1G20G11G14G23G25
  -9623740.98449  -7494198.94346  22021297.4994   22021292.4374
       610.3594
  -5407158.15948  -4205380.68344  23518804.2494   23518798.9484
      1966.4534
  -3566380.70848  -2765827.66846  22214408.0774   22214402.0504
     -1198.6564
  16429395.87649  12786597.07144  23385737.2104   23385731.2764
     -3478.0004
   -775660.37047   -598211.69242  24748038.2024   24748031.2654
      1994.7664
  -8153903.32048  -6339581.26046  21473332.2804   21473326.3474
      -253.2344
 04  9  2 16 40 30.0030000  0  6G 1G20G11G14G23G25
  -9632861.60749  -7501305.91446  22019561.8514   22019557.6834
       605.4694
  -5436642.60948  -4228355.57144  23513193.4994   23513188.1904
      1964.5784
  -3548333.34648  -2751764.79846  22217842.1164   22217836.4524
     -1207.9534
  16481576.40148  12827257.18843  23395666.2574   23395661.4054
     -3479.6564
   -805566.57648   -621515.21642  24742347.5154   24742340.4484
      1992.4064
  -8150038.36649  -6336569.60846  21474067.5854   21474062.0934
      -262.2814
 04  9  2 16 40 45.0030000  0  6G 1G20G11G14G23G25
  -9641906.87649  -7508354.16946  22017840.4054   22017835.7724
       600.5314
  -5466096.04548  -4251306.30344  23507589.1794   23507583.6444
      1962.5164
  -3530144.71749  -2737591.83746  22221303.3514   22221297.3784
     -1217.2974
  16533784.52148  12867938.81644  23405601.8124   23405595.9014
     -3481.4534
   -835434.99648   -644789.28142  24736663.5074   24736656.5264
      1989.9064
  -8146035.81249  -6333450.71946  21474829.1324   21474823.8584
      -271.4064
 04  9  2 16 41  0.0030000  0  6G 1G20G11G14G23G25
  -9650877.54649  -7515344.28546  22016133.7414   22016128.6714
       595.6724
  -5495518.97949  -4274233.23644  23501989.6164   23501984.1324
      1960.6414
  -3511815.56649  -2723309.39046  22224791.1714   22224785.6444
     -1226.4224
  16586019.29348  12908641.24444  23415541.2024   23415535.9684
     -3483.0314
   -865266.16548   -668034.34642  24730986.3274   24730979.8824
      1987.6724
  -8141896.30949  -6330225.13146  21475616.9604   21475611.2104
      -280.3914
 04  9  2 16 41 15.0030000  0  6G 1G20G11G14G23G25
  -9659770.97749  -7522274.23946  22014441.1084   22014436.5304
       590.7034
  -5524908.60248  -4297134.23244  23496397.1634   23496391.3314
      1958.4694
  -3493343.33049  -2708915.44846  22228306.6084   22228300.5774
     -1235.9224
  16638283.24048  12949366.36644  23425487.3664   23425481.6944
     -3484.8754
   -895057.44247   -691248.32742  24725317.2964   24725310.7104
      1985.1414
  -8137617.21949  -6326890.77446  21476431.4444   21476425.9484
      -289.6254
 04  9  2 16 41 30.0030000  0  6G 1G20G11G14G23G25
  -9668589.88749  -7529146.10546  22012763.0464   22012758.1444
       585.3284
  -5554267.33048  -4320011.16744  23490810.1164   23490804.6444
      1956.0784
  -3474730.61848  -2694412.02946  22231848.3584   22231842.6874
     -1245.6874
  16690573.53948  12990112.03243  23435437.4374   23435432.5504
     -3487.0784
   -924811.33946   -714433.11542  24719655.6554   24719649.1474
      1982.2664
  -8133201.23749  -6323449.74246  21477271.5154   21477265.6514
      -299.0944
 04  9  2 16 41 45.0030000  0  6G 1G20G11G14G23G25
  -9677327.60449  -7535954.70346  22011100.1874   22011095.3194
       580.1254
  -5583588.40548  -4342858.73344  23485230.7334   23485225.7144
      1953.7194
  -3455970.94848  -2679794.12046  22235418.1944   22235412.3394
     -1255.1874
  16742896.83348  13030883.41944  23445394.7574   23445389.2574
     -3489.0474
   -954521.14846   -737583.61242  24714002.2884   24713995.2654
      1979.5634
  -8128641.67148  -6319896.82846  21478139.2494   21478133.9054
      -308.4844
 04  9  2 16 42  0.0030000  0  6G 1G20G11G14G23G25
  -9685989.64249  -7542704.34746  22009451.8824   22009446.8314
       574.9694
  -5612877.13948  -4365681.14544  23479657.1244   23479651.3974
      1951.5004
  -3437069.92348  -2665066.05946  22239015.1554   22239009.1404
     -1264.7194
  16795247.39348  13071676.03343  23455356.7334   23455351.1794
     -3490.9224
   -984192.45446   -760704.10742  24708355.7494   24708348.7884
      1976.7344
  -8123943.93848  -6316236.25846  21479033.1244   21479027.5584
      -317.9064
 04  9  2 16 42 15.0030000  0  6G 1G20G11G14G23G25
  -9694574.36549  -7549393.72846  22007818.2964   22007813.5854
       569.9224
  -5642131.63548  -4388476.83244  23474090.6874   23474084.3124
      1949.2664
  -3418025.87048  -2650226.53546  22242639.2104   22242633.4174
     -1274.2344
  16847626.79748  13112491.14644  23465323.7184   23465318.5464
     -3492.7974
  -1013823.60347   -783793.25842  24702716.7334   24702710.2224
      1974.2344
  -8119106.47349  -6312466.80046  21479953.6084   21479948.3314
      -327.0164
 04  9  2 16 42 30.0030000  0  6G 1G20G11G14G23G25
  -9703083.41749  -7556024.14946  22006198.7414   22006193.8274
       564.8594
  -5671353.35049  -4411247.00544  23468529.6324   23468523.7654
      1947.0784
  -3398840.52249  -2635276.92746  22246289.9914   22246284.3584
     -1283.6564
  16900033.23248  13153327.29643  23475296.1794   23475291.2844
     -3494.5944
  -1043415.90547   -806852.22242  24697086.2334   24697079.2184
      1971.5474
  -8114130.82249  -6308589.66846  21480900.4214   21480894.9294
      -336.2344
 04  9  2 16 42 45.0030000  0  6G 1G20G11G14G23G25
  -9711512.76049  -7562592.46646  22004594.8274   22004589.9444
       559.5004
  -5700537.86849  -4433988.17943  23462976.1084   23462970.3664
      1944.5784
  -3379510.06949  -2620214.22746  22249968.2574   22249962.2334
     -1293.4064
  16952470.69748  13194187.64644  23485274.9604   23485269.8784
     -3496.6254
  -1072965.28948   -829877.67942  24691462.1794   24691456.1124
      1968.6724
  -8109012.71849  -6304601.51646  21481874.6634   21481868.6984
      -345.7664
 04  9  2 16 43  0.0030000  0  6G 1G20G11G14G23G25
  -9719869.37449  -7569104.10146  22003004.7184   22003000.0974
       554.5634
  -5729692.11749  -4456705.76944  23457427.8744   23457422.2454
      1942.4384
  -3360041.32348  -2605043.78246  22253673.2024   22253667.3274
     -1302.7814
  17004932.04148  13235066.59944  23495257.8584   23495252.9374
     -3498.4374
  -1102478.70948   -852875.10442  24685846.2024   24685839.8544
      1966.1724
  -8103759.36049  -6300508.00046  21482874.1014   21482868.1204
      -354.9224
 04  9  2 16 43 15.0030000  0  6G 1G20G11G14G23G25
  -9728146.92049  -7575554.13446  22001429.5774   22001424.6634
       549.4534
  -5758809.55049  -4479394.66644  23451886.9834   23451881.2534
      1940.1884
  -3340428.00949  -2589760.70346  22257405.3664   22257399.7844
     -1312.1094
  17057423.42948  13275968.95844  23505247.1634   23505241.4294
     -3500.1254
  -1131949.79348   -875839.58442  24680238.7184   24680231.7884
      1963.6094
  -8098364.41049  -6296304.13846  21483900.7104   21483895.0774
      -364.1094
 04  9  2 16 43 30.0030000  0  6G 1G20G11G14G23G25
  -9736346.75449  -7581943.61246  21999869.1794   21999864.5584
       543.8754
  -5787891.23049  -4502055.71144  23446353.3124   23446346.8784
      1937.4064
  -3320671.42649  -2574365.95446  22261165.1324   22261159.1984
     -1322.1414
  17109943.42748  13316893.61843  23515240.9834   23515235.6324
     -3502.4374
  -1161379.69047   -898771.94742  24674638.0304   24674631.9334
      1960.4384
  -8092829.13849  -6291990.93446  21484954.1714   21484948.4994
      -373.9224
 04  9  2 16 43 45.0030000  0  6G 1G20G11G14G23G25
  -9744467.21549  -7588271.23646  21998323.7414   21998319.0584
       538.7344
  -5816935.27349  -4524687.43644  23440826.1634   23440820.6364
      1935.0164
  -3300770.03048  -2558858.38146  22264952.3044   22264946.2294
     -1331.5474
  17162493.59148  13357841.77543  23525240.9834   23525235.5774
     -3504.3444
  -1190766.73847   -921670.92542  24669045.6794   24669038.9094
      1957.7504
  -8087151.84849  -6287567.06946  21486034.4054   21486028.5974
      -383.2504
 04  9  2 16 44  0.0030000  0  6G 1G20G11G14G23G25
  -9752511.24849  -7594539.30846  21996793.1714   21996788.4094
       533.6564
  -5845944.42649  -4547291.97844  23435305.4834   23435300.4334
      1932.7034
  -3280726.90448  -2543240.38546  22268765.9524   22268760.0974
     -1341.0784
  17215070.81248  13398811.02644  23535246.4524   23535240.8704
     -3506.1254
  -1220113.86647   -944538.79142  24663461.0384   24663454.4764
      1955.0784
  -8081335.44248  -6283034.81346  21487141.3664   21487135.7454
      -392.4374
 04  9  2 16 44 15.0030000  0  6G 1G20G11G14G23G25
  -9760481.02549  -7600749.51546  21995276.4054   21995271.6084
       528.6254
  -5874920.67549  -4569870.84644  23429792.4374   23429786.9094
      1930.4224
  -3260544.21749  -2527513.61846  22272606.8904   22272600.9524
     -1350.3284
  17267672.94347  13439799.67043  23545256.1244   23545250.6514
     -3507.8594
  -1249423.05147   -967377.09542  24657883.1874   24657876.6714
      1952.4844
  -8075381.98349  -6278395.73946  21488274.2884   21488268.6874
      -401.6874
 04  9  2 16 44 30.0030000  0  6G 1G20G11G14G23G25
  -9768372.93249  -7606899.05546  21993774.7654   21993769.9174
       523.7814
  -5903860.07749  -4592421.02644  23424285.0544   23424279.2614
      1928.3444
  -3240218.41148  -2511675.32546  22276474.5774   22276468.9834
     -1359.5624
  17320303.41048  13480810.40143  23555271.0074   23555265.8624
     -3509.4534
  -1278690.61247   -990182.97942  24652313.9444   24652307.6474
      1949.9534
  -8069287.92248  -6273647.12446  21489433.6474   21489427.7024
      -410.7504
 04  9  2 16 44 45.0030000  0  6G 1G20G11G14G23G25
  -9776191.46849  -7612991.41746  21992287.1244   21992282.3434
       518.7504
  -5932766.96149  -4614945.86844  23418783.9444   23418778.7104
      1926.0314
  -3219754.00049  -2495729.04746  22280369.1014   22280362.9294
     -1368.9224
  17372957.61447  13521839.63443  23565291.1324   23565285.9294
     -3511.0784
  -1307920.91047  -1012959.81842  24646751.7654   24646745.1754
      1947.4534
  -8063057.69349  -6268792.39546  21490619.3664   21490613.8704
      -419.9064
 04  9  2 16 45  0.0030000  0  6G 1G20G11G14G23G25
  -9783935.07448  -7619025.39846  21990813.2804   21990808.8394
       513.0474
  -5961639.55349  -4637443.99044  23413289.6324   23413284.3784
      1923.0004
  -3199149.57549  -2479673.65546  22284290.1244   22284283.9834
     -1378.9374
  17425636.98648  13562888.46743  23575315.6794   23575310.7024
     -3513.4844
  -1337112.37247  -1035706.38042  24641196.8044   24641189.6754
      1944.0944
  -8056689.71049  -6263830.33846  21491831.0464   21491825.6714
      -429.7814
 04  9  2 16 45 15.0030000  0  6G 1G20G11G14G23G25
  -9791598.21049  -7624996.65046  21989355.2334   21989350.2334
       508.3914
  -5990472.22149  -4659910.97144  23407802.8514   23407797.4014
      1921.1414
  -3178399.80449  -2463505.01546  22288238.3974   22288232.6874
     -1387.9224
  17478346.96648  13603961.17543  23585345.6944   23585341.1944
     -3514.7974
  -1366259.42447  -1058418.34442  24635650.4914   24635643.8904
      1941.8914
  -8050178.35849  -6258756.54246  21493070.1714   21493064.5974
      -438.6254
 04  9  2 16 45 30.0030000  0  6G 1G20G11G14G23G25
  -9799181.98548  -7630906.08246  21987911.6554   21987906.8904
       502.7974
  -6019265.65049  -4682347.41044  23402323.8194   23402318.6284
      1918.2034
  -3157505.67449  -2447223.87746  22292214.2964   22292208.6754
     -1397.7504
  17531086.27247  13645056.71043  23595382.5624   23595376.4954
     -3517.0474
  -1395363.23248  -1081096.61442  24630112.7334   24630105.2374
      1938.8134
  -8043524.84448  -6253571.98846  21494336.2964   21494330.9014
      -448.2504
 04  9  2 16 45 45.0030000  0  6G 1G20G11G14G23G25
  -9806688.35549  -7636755.19646  21986483.3194   21986478.9564
       497.6414
  -6048021.57449  -4704754.62644  23396851.6634   23396846.0264
      1915.6094
  -3136469.14949  -2430831.79346  22296217.5304   22296211.4334
     -1407.4224
  17583852.94747  13686173.57444  23605423.1164   23605418.0584
     -3518.9374
  -1424425.44748  -1103742.48142  24624582.1084   24624575.0694
      1935.9694
  -8036730.94148  -6248278.04846  21495629.1634   21495623.2494
      -457.7974
 04  9  2 16 46  0.0030000  0  6G 1G20G11G14G23G25
  -9814115.71249  -7642542.73846  21985070.1084   21985065.3824
       492.7814
  -6076738.25249  -4727131.26144  23391387.2494   23391381.4094
      1913.3284
  -3115288.69648  -2414327.54246  22300248.2724   22300242.4644
     -1416.6254
  17636648.49147  13727312.94743  23615469.9374   23615465.1404
     -3520.3754
  -1453444.40148  -1126354.63542  24619059.6244   24619053.4644
      1933.4064
  -8029795.10049  -6242873.49246  21496949.0854   21496943.2694
      -466.9374
 04  9  2 16 46 15.0030000  0  6G 1G20G11G14G23G25
  -9821470.15948  -7648273.47246  21983670.4214   21983666.0194
       487.7344
  -6105421.47349  -4749481.81744  23385928.7884   23385923.2764
      1910.9224
  -3093970.51048  -2397715.97946  22304304.9134   22304298.6474
     -1425.9534
  17689466.81848  13768470.06043  23625521.1474   23625515.5074
     -3522.1564
  -1482426.01648  -1148937.69642  24613544.4294   24613537.9444
      1930.6724
  -8022723.33048  -6237363.01546  21498294.7574   21498288.9874
      -476.0784
 04  9  2 16 46 30.0030000  0  6G 1G20G11G14G23G25
  -9828748.46349  -7653944.86846  21982285.2964   21982280.6364
       482.8754
  -6134067.82249  -4771803.63044  23380477.7964   23380472.4014
      1908.7194
  -3072511.37949  -2380994.58845  22308388.5544   22308382.2694
     -1435.1094
  17742310.87647  13809647.23643  23635577.1634   23635571.7104
     -3523.5944
  -1511367.06948  -1171489.17242  24608037.3434   24608030.1404
      1928.2344
  -8015512.40948  -6231744.11846  21499666.8274   21499660.9134
      -485.1414
 04  9  2 16 46 45.0030000  0  6G 1G20G11G14G23G25
  -9835952.87248  -7659558.67946  21980914.5854   21980910.0344
       477.9224
  -6162679.28649  -4794098.26644  23375033.0304   23375027.8234
      1906.3754
  -3050913.74049  -2364165.26345  22312498.2494   22312492.4954
     -1444.3594
  17795178.36348  13850842.68243  23645636.9764   23645632.3474
     -3525.2344
  -1540269.73448  -1194010.66542  24602537.5624   24602530.6474
      1925.6884
  -8008164.67149  -6226018.59846  21501064.9524   21501059.4294
      -494.3124
 04  9  2 16 47  0.0030000  0  6G 1G20G11G14G23G25
  -9843078.33148  -7665110.98246  21979558.0624   21979553.7264
       472.3444
  -6191250.57649  -4816361.60044  23369595.9834   23369590.8434
      1903.4224
  -3029172.44848  -2347224.01246  22316635.6554   22316629.8544
     -1454.1564
  17848074.26847  13892060.23543  23655703.0154   23655697.3084
     -3527.3124
  -1569128.88548  -1216498.31543  24597046.1944   24597039.0544
      1922.5314
  -8000674.95948  -6220182.46146  21502490.3744   21502484.5974
      -504.0474
 04  9  2 16 47 15.0030000  0  6G 1G20G11G14G23G25
  -9850125.76949  -7670602.49046  21978217.3274   21978212.8434
       467.4844
  -6219782.42149  -4838594.20944  23364166.7334   23364161.3704
      1901.0004
  -3007288.46348  -2330171.55946  22320799.9994   22320793.9404
     -1463.4064
  17900997.54847  13933299.13543  23665773.7884   23665768.3044
     -3528.9224
  -1597945.31148  -1238952.65843  24591562.5464   24591555.1324
      1919.9224
  -7993044.10849  -6214236.34046  21503942.4444   21503936.9174
      -513.2504
 04  9  2 16 47 30.0030000  0  6G 1G20G11G14G23G25
  -9857099.82248  -7676036.80246  21976890.3584   21976885.8904
       462.2194
  -6248279.14749  -4860799.43744  23358744.0154   23358738.5074
      1898.2974
  -2985266.57748  -2313011.66046  22324990.6474   22324984.7224
     -1473.0004
  17953943.46247  13974555.68243  23675849.7184   23675844.0344
     -3530.8594
  -1626723.62148  -1261377.30043  24586085.6324   24586078.8354
      1916.9844
  -7985276.81448  -6208183.90646  21505420.6714   21505415.0584
      -522.5944
 04  9  2 16 47 45.0030000  0  6G 1G20G11G14G23G25
  -9863996.42848  -7681410.78046  21975578.0854   21975573.2654
       457.2504
  -6276736.41949  -4882973.92744  23353328.8974   23353323.2884
      1895.9064
  -2963102.77348  -2295741.16846  22329208.2184   22329202.4914
     -1482.2814
  18006916.06047  14015833.00243  23685929.9684   23685923.7654
     -3532.3914
  -1655459.58148  -1283768.94243  24580617.2334   24580610.8584
      1914.3594
  -7977368.97348  -6202021.94646  21506925.2654   21506919.6124
      -531.7974
 04  9  2 16 48  0.0030000  0  6G 1G20G11G14G23G25
  -9870816.42149  -7686725.06046  21974280.4684   21974275.4834
       452.0474
  -6305155.01049  -4905118.28244  23347920.9374   23347915.6634
      1893.2344
  -2940798.06148  -2278360.89145  22333452.6944   22333446.7724
     -1491.7814
  18059914.31447  14057130.30143  23696014.9914   23696010.0304
     -3534.1254
  -1684154.07548  -1306128.25442  24575157.0464   24575150.1284
      1911.6094
  -7969321.47749  -6195751.18246  21508457.1714   21508451.1874
      -541.2034
 04  9  2 16 48 15.0030000  0  6G 1G20G11G14G23G25
  -9877559.36748  -7691979.29746  21972996.9684   21972992.3864
       446.9384
  -6333534.17349  -4927231.90944  23342520.1474   23342514.9334
      1890.5314
  -2918352.01748  -2260870.47646  22337723.8044   22337718.0074
     -1501.2034
  18112938.53247  14098447.87443  23706104.5934   23706099.4334
     -3535.8914
  -1712806.49148  -1328454.82242  24569704.8514   24569697.6474
      1908.6724
  -7961133.81649  -6189371.18446  21510015.0934   21510009.2264
      -550.6254
 04  9  2 16 48 30.0030000  0  6G 1G20G11G14G23G25
  -9884226.73149  -7697174.63046  21971728.6554   21971723.8664
       442.2504
  -6361875.12649  -4949315.76344  23337127.5694   23337121.7334
      1888.4064
  -2895766.11548  -2243271.07846  22342021.8434   22342016.2574
     -1510.0944
  18165987.21547  14139784.49443  23716199.7024   23716194.3624
     -3537.0944
  -1741418.21648  -1350749.65542  24564260.5154   24564253.2024
      1906.3914
  -7952807.49249  -6182883.14746  21511598.7884   21511593.3474
      -559.4694
 04  9  2 16 48 45.0030000  0  6G 1G20G11G14G23G25
  -9890818.03049  -7702310.70646  21970474.0304   21970469.4014
       436.7194
  -6390177.23049  -4971369.33044  23331741.8514   23331736.2144
      1885.3444
  -2873040.01248  -2225562.43146  22346346.5774   22346341.0034
     -1519.8594
  18219060.73647  14181140.48343  23726299.5304   23726294.2224
     -3539.2664
  -1769988.75448  -1373012.39542  24558823.3974   24558816.4094
      1903.1564
  -7944341.89049  -6176286.56046  21513210.3124   21513204.6594
      -569.2194
 04  9  2 16 49  0.0030000  0  6G 1G20G11G14G23G25
  -9897332.27948  -7707386.73946  21969234.4134   21969229.9914
       431.5784
  -6418439.19949  -4993391.64544  23326363.8044   23326358.3234
      1882.6254
  -2850172.73348  -2207743.78946  22350698.0154   22350692.4644
     -1529.2664
  18272159.95247  14222516.47243  23736404.1474   23736398.5544
     -3540.9694
  -1798516.97448  -1395242.16042  24553394.7264   24553387.2264
      1900.2504
  -7935736.01649  -6169580.68646  21514847.6714   21514842.5974
      -578.5944
 04  9  2 16 49 15.0030000  0  6G 1G20G11G14G23G25
  -9903769.17848  -7712402.50546  21968009.7264   21968004.6014
       426.8754
  -6446660.55749  -5015382.31744  23320993.2264   23320987.9994
      1880.3134
  -2827164.11448  -2189814.99646  22355076.3124   22355070.6014
     -1538.2504
  18325285.02047  14263912.60643  23746513.5774   23746507.8194
     -3542.2344
  -1827002.61148  -1417438.75342  24547972.9684   24547966.7224
      1897.9534
  -7926989.67048  -6162765.35946  21516512.1244   21516507.0304
      -587.4844
 04  9  2 16 49 30.0030000  0  6G 1G20G11G14G23G25
  -9910130.44248  -7717359.32746  21966798.8354   21966794.0154
       421.1254
  -6474842.59049  -5037342.32644  23315630.2104   23315624.7614
      1877.0634
  -2804015.98448  -2171777.50646  22359481.4214   22359475.3474
     -1548.2504
  18378434.22047  14305327.54243  23756627.1474   23756622.0624
     -3544.6254
  -1855447.15048  -1439603.29642  24542560.7654   24542554.3354
      1894.5164
  -7918104.51848  -6155841.86346  21518203.2494   21518197.4134
      -597.4224
 04  9  2 16 49 45.0030000  0  6G 1G20G11G14G23G25
  -9916413.11248  -7722254.91146  21965603.4994   21965598.8514
       416.2814
  -6502982.20249  -5059269.28444  23310275.7654   23310269.9874
      1874.6564
  -2780725.40348  -2153629.00446  22363913.4764   22363907.4874
     -1557.3914
  18431610.44247  14346763.55343  23766746.4764   23766740.9404
     -3545.9224
  -1883847.45347  -1461733.38042  24537156.2964   24537150.0034
      1891.9064
  -7909077.50548  -6148807.82546  21519920.6164   21519915.2534
      -606.4844
 04  9  2 16 50  0.0030000  0  6G 1G20G11G14G23G25
  -9922621.99248  -7727092.99246  21964421.7964   21964416.9174
       411.3594
  -6531084.02549  -5081166.81544  23304928.2654   23304922.3864
      1872.1414
  -2757297.29448  -2135373.35245  22368371.6944   22368366.0464
     -1566.6414
  18484808.77447  14388216.77743  23776869.9834   23776864.6164
     -3547.4064
  -1912208.36047  -1483832.78142  24531759.6874   24531752.9724
      1889.2344
  -7899913.57348  -6141667.11346  21521664.5934   21521658.8944
      -615.5474
 04  9  2 16 50 15.0030000  0  6G 1G20G11G14G23G25
  -9928751.52548  -7731869.24746  21963255.4524   21963251.0974
       406.1094
  -6559142.21648  -5103030.33444  23299588.9684   23299582.8234
      1869.1884
  -2733726.11648  -2117006.20946  22372857.0464   22372851.0504
     -1576.0474
  18538034.61747  14429691.42643  23786998.4604   23786993.2574
     -3549.2504
  -1940524.25447  -1505897.09243  24526370.9764   24526364.8624
      1886.3444
  -7890607.12548  -6134415.33446  21523435.4294   21523430.2884
      -625.0784
 04  9  2 16 50 30.0030000  0  6G 1G20G11G14G23G25
  -9934802.17648  -7736584.03246  21962103.9444   21962099.5694
       400.6724
  -6587156.99248  -5124860.01744  23294257.6404   23294252.5194
      1866.2034
  -2710012.55248  -2098528.11246  22377369.8354   22377363.7654
     -1585.6874
  18591287.48847  14471187.16243  23797131.7184   23797126.9644
     -3551.2504
  -1968795.56346  -1527926.65942  24520991.5074   24520984.8904
      1883.2814
  -7881158.72748  -6127052.94146  21525233.6014   21525228.0074
      -634.7194
 04  9  2 16 50 45.0030000  0  6G 1G20G11G14G23G25
  -9940775.25449  -7741238.38246  21960967.2104   21960962.1984
       395.5474
  -6615129.43248  -5146656.72344  23288934.7654   23288929.0584
      1863.4064
  -2686157.85648  -2079940.05146  22381909.0154   22381902.9484
     -1595.1094
  18644565.87347  14512702.76043  23807270.7334   23807265.3824
     -3552.7974
  -1997023.52547  -1549922.47842  24515619.9684   24515612.7224
      1880.3914
  -7871569.61249  -6119580.90946  21527058.6474   21527052.8864
      -643.9224
 04  9  2 16 51  0.0030000  0  6G 1G20G11G14G23G25
  -9946671.90449  -7745833.16346  21959845.2414   21959840.8194
       390.7504
  -6643060.36548  -5168421.08644  23283619.7884   23283614.0504
      1860.8754
  -2662163.29448  -2061242.99346  22386475.3274   22386469.4174
     -1604.0944
  18697868.66947  14554237.38443  23817413.5224   23817408.3664
     -3554.1724
  -2025209.06847  -1571885.20043  24510256.0304   24510249.4404
      1877.8444
  -7861840.94948  -6112000.13046  21528909.9604   21528904.3274
      -653.0314
 04  9  2 16 51 15.0030000  0  6G 1G20G11G14G23G25
  -9952495.21249  -7750370.80546  21958737.2414   21958732.4644
       385.2814
  -6670952.79349  -5190155.43644  23278312.1944   23278306.4914
      1857.6724
  -2638032.03749  -2042439.43545  22391067.0624   22391061.0774
     -1613.7974
  18751192.53947  14595788.43443  23827561.3584   23827556.1874
     -3556.1094
  -2053355.20347  -1593817.26142  24504900.3904   24504893.6244
      1874.5944
  -7851975.83149  -6104313.03246  21530786.8904   21530781.2724
      -662.7034
 04  9  2 16 51 30.0030000  0  6G 1G20G11G14G23G25
  -9958240.52949  -7754847.66846  21957643.5694   21957639.5464
       380.5314
  -6698801.71849  -5211855.89444  23273012.4684   23273007.0384
      1855.2974
  -2613759.43149  -2023525.72445  22395686.1164   22395680.3044
     -1622.6564
  18804542.17647  14637359.55043  23837712.9604   23837708.1124
     -3557.3284
  -2081457.42347  -1615715.07243  24499552.4214   24499545.7104
      1872.1884
  -7841969.53949  -6096515.92346  21532690.9994   21532685.4684
      -671.6414
 04  9  2 16 51 45.0030000  0  6G 1G20G11G14G23G25
  -9963908.66549  -7759264.39146  21956565.3904   21956560.1204
       374.9844
  -6726607.69549  -5233522.87644  23267721.4134   23267715.6284
      1852.0474
  -2589346.47748  -2004502.66746  22400332.1324   22400326.1554
     -1632.4224
  18857916.69147  14678950.07543  23847869.2494   23847864.3864
     -3559.3444
  -2109516.29348  -1637579.10942  24494212.9374   24494206.2924
      1868.8284
  -7831822.94448  -6088609.48046  21534621.7494   21534616.4174
      -681.4224
 04  9  2 16 52  0.0030000  0  6G 1G20G11G14G23G25
  -9969498.32949  -7763619.97446  21955501.5624   21955496.4794
       370.3134
  -6754369.20949  -5255155.20444  23262437.9214   23262432.7654
      1849.4694
  -2564792.03249  -1985369.33246  22405004.2334   22404998.3664
     -1641.4374
  18911317.30247  14720560.91243  23858031.3744   23858026.8514
     -3560.6414
  -2137530.41248  -1659408.27643  24488882.0384   24488875.4134
      1866.2974
  -7821534.78449  -6080592.73646  21536579.5624   21536574.4374
      -690.3284
 04  9  2 16 52 15.0030000  0  6G 1G20G11G14G23G25
  -9975011.17549  -7767915.68046  21954452.6634   21954448.3904
       364.8914
  -6782087.71049  -5276754.03044  23257163.7804   23257158.2884
      1846.4064
  -2540097.78048  -1966127.07046  22409703.8274   22409697.9254
     -1651.0784
  18964742.10248  14762190.63743  23868198.0074   23868192.8234
     -3562.6094
  -2165501.40848  -1681203.83643  24483559.5934   24483552.6554
      1863.2344
  -7811106.59548  -6072466.87546  21538564.2024   21538558.2924
      -699.9374
 04  9  2 16 52 30.0030000  0  6G 1G20G11G14G23G25
  -9980447.78649  -7772152.01446  21953417.9604   21953413.4214
       359.8444
  -6809763.60249  -5298319.66944  23251897.2724   23251891.6204
      1843.5164
  -2515264.40549  -1946776.40346  22414429.3044   22414423.4644
     -1660.2504
  19018190.43448  14803838.63143  23878369.1944   23878363.7334
     -3564.0784
  -2193429.76648  -1702966.18243  24478244.8434   24478238.1794
      1860.4384
  -7800539.05549  -6064232.43346  21540575.0694   21540569.1984
      -709.2034
 04  9  2 16 52 45.0030000  0  6G 1G20G11G14G23G25
  -9985806.71549  -7776327.79646  21952398.3434   21952393.8154
       354.5314
  -6837395.07449  -5319850.68144  23246639.0934   23246633.4644
      1840.5164
  -2490290.62048  -1927316.31646  22419181.4444   22419175.6444
     -1669.7504
  19071663.69948  14845506.10843  23888544.7184   23888539.4214
     -3565.7974
  -2221313.91148  -1724694.08842  24472938.2264   24472931.7064
      1857.3594
  -7789830.65249  -6055888.22346  21542613.0624   21542607.3624
      -718.6874
 04  9  2 16 53  0.0030000  0  6G 1G20G11G14G23G25
  -9991088.93549  -7780443.80146  21951393.0774   21951388.3944
       349.8134
  -6864982.90149  -5341347.66944  23241389.0464   23241383.3944
      1837.9384
  -2465177.35848  -1907747.54546  22423960.6634   22423954.4294
     -1678.6254
  19125161.00848  14887192.31343  23898724.6944   23898719.2144
     -3567.0314
  -2249154.80348  -1746388.23543  24467640.6944   24467634.1984
      1854.9384
  -7778982.44548  -6047435.06046  21544677.3274   21544671.6904
      -727.6564
 04  9  2 16 53 15.0030000  0  6G 1G20G11G14G23G25
  -9996296.23949  -7784501.43246  21950401.9444   21950397.8434
       344.7344
  -6892528.60149  -5362811.85144  23236147.3514   23236141.9214
      1834.9694
  -2439926.54948  -1888071.60146  22428765.6244   22428759.8434
     -1688.0164
  19178680.37648  14928895.68943  23908909.1014   23908903.8124
     -3568.6254
  -2276954.03048  -1768049.97643  24462350.5384   24462343.6714
      1851.9224
  -7767996.17948  -6038874.34646  21546767.7184   21546762.0114
      -737.0164
 04  9  2 16 53 30.0030000  0  6G 1G20G11G14G23G25
 -10001423.49149  -7788496.70446  21949426.5774   21949422.0154
       339.3134
  -6920026.80049  -5384239.00944  23230914.1794   23230909.0694
      1831.8444
  -2414533.16648  -1868284.56346  22433597.6714   22433592.1204
     -1697.4064
  19232226.89248  14970620.21343  23919098.8824   23919093.4484
     -3570.4694
  -2304706.52548  -1789675.27443  24457069.5154   24457062.6444
      1848.7974
  -7756866.74549  -6030202.06446  21548886.0384   21548880.0264
      -746.5784
 04  9  2 16 53 45.0030000  0  6G 1G20G11G14G23G25
 -10006475.85649  -7792433.59546  21948465.0694   21948460.2064
       334.4694
  -6947482.31949  -5405632.91644  23225689.7804   23225684.2924
      1829.0314
  -2389002.41848  -1848390.47846  22438456.0304   22438450.2334
     -1706.5164
  19285795.33148  15012361.85643  23929292.2724   23929287.3154
     -3571.9064
  -2332417.30248  -1811268.07443  24451796.1714   24451789.2654
      1846.1414
  -7745599.29049  -6021422.22246  21551029.7964   21551023.7764
      -755.5784
 04  9  2 16 54  0.0030000  0  6G 1G20G11G14G23G25
 -10011451.94849  -7796311.07846  21947518.1014   21947513.3974
       329.1094
  -6974893.55849  -5426992.31844  23220473.7574   23220468.1164
      1825.8444
  -2363333.05648  -1828388.40446  22443340.5774   22443335.2374
     -1716.0624
  19339386.91448  15054121.48743  23939490.5384   23939485.3394
     -3573.5784
  -2360084.81648  -1832827.16443  24446531.3824   24446524.5694
      1843.0314
  -7734192.39549  -6012533.74146  21553200.4994   21553194.9214
      -765.2034
 04  9  2 16 54 15.0030000  0  6G 1G20G11G14G23G25
 -10016352.44049  -7800129.64046  21946585.6404   21946580.9134
       323.9064
  -7002260.97849  -5448317.57644  23215265.9444   23215260.4874
      1822.7814
  -2337525.72848  -1808278.78946  22448251.8744   22448245.8354
     -1725.3594
  19393000.93848  15095898.64043  23949693.2184   23949688.1124
     -3575.2344
  -2387709.67348  -1854352.99043  24441274.5934   24441268.2724
      1839.9224
  -7722646.82149  -6003537.18746  21555397.5464   21555391.5114
      -774.5624
 04  9  2 16 54 30.0030000  0  6G 1G20G11G14G23G25
 -10021172.96849  -7803885.88746  21945668.3434   21945663.2844
       319.1724
  -7029579.94749  -5469605.06444  23210067.1164   23210061.7334
      1820.0944
  -2311576.36548  -1788058.51346  22453189.5774   22453183.7264
     -1734.2814
  19446641.60148  15137696.54643  23959900.8744   23959895.4094
     -3576.4844
  -2415287.46248  -1875842.17643  24436026.3434   24436019.9014
      1837.4384
  -7710958.22749  -5994429.18846  21557621.7724   21557616.1244
      -783.5474
 04  9  2 16 54 45.0030000  0  6G 1G20G11G14G23G25
 -10025916.75749  -7807582.34746  21944765.6324   21944760.7924
       313.9384
  -7056853.48749  -5490857.16744  23204877.4374   23204871.9874
      1816.9224
  -2285488.31648  -1767730.18546  22458154.3664   22458148.0074
     -1743.5784
  19500305.68248  15179512.69843  23970112.8044   23970107.3274
     -3578.1414
  -2442821.40348  -1897297.17943  24430787.2334   24430780.5194
      1834.2974
  -7699129.82749  -5985212.25646  21559872.9134   21559867.2924
      -793.0314
 04  9  2 16 55  0.0030000  0  6G 1G20G11G14G23G25
 -10030586.64149  -7811221.21246  21943876.8044   21943872.5544
       308.7194
  -7084084.11449  -5512075.82444  23199695.2804   23199689.8544
      1813.7344
  -2259264.40248  -1747295.96846  22463144.6944   22463138.8544
     -1752.9374
  19553990.18348  15221344.74543  23980328.3584   23980323.2534
     -3579.8284
  -2470314.15348  -1918720.08543  24425555.1404   24425548.7334
      1831.3134
  -7687164.43549  -5975888.57946  21562149.6474   21562143.7494
      -802.3754
 04  9  2 16 55 15.0030000  0  6G 1G20G11G14G23G25
 -10035179.76849  -7814800.27246  21943002.9444   21942997.9334
       303.7814
  -7111268.79049  -5533258.69844  23194522.1474   23194516.9834
      1810.8914
  -2232901.87149  -1726753.75046  22468160.8974   22468155.0464
     -1761.9844
  19607698.01948  15263194.98343  23990548.5154   23990543.1944
     -3581.0944
  -2497762.80148  -1940108.62843  24420332.2414   24420325.2414
      1828.5784
  -7675059.21449  -5966455.94446  21564453.1794   21564447.5734
      -811.4844
 04  9  2 16 55 30.0030000  0  6G 1G20G11G14G23G25
 -10039693.84349  -7818317.71946  21942143.7964   21942138.6404
       298.0314
  -7138404.89049  -5554403.69344  23189358.5074   23189353.0034
      1807.1414
  -2206398.51449  -1706101.78946  22473204.4374   22473198.9214
     -1771.8444
  19661431.32348  15305065.05543  24000774.0224   24000768.9604
     -3583.3594
  -2525164.95348  -1961460.95543  24415117.2494   24415110.6244
      1824.9694
  -7662811.88449  -5956912.56146  21566783.7024   21566777.9914
      -821.4844
 04  9  2 16 55 45.0030000  0  6G 1G20G11G14G23G25
 -10044126.74549  -7821771.93146  21941300.1474   21941295.3824
       293.1884
  -7165490.09949  -5575509.05944  23184204.7024   23184198.6084
      1804.3754
  -2179752.40648  -1685338.60945  22478275.2574   22478269.3044
     -1780.8124
  19715192.07048  15346956.54343  24011004.3744   24010998.9444
     -3584.5944
  -2552518.40748  -1982775.31343  24409913.0544   24409905.7724
      1822.3444
  -7650420.32549  -5947256.81346  21569141.9054   21569135.8514
      -830.5314
 04  9  2 16 56  0.0030000  0  6G 1G20G11G14G23G25
 -10048485.67649  -7825168.50646  21940471.2104   21940465.9834
       288.3134
  -7192531.28449  -5596580.09144  23179058.6474   23179052.8154
      1801.4384
  -2152970.76149  -1664469.80045  22483371.8434   22483365.9174
     -1789.8124
  19768973.15848  15388863.86043  24021238.3584   24021233.4374
     -3585.9224
  -2579830.26148  -2004057.26243  24404715.1794   24404707.6634
      1819.6094
  -7637891.92749  -5937494.42546  21571525.5934   21571520.4014
      -839.6724
 04  9  2 16 56 15.0030000  0  6G 1G20G11G14G23G25
 -10052770.17949  -7828507.06646  21939655.6404   21939650.8154
       282.8914
  -7219527.73449  -5617616.27644  23173921.5934   23173916.0974
      1797.9694
  -2126053.33249  -1643495.18245  22488493.5934   22488487.2654
     -1799.2504
  19822774.82948  15430787.23143  24031476.3974   24031471.1364
     -3587.8124
  -2607100.04548  -2025306.44243  24399525.7724   24399518.6084
      1816.2664
  -7625226.26249  -5927625.07846  21573936.1014   21573930.3974
      -849.2814
 04  9  2 16 56 30.0030000  0  6G 1G20G11G14G23G25
 -10056973.31849  -7831782.23846  21938855.9684   21938850.7334
       277.8754
  -7246472.37249  -5638612.09644  23168794.4294   23168788.1324
      1794.9694
  -2098993.20449  -1622409.38046  22493643.2334   22493637.1514
     -1808.3594
  19876604.03148  15472732.02643  24041719.8354   24041714.8044
     -3589.1724
  -2634320.67848  -2046517.29843  24394345.9444   24394339.2024
      1813.3914
  -7612416.31849  -5917643.29946  21576373.5304   21576368.3124
      -858.3594
 04  9  2 16 56 45.0030000  0  6G 1G20G11G14G23G25
 -10061102.39649  -7834999.69846  21938069.7964   21938064.8744
       272.9384
  -7273372.16649  -5659572.96544  23163675.1554   23163669.3194
      1791.8914
  -2071797.86349  -1601218.21846  22498818.1244   22498812.1514
     -1817.4374
  19930453.32448  15514692.51943  24051967.0934   24051962.0734
     -3590.5784
  -2661499.32248  -2067695.46343  24389173.5384   24389167.6204
      1810.5944
  -7599469.29749  -5907554.71946  21578837.2724   21578831.5854
      -867.5624
 04  9  2 16 57  0.0030000  0  6G 1G20G11G14G23G25
 -10065154.29449  -7838157.02646  21937298.6404   21937293.9014
       267.5634
  -7300223.69649  -5680496.23844  23158565.5544   23158560.0344
      1788.5004
  -2044464.19148  -1579919.26146  22504019.2414   22504013.8544
     -1826.9064
  19984325.75548  15556671.00843  24062218.8044   24062213.5344
     -3592.3124
  -2688632.82848  -2088838.43843  24384010.7184   24384003.6754
      1807.4224
  -7586382.13748  -5897356.93746  21581328.0774   21581322.3234
      -877.1564
 04  9  2 16 57 15.0030000  0  6G 1G20G11G14G23G25
 -10069131.54049  -7841256.17146  21936541.9214   21936537.4834
       262.8444
  -7327029.34249  -5701383.74344  23153464.3744   23153458.5154
      1785.8134
  -2016994.91448  -1558514.64946  22509246.8354   22509240.8974
     -1835.5314
  20038218.74048  15598665.51242  24072474.1874   24072469.0504
     -3593.3914
  -2715723.58947  -2109948.08242  24378855.6874   24378848.7144
      1804.8914
  -7573157.42948  -5887051.96246  21583844.2654   21583838.5814
      -886.0164
 04  9  2 16 57 30.0030000  0  6G 1G20G11G14G23G25
 -10073031.78249  -7844295.31546  21935799.7964   21935794.6014
       257.0634
  -7353786.37248  -5722233.35744  23148372.9524   23148367.4604
      1781.9064
  -1989387.54349  -1537002.41446  22514500.3664   22514494.2414
     -1845.4064
  20092134.58448  15640677.85043  24082733.8904   24082729.0504
     -3595.4844
  -2742769.23647  -2131022.62043  24373708.6874   24373701.3944
      1801.2034
  -7559792.93249  -5876638.07046  21586387.4444   21586381.8974
      -895.9534
 04  9  2 16 57 45.0030000  0  6G 1G20G11G14G23G25
 -10076854.50449  -7847274.07046  21935072.4914   21935068.2104
       252.4534
  -7380493.99748  -5743044.48944  23143290.4214   23143284.9054
      1779.1414
  -1961642.03949  -1515382.54946  22519780.2964   22519774.1044
     -1854.0944
  20146073.74548  15682708.32542  24092998.4294   24092993.1984
     -3596.5004
  -2769769.25747  -2152061.58143  24368571.2104   24368563.6794
      1798.7974
  -7546288.13349  -5866114.85846  21588957.6084   21588952.0224
      -904.8124
 04  9  2 16 58  0.0030000  0  6G 1G20G11G14G23G25
 -10080601.58249  -7850193.87146  21934359.5074   21934354.1014
       247.1724
  -7407153.92848  -5763818.45744  23138217.3664   23138211.7264
      1775.6724
  -1933760.34548  -1493656.58146  22525086.0224   22525079.6014
     -1863.3754
  20200034.24548  15724755.44443  24103266.5624   24103261.9794
     -3598.1254
  -2796725.31047  -2173066.28243  24363441.2494   24363434.3084
      1795.5164
  -7532644.78949  -5855483.68446  21591553.8904   21591548.1794
      -914.2974
 04  9  2 16 58 15.0030000  0  6G 1G20G11G14G23G25
 -10084269.90449  -7853052.28446  21933661.1714   21933656.4914
       242.1884
  -7433762.76049  -5784552.59444  23133153.4604   23133148.3784
      1772.5164
  -1905739.39049  -1471822.06745  22530417.8974   22530412.3234
     -1872.4224
  20254019.06548  15766821.52543  24113539.5774   24113534.7764
     -3599.5004
  -2823634.24847  -2194034.26343  24358320.6084   24358313.7574
      1792.6884
  -7518859.88649  -5844742.19446  21594176.9214   21594171.0774
      -923.4064
 04  9  2 16 58 30.0030000  0  6G 1G20G11G14G23G25
 -10087866.06249  -7855854.49346  21932976.8124   21932971.8544
       237.1094
  -7460326.83749  -5805251.87044  23128099.1794   23128093.3904
      1769.2664
  -1877585.83049  -1449884.24546  22535775.6084   22535769.6674
     -1881.4694
  20308021.61748  15808901.40043  24123816.4524   24123810.9724
     -3601.0004
  -2850502.49948  -2214970.54343  24353207.5304   24353200.8234
      1789.6884
  -7504940.12049  -5833895.63846  21596825.6714   21596819.8124
      -932.6724
 04  9  2 16 58 45.0030000  0  6G 1G20G11G14G23G25
 -10091381.23449  -7858593.58346  21932307.9374   21932303.1364
       231.4384
  -7486836.99449  -5825909.12444  23123054.0464   23123048.7724
      1765.2974
  -1849290.92048  -1427836.27546  22541159.8744   22541153.7924
     -1891.2194
  20362050.62848  15851001.90243  24134097.7334   24134092.7844
     -3603.0164
  -2877321.29648  -2235868.30743  24348103.5774   24348096.8314
      1786.0634
  -7490876.63348  -5822937.07646  21599502.0224   21599495.9444
      -942.5314
 04  9  2 16 59  0.0030000  0  6G 1G20G11G14G23G25
 -10094819.13349  -7861272.47246  21931653.5464   21931648.7964
       226.6724
  -7513296.66848  -5846527.05344  23118019.0224   23118013.8514
      1762.3444
  -1820858.52448  -1405681.17645  22546570.3904   22546564.3624
     -1900.0944
  20416102.39848  15893120.16143  24144383.3584   24144378.4484
     -3604.1724
  -2904094.23147  -2256730.30943  24343009.5544   24343002.6014
      1783.3284
  -7476673.26249  -5811869.51446  21602204.7264   21602198.9684
      -951.5164
 04  9  2 16 59 15.0030000  0  6G 1G20G11G14G23G25
 -10098182.35549  -7863893.14546  21931013.9764   21931008.7574
       221.5634
  -7539708.19948  -5867107.44744  23112992.9994   23112987.1904
      1759.0004
  -1792291.47049  -1383421.12845  22552006.5224   22552000.5154
     -1909.1564
  20470174.17148  15935253.96243  24154672.6554   24154668.0894
     -3605.6414
  -2930823.70047  -2277558.44743  24337923.2184   24337915.9604
      1780.3444
  -7462332.74549  -5800695.07546  21604933.6164   21604928.2414
      -960.8284
 04  9  2 16 59 30.0030000  0  6G 1G20G11G14G23G25
 -10101465.39549  -7866451.36646  21930389.3124   21930384.0304
       216.7194
  -7566065.89649  -5887645.90844  23107977.4214   23107971.7334
      1755.9534
  -1763584.10649  -1361051.76946  22557469.1324   22557463.6164
     -1917.9694
  20524271.43948  15977407.69343  24164966.7414   24164961.5974
     -3606.8594
  -2957504.07848  -2298348.34943  24332846.1014   24332838.8624
      1777.5634
  -7447849.38849  -5789409.35346  21607689.8434   21607684.1984
      -969.8124
 04  9  2 16 59 45.0030000  0  6G 1G20G11G14G23G25
 -10104671.90049  -7868949.94146  21929778.9134   21929773.5114
       211.0634
  -7592373.06449  -5908144.99644  23102970.8044   23102965.5194
      1752.0784
  -1734740.35749  -1338576.13446  22562958.2494   22562952.1634
     -1927.5624
  20578390.54548  16019578.39143  24175265.6474   24175260.8084
     -3608.7974
  -2984139.03248  -2319102.82543  24327778.0544   24327769.8944
      1774.0314
  -7433226.86349  -5778015.16846  21610472.3354   21610466.6364
      -979.6254
 04  9  2 17  0  0.0030000  0  6G 1G20G11G14G23G25
 -10107804.06049  -7871390.58046  21929182.8044   21929177.2964
       206.0004
  -7618631.70749  -5928606.26644  23097974.5154   23097968.6714
      1748.5474
  -1705762.63949  -1315996.10346  22568472.3124   22568466.3474
     -1936.6874
  20632529.14648  16061764.29343  24185567.8904   24185562.8124
     -3610.3124
  -3010730.53648  -2339823.47342  24322717.3194   24322710.3314
      1770.9384
  -7418467.46049  -5766514.34346  21613280.8974   21613275.1014
      -988.9224
 04  9  2 17  0 15.0030000  0  6G 1G20G11G14G23G25
 -10110858.32749  -7873770.52346  21928601.6164   21928597.0694
       201.3134
  -7644837.91648  -5949026.69044  23092987.4524   23092981.9094
      1745.5784
  -1676647.45248  -1293308.95645  22574012.9294   22574007.0074
     -1945.2814
  20686690.77548  16103968.12643  24195874.3354   24195869.8514
     -3611.3754
  -3037275.02247  -2360507.47743  24317666.3044   24317658.9054
      1768.3284
  -7403567.61649  -5754904.07446  21616116.1084   21616110.6594
      -997.7664
 04  9  2 17  0 30.0030000  0  6G 1G20G11G14G23G25
 -10113837.78149  -7876092.17546  21928034.3904   21928029.7694
       195.9224
  -7670994.52548  -5969408.44144  23088009.6794   23088004.2654
      1741.9064
  -1647398.06849  -1270517.23346  22579579.0154   22579572.9134
     -1954.6094
  20740872.19548  16146187.40642  24206184.4524   24206179.7104
     -3612.9844
  -3063775.65146  -2381157.29143  24312622.9054   24312616.1284
      1765.0944
  -7388530.46249  -5743186.81446  21618977.9994   21618971.6834
     -1007.2344
 04  9  2 17  0 45.0030000  0  6G 1G20G11G14G23G25
 -10116743.77049  -7878356.58446  21927481.4764   21927476.2574
       191.3754
  -7697102.66049  -5989752.44145  23083041.4134   23083036.0424
      1738.9844
  -1618015.88348  -1247622.04545  22585169.8514   22585164.1834
     -1963.0944
  20795072.06648  16188421.03742  24216499.0224   24216493.6514
     -3613.8594
  -3090233.53347  -2401773.82443  24307588.2654   24307581.1124
      1762.5314
  -7373357.42849  -5731363.67546  21621865.1014   21621859.6014
     -1015.9534
 04  9  2 17  1  0.0030000  0  6G 1G20G11G14G23G25
 -10119578.74249  -7880565.64846  21926942.2494   21926937.5264
       186.2034
  -7723164.55249  -6010060.40945  23078082.5694   23078077.3864
      1735.4844
  -1588503.58349  -1224625.46445  22590786.2804   22590780.6044
     -1972.2974
  20849287.80248  16230667.04043  24226816.0074   24226810.3314
     -3615.3284
  -3116651.12848  -2422358.93643  24302561.1874   24302554.3974
      1759.4384
  -7358051.10549  -5719436.67146  21624777.9134   21624772.3394
     -1025.2974
 04  9  2 17  1 15.0030000  0  6G 1G20G11G14G23G25
 -10122332.43249  -7882711.38046  21926418.1554   21926413.5894
       181.1564
  -7749169.66249  -6030324.12545  23073133.8354   23073127.9294
      1732.0474
  -1558850.89749  -1201519.48345  22596428.9134   22596422.8584
     -1981.1724
  20903529.59748  16272933.37643  24237137.7654   24237132.6044
     -3616.7504
  -3143018.06948  -2442904.60043  24297543.5854   24297536.4254
      1756.3284
  -7342601.14149  -5707397.73546  21627717.7184   21627712.0934
     -1034.4374
 04  9  2 17  1 30.0030000  0  6G 1G20G11G14G23G25
 -10125011.45849  -7884798.93246  21925908.4764   21925903.3394
       176.2974
  -7775124.31249  -6050548.51645  23068194.6404   23068189.1834
      1728.8284
  -1529064.60049  -1178309.39146  22602096.9444   22602091.2804
     -1989.9844
  20957790.81248  16315214.81942  24247462.8194   24247458.3434
     -3617.8444
  -3169340.88348  -2463415.87143  24292534.7654   24292527.3084
      1753.6414
  -7327014.30149  -5695252.14646  21630683.9684   21630677.9604
     -1043.4694
 04  9  2 17  1 45.0030000  0  6G 1G20G11G14G23G25
 -10127615.13349  -7886827.76546  21925413.2964   21925408.3544
       171.4844
  -7801027.56249  -6070732.85545  23063265.3434   23063260.0034
      1725.5634
  -1499144.21449  -1154994.81545  22607790.9684   22607784.8044
     -1998.7814
  21012072.28748  16357512.05643  24257792.8974   24257787.8004
     -3619.0474
  -3195618.65448  -2483892.03743  24287534.0774   24287527.2964
      1750.7344
  -7311289.79649  -5682999.29446  21633676.0074   21633670.3124
     -1052.5164
 04  9  2 17  2  0.0030000  0  6G 1G20G11G14G23G25
 -10130143.80549  -7888798.15546  21924931.8354   21924927.1014
       166.1724
  -7826879.34549  -6090877.09645  23058346.0934   23058340.6514
      1721.7664
  -1469090.26049  -1131576.16245  22613510.0694   22613504.0074
     -2007.9694
  21066373.49448  16399824.67942  24268126.1164   24268120.5934
     -3620.6724
  -3221851.77448  -2504333.40643  24282542.4914   24282535.4214
      1747.4384
  -7295428.08149  -5670639.51046  21636694.4834   21636688.8544
     -1061.8914
 04  9  2 17  2 15.0030000  0  6G 1G20G11G14G23G25
 -10132596.14849  -7890709.07846  21924465.1084   21924460.3124
       161.4224
  -7852678.21649  -6110980.11045  23053436.6634   23053431.5224
      1718.5944
  -1438901.58748  -1108052.54245  22619254.3514   22619248.5304
     -2016.6094
  21120695.58248  16442153.54242  24278462.6324   24278457.7264
     -3621.7504
  -3248038.83348  -2524738.88343  24277559.2414   24277551.9214
      1744.6724
  -7279427.82349  -5658171.78346  21639739.3044   21639733.7654
     -1070.9064
 04  9  2 17  2 30.0030000  0  6G 1G20G11G14G23G25
 -10134972.73849  -7892560.95646  21924012.7884   21924007.9644
       156.1254
  -7878424.41649  -6131042.07345  23048537.4444   23048532.2294
      1714.8284
  -1408578.70548  -1084424.31545  22625024.6634   22625018.8624
     -2025.6874
  21175037.92148  16484498.19243  24288804.2104   24288799.0464
     -3623.2504
  -3274180.27248  -2545108.83643  24272584.2024   24272577.5694
      1741.5474
  -7263289.76249  -5645596.66746  21642810.2804   21642804.1754
     -1080.1874
 04  9  2 17  2 45.0030000  0  6G 1G20G11G14G23G25
 -10137278.45749  -7894357.62246  21923574.1324   21923569.1474
       150.9534
  -7904122.58449  -6151066.61145  23043647.4214   23043641.9484
      1711.0944
  -1378126.70649  -1060695.49945  22630819.3974   22630814.2144
     -2034.8914
  21229395.56748  16526854.77942  24299148.1634   24299142.4374
     -3624.8594
  -3300280.99448  -2565447.04143  24267617.5544   24267610.4764
      1738.2664
  -7247018.85549  -5632918.03646  21645906.4524   21645900.5224
     -1089.5944
 04  9  2 17  3  0.0030000  0  6G 1G20G11G14G23G25
 -10139499.94349  -7896088.66746  21923151.6244   21923146.2804
       145.4534
  -7929759.13849  -6171043.16145  23038768.6324   23038763.0074
      1707.1564
  -1347532.25448  -1036855.69745  22636641.5074   22636635.5854
     -2044.1874
  21283781.84048  16569233.67542  24309497.4134   24309492.0224
     -3626.5624
  -3326327.47448  -2585743.00543  24262661.2184   24262654.0814
      1734.7504
  -7230601.76549  -5620125.50846  21649030.5304   21649024.9724
     -1099.2034
 04  9  2 17  3 15.0030000  0  6G 1G20G11G14G23G25
 -10141646.39449  -7897761.21546  21922743.0464   21922737.9334
       140.7814
  -7955342.91149  -6190978.54245  23033900.5384   23033894.8234
      1703.9844
  -1316804.70048  -1012912.15545  22642488.7654   22642483.1324
     -2052.7664
  21338187.47148  16611627.65542  24319850.6794   24319845.6984
     -3627.4694
  -3352328.84248  -2606003.78343  24257713.1324   24257706.6324
      1732.1414
  -7214047.59149  -5607226.15746  21652180.5694   21652174.6984
     -1108.0314
 04  9  2 17  3 30.0030000  0  6G 1G20G11G14G23G25
 -10143719.64849  -7899376.74146  21922348.5544   21922343.3084
       135.9694
  -7980875.51749  -6210874.06345  23029041.5154   23029036.1794
      1700.6724
  -1285946.17949   -988866.55245  22648360.8044   22648355.5584
     -2061.4064
  21392610.59548  16654035.26242  24330206.5074   24330201.4484
     -3628.5784
  -3378286.87848  -2626230.82143  24252773.2334   24252765.9644
      1729.3284
  -7197358.37949  -5594221.56546  21655356.8354   21655351.4094
     -1116.8754
 04  9  2 17  3 45.0030000  0  6G 1G20G11G14G23G25
 -10145719.11249  -7900934.76446  21921967.7184   21921962.8744
       130.7504
  -8006356.00149  -6230728.98845  23024192.7104   23024186.8944
      1696.8134
  -1254956.12348   -964718.47545  22654258.1874   22654252.6834
     -2070.4064
  21447051.84948  16696456.97542  24340566.3194   24340561.7884
     -3630.0944
  -3404200.88748  -2646423.51843  24247842.2414   24247835.0424
      1726.0634
  -7180533.59849  -5581111.35946  21658558.2724   21658552.3704
     -1126.2194
 04  9  2 17  4  0.0030000  0  6G 1G20G11G14G23G25
 -10147641.15749  -7902432.45846  21921602.2184   21921597.3154
       125.6724
  -8031780.53049  -6250540.30044  23019354.6714   23019348.7414
      1693.1564
  -1223831.20849   -940465.31445  22660180.8974   22660175.6044
     -2079.4374
  21501514.70248  16738895.57142  24350930.5934   24350926.1444
     -3631.5784
  -3430067.09948  -2666579.00843  24242920.1554   24242912.6674
      1722.8754
  -7163569.62149  -5567892.67146  21661786.1874   21661780.3944
     -1135.4694
 04  9  2 17  4 15.0030000  0  6G 1G20G11G14G23G25
 -10149486.07949  -7903870.06346  21921251.0464   21921246.1634
       120.0784
  -8057149.08449  -6270308.01245  23014527.2804   23014521.7334
      1689.0784
  -1192571.81348   -916107.35945  22666129.4834   22666123.9014
     -2088.8124
  21555998.72248  16781350.62142  24361298.7964   24361293.8704
     -3633.2974
  -3455885.85648  -2686697.50043  24238007.2804   24237999.6244
      1719.3284
  -7146466.67349  -5554565.71646  21665041.0304   21665035.1364
     -1145.1254
 04  9  2 17  4 30.0030000  0  6G 1G20G11G14G23G25
 -10151256.77849  -7905249.82746  21920913.7574   21920908.8474
       115.7034
  -8082464.30249  -6290034.13345  23009709.8514   23009704.0894
      1685.9844
  -1161180.87648   -891646.90945  22672103.2724   22672097.6084
     -2096.9534
  21610501.21648  16823820.04842  24371669.9214   24371664.9254
     -3633.9224
  -3481659.74848  -2706781.05543  24233102.0934   24233095.4014
      1716.9224
  -7129227.86849  -5541132.87646  21668321.3974   21668315.3974
     -1153.5944
 04  9  2 17  4 45.0030000  0  6G 1G20G11G14G23G25
 -10152946.87649  -7906566.77846  21920592.3904   21920587.5224
       110.0634
  -8107719.53148  -6309713.52645  23004904.1634   23004898.1514
      1681.7034
  -1129652.20149   -867079.11445  22678102.7334   22678096.9444
     -2106.5164
  21665028.38248  16866308.74742  24382046.7104   24382041.4444
     -3636.0004
  -3507382.50047  -2726824.71443  24228207.0694   24228200.2144
      1713.2814
  -7111846.86349  -5527589.23246  21671628.7104   21671623.1444
     -1163.3754
 04  9  2 17  5  0.0030000  0  6G 1G20G11G14G23G25
 -10154563.25849  -7907826.30546  21920284.9524   21920279.8944
       105.3284
  -8132921.39348  -6329351.33645  23000108.3044   23000103.0194
      1678.3284
  -1097992.87248   -842409.52345  22684127.5544   22684121.9174
     -2114.9694
  21719573.22948  16908811.21542  24392426.0624   24392421.1204
     -3636.8914
  -3533060.86447  -2746833.82343  24223320.5074   24223313.9524
      1710.3914
  -7094330.50549  -5513940.12946  21674961.9294   21674956.5814
     -1172.2974
 04  9  2 17  5 15.0030000  0  6G 1G20G11G14G23G25
 -10156099.73849  -7909023.55146  21919992.4764   21919987.6594
       100.0784
  -8158063.44048  -6348942.52645  22995323.7884   22995317.9764
      1674.4384
  -1066196.76549   -817633.33645  22690178.1474   22690172.2574
     -2123.9844
  21774141.92848  16951332.25842  24402809.9914   24402805.2574
     -3638.4224
  -3558688.53947  -2766803.42243  24218443.8744   24218437.1164
      1707.1254
  -7076672.72949  -5500180.82346  21678322.5074   21678316.0584
     -1181.6254
 04  9  2 17  5 30.0030000  0  6G 1G20G11G14G23G25
 -10157563.04349  -7910163.79746  21919713.8974   21919709.0114
        95.0314
  -8183152.08648  -6368492.10745  22990549.3824   22990543.5814
      1670.7344
  -1034270.72849   -792755.92345  22696253.2574   22696247.6474
     -2132.8594
  21828727.67848  16993866.58442  24413197.4834   24413192.1204
     -3639.6564
  -3584272.13347  -2786738.67043  24213575.1874   24213568.1674
      1703.9844
  -7058880.26149  -5486316.57346  21681708.1874   21681702.8514
     -1190.7664
 04  9  2 17  5 45.0040000  0  6G 1G20G11G14G23G25
 -10158952.93749  -7911246.81646  21919449.5194   21919444.7304
        90.4384
  -8208188.31248  -6388000.85445  22985785.1914   22985779.6724
      1667.3754
  -1002212.47949   -767775.48245  22702353.4964   22702347.7934
     -2141.2664
  21883334.25748  17036417.12542  24423588.6054   24423584.0824
     -3640.5314
  -3609813.00046  -2806640.63343  24208715.0354   24208707.8404
      1701.2664
  -7040951.60249  -5472346.18146  21685119.9804   21685113.8874
     -1199.4844
 04  9  2 17  6  0.0040000  0  6G 1G20G11G14G23G25
 -10160267.44149  -7912271.11846  21919199.1374   21919194.2624
        85.3284
  -8233166.80049  -6407464.59745  22981032.3554   22981026.4654
      1663.6414
   -970024.67849   -742694.09545  22708479.0514   22708473.0624
     -2150.0314
  21937956.35948  17078979.78542  24433983.3554   24433977.9654
     -3641.8594
  -3635305.83447  -2826505.16043  24203864.1844   24203856.9454
      1698.1884
  -7022887.57949  -5458270.32646  21688557.8094   21688551.8094
     -1208.6094
 04  9  2 17  6 15.0040000  0  6G 1G20G11G14G23G25
 -10161508.66749  -7913238.30246  21918963.3094   21918958.7114
        80.0164
  -8258090.90749  -6426885.97545  22976289.4344   22976283.7504
      1659.5784
   -937707.36049   -717511.78445  22714628.7544   22714623.0194
     -2159.0784
  21992595.42148  17121555.66742  24444380.1444   24444375.6254
     -3643.4694
  -3660754.27248  -2846335.10043  24199020.9574   24199014.5434
      1694.8284
  -7004689.02049  -5444089.64346  21692020.5354   21692014.5044
     -1217.9844
 04  9  2 17  6 30.0040000  0  6G 1G20G11G14G23G25
 -10162671.80349  -7914144.65046  21918741.9344   21918736.8364
        74.8594
  -8282955.64448  -6446261.08045  22971557.7234   22971551.7814
      1655.5004
   -905255.88248   -692224.93545  22720804.1844   22720798.1374
     -2168.0474
  22047256.21448  17164148.47342  24454781.8794   24454776.8054
     -3644.9374
  -3686153.34347  -2866126.55843  24194188.3324   24194181.2424
      1691.5474
  -6986351.14149  -5429800.39346  21695510.1524   21695504.5474
     -1227.3124
 04  9  2 17  6 45.0040000  0  6G 1G20G11G14G23G25
 -10163755.63949  -7914989.18446  21918535.8794   21918530.6724
        70.1254
  -8307759.49448  -6465588.74345  22966837.8634   22966832.0474
      1652.0474
   -872669.15949   -666832.69445  22727005.1994   22726999.0984
     -2176.4694
  22101940.01748  17206759.20142  24465188.3244   24465183.3714
     -3645.8754
  -3711501.87147  -2885878.63843  24189364.7384   24189357.6684
      1688.6724
  -6967872.74749  -5415401.63246  21699026.5434   21699020.6844
     -1236.0784
 04  9  2 17  7  0.0040000  0  6G 1G20G11G14G23G25
 -10164765.23449  -7915775.89646  21918343.6294   21918338.6054
        64.9534
  -8332507.17949  -6484872.63745  22962128.1444   22962122.7464
      1648.0944
   -839952.39349   -641339.12145  22733230.6604   22733225.3364
     -2185.3444
  22156641.60948  17249383.80142  24475597.2854   24475592.2544
     -3647.1874
  -3736804.75347  -2905595.15343  24184549.6764   24184542.6134
      1685.4224
  -6949259.04349  -5400897.46346  21702568.2934   21702562.7664
     -1245.2814
 04  9  2 17  7 15.0040000  0  6G 1G20G11G14G23G25
 -10165698.57549  -7916503.17546  21918165.9414   21918160.8124
        59.6564
  -8357196.35649  -6504110.96345  22957430.1524   22957424.4024
      1643.9694
   -807103.80349   -615742.83745  22739481.7074   22739476.0274
     -2194.3284
  22211363.02848  17292023.85042  24486010.3484   24486005.1294
     -3648.7194
  -3762059.81247  -2925274.38443  24179743.4804   24179736.5984
      1682.0634
  -6930508.13449  -5386286.37146  21706136.6444   21706130.8874
     -1254.6724
 04  9  2 17  7 30.0040000  0  6G 1G20G11G14G23G25
 -10166551.58149  -7917167.85646  21918003.8484   21917998.9304
        54.3284
  -8381822.68549  -6523300.30145  22952743.9414   22952738.0514
      1639.7504
   -774119.40749   -590040.72945  22745758.4494   22745752.8404
     -2203.3444
  22266108.35648  17334682.50842  24496427.7694   24496423.1334
     -3650.3594
  -3787263.01047  -2944913.23843  24174947.7304   24174940.5944
      1678.6884
  -6911615.99449  -5371565.22746  21709731.5594   21709725.8284
     -1264.0624
 04  9  2 17  7 45.0040000  0  6G 1G20G11G14G23G25
 -10167333.09249  -7917776.82446  21917854.6444   21917849.9104
        49.5004
  -8406394.78349  -6542447.38545  22948067.9734   22948062.1764
      1636.0314
   -741008.11749   -564239.73845  22752059.6524   22752053.6874
     -2211.9064
  22320868.56148  17377352.78842  24506848.6684   24506844.2114
     -3651.4694
  -3812423.23947  -2964518.60843  24170160.0594   24170152.4694
      1675.6564
  -6892591.57149  -5356740.99046  21713351.8714   21713346.2304
     -1272.9844
 04  9  2 17  8  0.0040000  0  6G 1G20G11G14G23G25
 -10168033.29749  -7918322.43646  21917721.8404   21917716.5984
        44.2664
  -8430902.53249  -6561544.32445  22943404.0354   22943398.4454
      1631.8594
   -707760.46049   -538332.48545  22758386.2934   22758380.3124
     -2220.8284
  22375653.42348  17420042.24242  24517274.1294   24517269.3404
     -3652.9224
  -3837530.42448  -2984082.61643  24165382.1134   24165374.9064
      1672.2034
  -6873425.01749  -5341806.02546  21716999.3324   21716993.6174
     -1282.2974
 04  9  2 17  8 15.0040000  0  6G 1G20G11G14G23G25
 -10168660.23049  -7918810.95646  21917602.5594   21917597.2664
        39.5164
  -8455353.69349  -6580597.16245  22938751.3164   22938745.5784
      1628.3594
   -674384.51549   -512325.26845  22764737.8554   22764732.1294
     -2229.1724
  22430454.86448  17462744.66942  24527702.8014   24527697.5984
     -3653.7814
  -3862592.53047  -3003611.52643  24160612.8944   24160605.3714
      1669.5314
  -6854124.40249  -5326766.58646  21720671.9494   21720666.3634
     -1290.9844
 04  9  2 17  8 30.0040000  0  6G 1G20G11G14G23G25
 -10169218.43549  -7919245.92146  21917496.3014   21917491.2504
        34.4224
  -8479752.48149  -6599609.19645  22934108.2934   22934102.7464
      1624.2974
   -640884.98849   -486221.76045  22771112.4024   22771106.4884
     -2237.9224
  22485268.40248  17505456.45542  24538133.1994   24538128.1954
     -3655.1874
  -3887613.97448  -3023108.75843  24155851.6684   24155844.2074
      1666.2344
  -6834694.42649  -5311626.35446  21724369.0904   21724363.6484
     -1300.1874
 04  9  2 17  8 45.0040000  0  6G 1G20G11G14G23G25
 -10169697.33349  -7919619.08646  21917404.9884   21917400.1374
        29.0944
  -8504088.06448  -6618571.98545  22929477.3484   22929471.8324
      1620.0634
   -607251.43648   -460013.81745  22777512.5664   22777506.9694
     -2246.9224
  22540104.55048  17548185.93242  24548568.0664   24548563.0824
     -3656.6724
  -3912584.02147  -3042565.91843  24151099.9574   24151092.8554
      1662.7974
  -6815124.53048  -5296377.08646  21728093.4494   21728088.0514
     -1309.5624
 04  9  2 17  9  0.0040000  0  6G 1G20G11G14G23G25
 -10170102.93049  -7919935.14146  21917327.7774   21917322.7274
        24.9224
  -8528366.24748  -6637490.03445  22924857.5044   22924851.8834
      1617.0004
   -573490.06848   -433706.27145  22783937.1444   22783930.7974
     -2254.6564
  22594957.28648  17590928.26942  24559006.1444   24559001.2504
     -3657.0164
  -3937508.72247  -3061987.72343  24146357.0044   24146349.1764
      1660.4694
  -6795420.93949  -5281023.63546  21731842.7464   21731837.5904
     -1317.7034
 04  9  2 17  9 15.0040000  0  6G 1G20G11G14G23G25
 -10170435.48349  -7920194.27446  21917264.7544   21917259.5624
        19.4064
  -8552586.91048  -6656363.26145  22920248.1684   22920242.7074
      1612.4064
   -539601.19549   -407299.37045  22790386.0904   22790380.4264
     -2263.8444
  22649826.18548  17633683.22842  24569447.7934   24569442.6804
     -3658.8754
  -3962388.31147  -3081374.42343  24141622.4804   24141615.2424
      1656.8284
  -6775583.74749  -5265566.08446  21735617.6914   21735611.8244
     -1327.2504
 04  9  2 17  9 30.0040000  0  6G 1G20G11G14G23G25
 -10170688.96649  -7920391.79546  21917216.5664   21917211.4104
        14.6564
  -8576743.69248  -6675186.72845  22915651.5824   22915645.9224
      1608.7034
   -505579.14348   -380788.69345  22796860.1524   22796854.4184
     -2272.2034
  22704717.31248  17676455.52342  24579893.2464   24579888.3404
     -3659.7504
  -3987216.57147  -3100721.09943  24136897.8944   24136890.9374
      1653.9384
  -6755606.99748  -5249999.78846  21739419.1684   21739413.8484
     -1336.0164
 04  9  2 17  9 45.0040000  0  6G 1G20G11G14G23G25
 -10170871.44349  -7920533.98646  21917181.7384   21917176.6724
         9.5474
  -8600844.41848  -6693966.51245  22911065.1684   22911059.4654
      1604.6414
   -471432.02248   -354180.57245  22803358.5274   22803352.5904
     -2280.8594
  22759622.50548  17719238.77842  24590341.8554   24590336.1644
     -3661.0474
  -4012001.56447  -3120034.07843  24132181.4264   24132174.4144
      1650.5944
  -6735499.01349  -5234331.23946  21743245.8014   21743240.4264
     -1345.1414
 04  9  2 17 10  0.0040000  0  6G 1G20G11G14G23G25
 -10170975.99549  -7920615.45746  21917161.6294   21917156.7774
         4.4064
  -8624881.79448  -6712696.92245  22906490.7304   22906485.3364
      1600.4534
   -437153.11948   -327469.75145  22809881.3944   22809875.6054
     -2289.6254
  22814548.67548  17762038.36842  24600792.5354   24600788.8914
     -3662.4534
  -4036736.23347  -3139307.83844  24127474.1374   24127467.6024
      1647.3284
  -6715252.91649  -5218555.05246  21747098.5044   21747092.9264
     -1354.2974
 04  9  2 17 10 15.0040000  0  6G 1G20G11G14G23G25
 -10171005.33349  -7920638.32546  21917156.3244   21917151.3754
        -0.4534
  -8648858.36048  -6731379.96245  22901928.5664   22901923.1564
      1596.5784
   -402745.32349   -300658.49145  22816428.9024   22816422.6644
     -2297.9534
  22869493.04548  17804852.13642  24611247.7154   24611244.0864
     -3663.3754
  -4061423.21747  -3158544.42943  24122776.9494   24122769.0514
      1644.3754
  -6694871.40749  -5202673.36446  21750976.7304   21750971.0984
     -1363.1254
 04  9  2 17 10 30.0040000  0  6G 1G20G11G14G23G25
 -10170961.78149  -7920604.38446  21917164.2464   21917159.5624
        -5.4224
  -8672776.19748  -6750017.23245  22897376.8794   22897371.7934
      1592.4384
   -368211.06449   -273748.70245  22823000.5664   22822994.5944
     -2306.5944
  22924453.27748  17847678.26442  24621707.4964   24621702.5474
     -3664.6874
  -4086064.73947  -3177745.60544  24118087.6994   24118080.4924
      1641.1254
  -6674357.03249  -5186688.14446  21754880.6764   21754874.9614
     -1372.1724
 04  9  2 17 10 45.0040000  0  6G 1G20G11G14G23G25
 -10170843.44849  -7920512.16646  21917187.0044   21917182.0744
       -10.6094
  -8696633.05148  -6768606.96245  22892836.9184   22892831.2934
      1588.2034
   -333548.70849   -246739.08345  22829596.2624   22829591.0044
     -2315.3914
  22979431.19447  17890518.17842  24632168.8794   24632164.6094
     -3666.0624
  -4110658.77547  -3196909.75244  24113407.5514   24113400.3634
      1637.8284
  -6653707.97048  -5170597.96146  21758809.8554   21758804.0044
     -1381.3754
 04  9  2 17 11  0.0040000  0  6G 1G20G11G14G23G25
 -10170649.14449  -7920360.77346  21917223.5044   21917218.6994
       -15.2034
  -8720427.37049  -6787147.99845  22888309.3874   22888303.5194
      1584.5314
   -298757.17849   -219628.82045  22836217.3634   22836211.6414
     -2323.4694
  23034427.97748  17933372.76142  24642634.4654   24642630.0824
     -3666.7664
  -4135204.08447  -3216035.97644  24108736.5984   24108729.6254
      1634.9694
  -6632923.01949  -5154401.90846  21762765.0904   21762759.6294
     -1389.8914
 04  9  2 17 11 15.0040000  0  6G 1G20G11G14G23G25
 -10170382.18649  -7920152.75246  21917274.6604   21917269.8484
       -20.1724
  -8744162.26949  -6805642.71645  22883792.7774   22883787.5164
      1580.4064
   -263839.97549   -192420.62645  22842861.8634   22842856.2424
     -2331.9694
  23089440.32947  17976239.52342  24653103.4414   24653098.6484
     -3668.0164
  -4159703.86647  -3235126.69444  24104074.2544   24104066.9534
      1631.7034
  -6612005.52749  -5138102.56247  21766745.7694   21766739.9344
     -1398.9224
 04  9  2 17 11 30.0040000  0  6G 1G20G11G14G23G25
 -10170046.34749  -7919891.06246  21917338.7934   21917333.6054
       -25.0474
  -8767841.21149  -6824093.82845  22879286.5824   22879281.2384
      1576.4064
   -228801.03849   -165117.57345  22849529.6214   22849524.0624
     -2340.3124
  23144464.40347  18019115.41142  24663573.4494   24663569.5664
     -3669.0474
  -4184161.92247  -3254184.91044  24099420.3874   24099413.0394
      1628.8284
  -6590959.38349  -5121702.97246  21770750.5744   21770745.0984
     -1407.7034
 04  9  2 17 11 45.0040000  0  6G 1G20G11G14G23G25
 -10169634.17149  -7919569.89146  21917416.7624   21917411.9774
       -30.1874
  -8791456.48348  -6842495.33445  22874792.5594   22874787.4414
      1572.1884
   -193633.03548   -137713.95045  22856221.7234   22856216.1334
     -2348.9064
  23199507.57148  18062006.15642  24674048.5514   24674044.0004
     -3670.3124
  -4208570.56647  -3273204.62444  24094775.0594   24094767.9924
      1625.5474
  -6569777.13048  -5105197.32446  21774781.4264   21774775.6094
     -1416.8594
 04  9  2 17 12  0.0040000  0  6G 1G20G11G14G23G25
 -10169144.25949  -7919188.13646  21917510.4884   21917505.6604
       -35.2974
  -8815006.34248  -6860845.87345  22870311.3244   22870305.8984
      1567.7194
   -158334.85149   -110208.89645  22862938.5744   22862932.5234
     -2357.5784
  23254571.13947  18104912.80142  24684527.1994   24684522.3594
     -3671.6564
  -4232928.44447  -3292184.77343  24090139.9654   24090133.0664
      1622.1094
  -6548457.66949  -5088584.75946  21778838.3554   21778832.8324
     -1425.9694
 04  9  2 17 12 15.0040000  0  6G 1G20G11G14G23G25
 -10168580.84549  -7918749.11846  21917617.4264   21917612.4144
       -40.0314
  -8838494.73149  -6879148.50545  22865841.8404   22865836.1994
      1563.7814
   -122910.89049    -82605.81745  22869679.5824   22869673.9064
     -2365.8444
  23309650.91548  18147832.09542  24695007.9184   24695002.6374
     -3672.4844
  -4257239.65047  -3311128.57144  24085513.8094   24085506.5314
      1619.2504
  -6527005.31849  -5071868.65046  21782920.8874   21782914.8554
     -1434.5944
 04  9  2 17 12 30.0040000  0  6G 1G20G11G14G23G25
 -10167941.63349  -7918251.03146  21917738.7854   21917733.9024
       -45.3444
  -8861919.09949  -6897401.25545  22861384.2234   22861378.4654
      1559.3444
    -87358.87949    -54902.96945  22876445.1524   22876439.1334
     -2374.5624
  23364749.14748  18190765.76442  24705492.8094   24705487.7624
     -3673.9694
  -4281501.71648  -3330034.05044  24080896.7384   24080890.1764
      1615.7034
  -6505417.73349  -5055047.14146  21787028.5044   21787023.3204
     -1443.8594
 04  9  2 17 12 45.0040000  0  6G 1G20G11G14G23G25
 -10167229.45649  -7917696.09546  21917874.5904   21917869.3324
       -49.6564
  -8885281.98849  -6915606.09145  22856938.4804   22856932.8794
      1555.7194
    -51682.02048    -27102.84145  22883234.1444   22883228.3244
     -2382.3594
  23419863.01547  18233711.58042  24715980.6524   24715975.7894
     -3674.5624
  -4305717.60448  -3348903.56044  24076289.0594   24076281.3524
      1613.1564
  -6483697.89049  -5038122.60446  21791161.6684   21791156.1914
     -1452.1414
 04  9  2 17 13  0.0040000  0  6G 1G20G11G14G23G25
 -10166445.96849  -7917085.58546  21918024.1214   21918018.8484
       -54.5164
  -8908584.76248  -6933764.08445  22852504.0354   22852498.3094
      1551.6414
    -15882.05848       793.21945  22890046.5434   22890040.9924
     -2390.7344
  23474990.76947  18276668.26242  24726471.1914   24726465.9024
     -3675.4694
  -4329888.72847  -3367738.19344  24071689.2624   24071682.1684
      1610.0004
  -6461847.43649  -5021096.27546  21795319.6214   21795314.0004
     -1460.9844
 04  9  2 17 13 15.0040000  0  6G 1G20G11G14G23G25
 -10165585.70149  -7916415.24146  21918187.3324   21918182.2234
       -60.0784
  -8931821.62848  -6951870.73045  22848082.1444   22848076.5904
      1546.7034
     20046.31349     28789.33445  22896883.3794   22896877.9614
     -2399.6724
  23530137.84348  18319639.98442  24736965.6054   24736959.9064
     -3677.2194
  -4354009.56847  -3386533.63944  24067099.0594   24067092.1054
      1606.1724
  -6439861.08849  -5003964.04946  21799503.5594   21799498.2424
     -1470.4534
 04  9  2 17 13 30.0040000  0  6G 1G20G11G14G23G25
 -10164653.39949  -7915688.78346  21918364.7304   21918360.0984
       -64.6254
  -8954997.08848  -6969929.53145  22843672.2304   22843666.2584
      1542.9534
     56098.16248     56881.66545  22903744.1374   22903738.7774
     -2407.6724
  23585299.55248  18362623.11242  24747461.7074   24747456.7304
     -3677.9534
  -4378084.76747  -3405293.51344  24062517.6764   24062510.5124
      1603.3594
  -6417743.73049  -4986729.75846  21803712.1684   21803707.0194
     -1478.8594
